[[{"header":{"parameterUnit":"m.s-1","parameterCategory":1,"la1":30.6,"la2":29.2853,"lo1":-89.7004,"lo2":-87.6739,"dy":0.0162,"dx":0.0183,"nx":112,"ny":82,"refTime":"2025-01-22T06:00:00:Z","depth":0,"parameterNumber":2,"parameterNumberName":"U-component_of_WINDS"},"data":[0.0,0.0,0.0,0.0,0.0,0.0,0.0,0.0,0.0,0.0,0.0,0.0,0.0,0.0,0.0,0.0,0.0,0.0,0.0,0.0,0.0,0.0,0.0,0.0,0.0,0.0,0.0,0.0,0.0,0.0,0.0,0.0,0.0,0.0,0.0,0.0,0.0,0.0,0.0,0.0,0.0,0.0,0.0,0.0,0.0,0.0,0.0,0.0,0.0,0.0,0.0,0.0,0.0,0.0,0.0,0.0,0.0,0.0,0.0,0.0,0.0,0.0,0.0,0.0,0.0,0.0,0.0,0.0,0.0,0.0,0.0,0.0,0.0,0.0,0.0,0.0,0.0,0.0,0.0,0.0,0.0,0.0,0.0,0.0,0.0,0.0,0.0,0.0,0.0,0.0,0.0,1.1355,1.1331,1.119,1.092,1.0323,0.9816,0.9422,0.0,0.0,0.0,0.0,0.0,0.0,0.0,0.0,0.0,0.0,0.0,0.0,0.0,0.0,0.0,0.0,0.0,0.0,0.0,0.0,0.0,0.0,0.0,0.0,0.0,0.0,0.0,0.0,0.0,0.0,0.0,0.0,0.0,0.0,0.0,0.0,0.0,0.0,0.0,0.0,0.0,0.0,0.0,0.0,0.0,0.0,0.0,0.0,0.0,0.0,0.0,0.0,0.0,0.0,0.0,0.0,0.0,0.0,0.0,0.0,0.0,0.0,0.0,0.0,0.0,0.0,0.0,0.0,0.0,0.0,0.0,0.0,0.0,0.0,0.0,0.0,0.0,0.0,0.0,0.0,0.0,0.0,0.0,0.0,0.0,0.0,0.0,0.0,0.0,0.0,0.0,0.0,0.0,0.0,0.0,0.0,0.0,0.0,0.0,0.0,0.0,0.0,0.0,0.0,1.1685,1.1721,1.1479,1.1182,1.092,1.0544,1.0072,0.9448,0.0,0.0,0.0,0.0,0.0,0.0,0.0,0.0,0.0,0.0,0.0,0.0,0.0,0.0,0.0,0.0,0.0,0.0,0.0,0.0,0.0,0.0,0.0,0.0,0.0,0.0,0.0,0.0,0.0,0.0,0.0,0.0,0.0,0.0,0.0,0.0,0.0,0.0,0.0,0.0,0.0,0.0,0.0,0.0,0.0,0.0,0.0,0.0,0.0,0.0,0.0,0.0,0.0,0.0,0.0,0.0,0.0,0.0,0.0,0.0,0.0,0.0,0.0,0.0,0.0,0.0,0.0,0.0,0.0,0.0,0.0,0.0,0.0,0.0,0.0,0.0,0.0,0.0,0.0,0.0,0.0,0.0,0.0,0.0,0.0,0.0,0.0,0.0,0.0,0.0,0.0,0.0,0.0,0.0,0.0,0.0,0.0,0.0,0.0,0.0,0.0,0.0,0.0,1.1597,1.176,1.179,1.1501,1.1253,1.1129,1.0676,1.026,0.9957,0.9437,0.0,0.0,0.0,0.0,0.0,0.0,0.0,0.0,0.0,0.0,0.0,0.0,0.0,0.0,0.0,0.0,0.0,0.0,0.0,0.0,0.0,0.0,0.0,0.0,0.0,0.0,0.0,0.0,0.0,0.0,0.0,0.0,0.0,0.0,0.0,0.0,0.0,0.0,0.0,0.0,0.0,0.0,0.0,0.0,0.0,0.0,0.0,0.0,0.0,0.0,0.0,0.0,0.0,0.0,0.0,0.0,0.0,0.0,0.0,0.0,0.0,0.0,0.0,0.0,0.0,0.0,0.0,0.0,0.0,0.0,0.0,0.0,0.0,0.0,0.0,0.0,0.0,0.0,0.0,0.0,0.0,0.0,0.0,0.0,0.0,0.0,0.0,0.0,0.0,0.0,0.0,0.0,0.0,0.0,0.0,0.0,0.0,0.0,0.0,0.0,0.0,0.0,1.1825,1.1889,1.2029,1.195,1.1792,1.1563,1.111,1.0727,1.0422,0.9829,0.0,0.0,0.0,0.0,0.0,0.0,0.0,0.0,0.0,0.0,0.0,0.0,0.0,0.0,0.0,0.0,0.0,0.0,0.0,0.0,0.0,0.0,0.0,0.0,0.0,0.0,0.0,0.0,0.0,0.0,0.0,0.0,0.0,0.0,0.0,0.0,0.0,0.0,0.0,0.0,0.0,0.0,0.0,0.0,0.0,0.0,0.0,0.0,0.0,0.0,0.0,0.0,0.0,0.0,0.0,0.0,0.0,0.0,0.0,0.0,0.0,0.0,0.0,0.0,0.0,0.0,0.0,0.0,0.0,0.0,0.0,0.0,0.0,0.0,0.0,0.0,0.0,0.0,0.0,0.0,0.0,0.0,0.0,0.0,0.0,0.0,0.0,0.0,0.0,0.0,0.0,0.0,0.0,0.0,0.0,0.0,0.0,0.0,0.0,0.0,0.0,0.0,1.2059,1.2378,1.2706,1.3274,1.3243,1.2303,1.2197,1.1659,1.0473,0.9995,0.0,0.0,0.0,0.0,0.0,0.0,0.0,0.0,0.0,0.0,0.0,0.0,0.0,0.0,0.0,0.0,0.0,0.0,0.0,0.0,0.0,0.0,0.0,0.0,0.0,0.0,0.0,0.0,0.0,0.0,0.0,0.0,0.0,0.0,0.0,0.0,0.0,0.0,0.0,0.0,0.0,0.0,0.0,0.0,0.0,0.0,0.0,0.0,0.0,0.0,0.0,0.0,0.0,0.0,0.0,0.0,0.0,0.0,0.0,0.0,0.0,0.0,0.0,0.0,0.0,0.0,0.0,0.0,0.0,0.0,0.0,0.0,0.0,0.0,0.0,0.0,0.0,0.0,0.0,0.0,0.0,0.0,0.0,0.0,0.0,0.0,0.0,0.0,0.0,0.0,0.0,0.0,0.0,0.0,0.0,0.0,0.0,0.0,0.0,0.0,0.0,0.0,1.2287,1.2844,0.0,1.3391,1.3476,1.268,1.2271,1.1682,1.0768,0.0,0.0,0.0,0.0,0.0,0.0,0.0,0.0,0.0,0.0,0.0,0.0,0.0,0.0,0.0,0.0,0.0,0.0,0.0,0.0,0.0,0.0,0.0,0.0,0.0,0.0,0.0,0.0,0.0,0.0,0.0,0.0,0.0,0.0,0.0,0.0,0.0,0.0,0.0,0.0,0.0,0.0,0.0,0.0,0.0,0.0,0.0,0.0,0.0,0.0,0.0,0.0,0.0,0.0,0.0,0.0,0.0,0.0,0.0,0.0,0.0,0.0,0.0,0.0,0.0,0.0,0.0,0.0,0.0,0.0,0.0,0.0,0.0,0.0,0.0,0.0,0.0,0.0,0.0,0.0,0.0,0.0,0.0,0.0,0.0,0.0,0.0,0.0,0.0,0.0,0.0,0.0,0.0,0.0,0.0,0.0,0.0,0.0,0.0,0.0,0.0,0.0,1.1307,1.2526,1.332,0.0,1.3899,1.4154,1.3493,1.2854,1.2179,1.1382,0.0,0.0,0.0,0.0,0.0,0.0,0.0,0.0,0.0,0.0,0.0,0.0,0.0,0.0,0.0,0.0,0.0,0.0,0.0,0.0,0.0,0.0,0.0,0.0,0.0,0.0,0.0,0.0,0.0,0.0,0.0,0.0,0.0,0.0,0.0,0.0,0.0,0.0,0.0,0.0,0.0,0.0,0.0,0.0,0.0,0.0,0.0,0.0,0.0,0.0,0.0,0.0,0.0,0.0,0.0,0.0,0.0,0.0,0.0,0.0,0.0,0.0,0.0,0.0,0.0,0.0,0.0,0.0,0.0,0.0,0.0,0.0,0.0,0.0,0.0,0.0,0.0,0.0,0.0,0.0,0.0,0.0,0.0,0.0,0.0,0.0,0.0,0.0,0.0,0.0,0.0,0.0,0.0,0.0,0.0,0.0,0.0,0.0,0.0,0.0,0.0,0.0,1.1265,1.278,1.3797,1.3812,1.5005,1.5529,1.4871,1.4184,1.3373,0.0,0.0,0.0,0.0,0.0,0.0,0.0,0.0,0.0,0.0,0.0,0.0,0.0,0.0,0.0,0.0,0.0,0.0,0.0,0.0,0.0,0.0,0.0,0.0,0.0,0.0,0.0,0.0,0.0,0.0,0.0,0.0,0.0,0.0,0.0,0.0,0.0,0.0,0.0,0.0,0.0,0.0,0.0,0.0,0.0,0.0,0.0,0.0,0.0,0.0,0.0,0.0,0.0,0.0,0.0,0.0,0.0,0.0,0.0,0.0,0.0,0.0,0.0,0.0,0.0,0.0,0.0,0.0,0.0,0.0,0.0,0.0,0.0,0.0,0.0,0.0,0.0,0.0,0.0,0.0,0.0,0.0,0.0,0.0,0.0,0.0,0.0,0.0,0.0,0.0,0.0,0.0,0.0,0.0,0.0,0.0,0.0,0.0,0.0,0.0,0.0,0.0,0.0,1.1649,1.2948,1.3989,1.4453,1.5275,1.5529,1.4871,1.3971,1.3127,1.2361,0.0,0.0,0.0,0.0,0.0,0.0,0.0,0.0,0.0,0.0,0.0,0.0,0.0,0.0,0.0,0.0,0.0,0.0,0.0,0.0,0.0,0.0,0.0,0.0,0.0,0.0,0.0,0.0,0.0,0.0,0.0,0.0,0.0,0.0,0.0,0.0,0.0,0.0,0.0,0.0,0.0,0.0,0.0,0.0,0.0,0.0,0.0,0.0,0.0,0.0,0.0,0.0,0.0,0.0,0.0,0.0,0.0,0.0,0.0,0.0,0.0,0.0,0.0,0.0,0.0,0.0,0.0,0.0,0.0,0.0,0.0,0.0,0.0,0.0,0.0,0.0,0.0,0.0,0.0,0.0,0.0,0.0,0.0,0.0,0.0,0.0,0.0,0.0,0.0,0.0,0.0,0.0,0.0,0.0,0.0,0.0,0.0,0.0,0.0,0.0,0.0,0.0,1.1842,1.3245,1.4348,1.4766,1.5395,1.5649,1.523,1.423,1.3413,1.2941,0.0,0.0,0.0,0.0,0.0,0.0,0.0,0.0,0.0,0.0,0.0,0.0,0.0,0.0,0.0,0.0,0.0,0.0,0.0,0.0,0.0,0.0,0.0,0.0,0.0,0.0,0.0,0.0,0.0,0.0,0.0,0.0,0.0,0.0,0.0,0.0,0.0,0.0,0.0,0.0,0.0,0.0,0.0,0.0,0.0,0.0,0.0,0.0,0.0,0.0,0.0,0.0,0.0,0.0,0.0,0.0,0.0,0.0,0.0,0.0,0.0,0.0,0.0,0.0,0.0,0.0,0.0,0.0,0.0,0.0,0.0,0.0,0.0,0.0,0.0,0.0,0.0,0.0,0.0,0.0,0.0,0.0,0.0,0.0,0.0,0.0,0.0,0.0,0.0,0.0,0.0,0.0,0.0,0.0,0.0,0.0,0.0,0.0,0.0,0.0,0.0,0.0,1.198,1.3638,1.4826,1.4886,1.5439,1.5784,1.5741,1.4731,1.4007,1.3853,0.0,0.0,0.0,0.0,0.0,0.0,0.0,0.0,0.0,0.0,0.0,0.0,0.0,0.0,0.0,0.0,0.0,0.0,0.0,0.0,0.0,0.0,0.0,0.0,0.0,0.0,0.0,0.0,0.0,0.0,0.0,0.0,0.0,0.0,0.0,0.0,0.0,0.0,0.0,0.0,0.0,0.0,0.0,0.0,0.0,0.0,0.0,0.0,0.0,0.0,0.0,0.0,0.0,0.0,0.0,0.0,0.0,0.0,0.0,0.0,-0.251,0.0,0.0,0.0,0.0,0.0,0.0,0.0,0.0,0.0,0.0,0.0,0.0,0.0,0.0,0.0,0.0,0.0,0.0,0.0,0.0,0.0,0.0,0.0,0.0,0.0,0.0,0.0,0.0,0.0,0.0,0.0,0.0,0.0,0.0,0.0,0.0,0.0,0.0,0.0,0.0,0.0,1.255,1.3885,1.5005,1.5529,1.5709,1.5653,1.527,1.4544,1.4083,1.4051,1.2878,0.0,0.0,0.0,0.0,0.0,0.0,0.0,0.0,0.0,0.0,0.0,0.0,0.0,0.0,0.0,0.0,0.0,0.0,0.0,0.0,0.0,0.0,0.0,0.0,0.0,0.0,0.0,0.0,0.0,0.0,0.0,0.0,0.0,0.0,0.0,0.0,0.0,0.0,0.0,0.0,0.0,0.0,0.0,0.0,0.0,0.0,0.0,0.0,0.0,0.0,0.0,0.0,0.0,0.0,0.0,0.0,0.0,0.0,0.0,0.0,0.1932,0.0,0.0,0.0,0.0,0.0,0.0,0.0,0.0,0.0,0.0,0.0,0.0,0.0,0.0,0.0,0.0,0.0,0.0,0.0,0.0,0.0,0.0,0.0,0.0,0.0,0.0,0.0,0.0,0.0,0.0,0.0,0.0,0.0,0.0,0.0,0.0,0.0,0.0,0.0,0.0,1.3151,1.4426,1.541,1.5769,1.5799,1.5712,1.5463,1.4906,1.453,1.4437,1.3591,0.0,0.0,0.0,0.0,0.0,0.0,0.0,0.0,0.0,0.0,0.0,0.0,0.0,0.0,0.0,0.0,0.0,0.0,0.0,0.0,0.0,0.0,0.0,0.0,0.0,0.0,0.0,0.0,0.0,0.0,0.0,0.0,0.0,0.0,0.0,0.0,0.0,0.0,0.0,0.0,0.0,0.0,0.0,0.0,0.0,0.0,0.0,0.0,0.0,0.0,0.0,0.0,0.0,0.6819,0.8731,1.1649,1.1842,1.2443,1.3073,0.8387,0.6378,0.6405,0.5896,0.0,0.0,0.0,0.0,0.0,0.0,0.0,0.0,0.0,0.0,0.0,0.0,0.0,0.0,0.0,0.0,0.0,0.0,0.0,0.0,0.0,0.0,0.0,0.0,1.8241,1.8265,1.6,0.0,0.0,0.0,0.0,0.0,0.0,0.0,0.0,0.0,0.0,0.0,1.3637,1.4921,1.5844,1.5949,1.5964,1.592,1.5861,1.5489,1.5153,1.4867,1.4383,1.4049,0.0,0.0,0.0,0.0,0.0,0.0,0.0,0.0,0.0,0.0,0.0,0.0,0.0,0.0,0.0,0.0,0.0,0.0,0.0,0.0,0.0,0.0,0.0,0.0,0.0,0.0,0.0,0.0,0.0,0.0,0.0,0.0,-0.6268,-0.6316,0.0,0.0,0.0,0.0,0.0,0.0,0.0,0.0,0.0,0.0,0.0,0.0,0.0,0.5298,0.5623,0.8102,0.967,1.0313,1.1331,1.2242,1.3061,1.3999,1.4228,1.3821,1.2631,0.0,1.1137,0.8114,0.0,0.0,0.0,0.0,0.0,0.0,0.0,0.0,0.0,0.0,0.0,0.0,0.0,0.0,0.0,0.0,0.0,0.0,0.0,0.0,0.0,0.0,1.8166,1.9122,1.9477,1.9355,0.0,1.7175,1.6083,1.5996,1.4798,0.0,0.0,0.0,0.0,0.0,0.0,0.0,1.3693,1.4921,1.6009,1.6532,1.6577,1.6439,1.6098,1.6003,1.5713,1.5093,1.4472,1.4267,1.4649,1.4019,0.0,0.0,0.0,0.0,0.0,0.0,0.0,0.0,0.0,0.0,0.0,0.0,0.0,0.0,0.0,0.0,0.0,0.0,0.0,0.0,0.0,0.0,0.0,0.0,0.0,0.0,0.0,0.0,0.0,-0.7199,-0.603,-0.4652,-0.6109,-0.6496,0.0,0.0,0.0,0.0,0.0,0.0,0.0,0.0,0.0,0.5036,0.7768,0.9561,1.0299,1.1783,1.2768,1.3234,1.3717,1.4199,1.4651,1.4776,1.4681,1.4354,1.3795,1.3193,1.2444,0.969,0.8943,0.9201,0.0,0.0,0.0,0.0,0.5897,0.7104,0.8826,1.0097,1.1035,1.1529,0.0,0.0,0.0,0.0,0.0,0.0,0.0,0.0,0.0,0.0,1.9043,1.9207,1.9244,1.9114,1.8574,1.7862,1.7202,0.0,1.6166,1.5219,1.3821,0.0,0.0,0.0,0.0,1.3925,1.4216,1.5511,1.6525,1.6772,1.709,1.7186,1.701,1.6994,1.6876,1.6581,1.5918,1.5654,1.586,1.4902,1.4429,0.0,0.0,0.0,0.0,0.0,0.0,0.0,0.0,0.0,0.0,0.0,0.0,0.0,0.0,0.0,0.0,0.0,0.0,0.0,0.0,0.0,0.0,0.0,0.0,0.0,0.0,0.0,0.0,-0.6813,-0.5163,-0.3394,-0.448,-0.4517,0.0,0.0,0.0,0.0,0.0,0.0,0.3783,0.5944,0.7773,0.9243,1.1314,1.2791,1.3629,1.4079,1.4513,1.4896,1.5035,1.5232,1.5467,1.5311,1.496,1.4445,1.4167,1.36,1.2749,1.0957,1.0187,0.9948,0.8084,0.7295,0.7319,0.8125,0.9026,1.0101,1.1918,1.3091,1.376,1.3748,1.3819,1.3795,1.3205,0.0,0.0,0.0,0.0,1.6784,1.7665,1.8496,1.9024,1.8746,1.8688,1.8554,1.8007,1.7907,1.779,0.0,1.721,1.6564,1.4857,0.0,0.0,0.0,0.0,1.4496,1.5043,1.616,1.7027,1.7323,1.7722,1.7953,1.7953,1.7953,1.7893,1.7697,1.7234,1.6965,1.6965,1.6039,1.5545,1.5545,0.0,0.0,0.0,0.0,0.0,0.0,0.0,0.0,0.0,0.0,0.0,0.0,0.0,0.0,0.0,0.0,0.0,0.0,0.0,0.0,0.0,0.0,0.0,0.0,0.0,0.0,0.0,0.0,0.0,-0.3598,-0.1867,0.0,0.0,0.0,0.0,0.2275,0.3444,0.513,0.7594,0.9403,1.0789,1.1705,1.3193,1.425,1.4808,1.4833,1.4859,1.4916,1.5424,1.5369,1.4895,1.5936,1.5465,1.3886,1.4422,1.4001,1.2847,1.2033,1.1535,1.1248,1.0483,0.9997,0.9866,1.1051,1.1763,1.2378,1.4203,1.4791,1.4907,1.5966,1.5969,1.5565,1.5539,1.5552,0.0,0.0,1.607,1.6629,1.7175,1.7394,1.7544,1.8027,1.8145,1.7987,1.7463,1.7353,1.7483,0.0,1.7537,1.694,1.6452,0.0,1.5263,1.4847,1.515,1.5615,1.6148,1.6617,1.7337,1.8497,1.864,1.8657,1.8657,1.8657,1.8371,1.7743,1.7669,1.7637,1.7637,1.7594,1.7549,1.7549,1.6338,0.0,0.0,0.0,0.0,0.0,0.0,0.0,0.0,0.0,0.0,0.0,0.0,0.0,0.0,0.0,0.0,0.0,0.0,0.0,0.0,0.0,0.0,0.0,0.0,0.0,0.0,0.0,0.0,-0.1015,-0.0763,0.0,0.2856,0.299,0.3886,0.6204,0.7675,0.9006,1.0197,1.1163,1.1961,1.2594,1.3535,1.4281,1.4845,1.5211,1.558,1.5932,1.6132,1.6093,1.5902,1.5901,1.5565,1.4926,1.4365,1.3873,1.3433,1.2769,1.2177,1.168,1.1879,1.1882,1.1954,1.3605,1.4305,1.4563,1.5608,1.5932,1.5948,1.6373,1.6362,1.6199,1.6199,1.6199,1.6199,1.6199,1.6599,1.7055,1.725,1.7565,1.7787,1.7626,1.7585,1.7442,1.6888,1.6795,1.6837,1.7034,1.6866,1.6558,1.6076,1.5798,1.5464,1.4973,1.5323,1.5834,1.6367,1.7165,1.7955,1.875,1.9138,1.9348,1.9348,1.9348,1.9226,1.9001,1.8565,1.8326,1.8326,1.7938,1.7713,1.7713,1.7547,1.7089,0.0,0.0,0.0,0.0,0.0,0.0,0.0,0.0,0.0,0.0,0.0,0.0,0.0,0.0,0.0,0.0,0.0,0.0,0.0,0.0,0.0,0.0,0.0,0.0,0.0,0.0,-0.0519,0.0635,0.1203,0.2553,0.5233,0.5923,0.6958,0.8829,1.0114,1.1006,1.1514,1.2185,1.2829,1.336,1.392,1.4608,1.5368,1.558,1.5943,1.65,1.65,1.6402,1.6194,1.5986,1.5688,1.5253,1.4664,1.4179,1.3768,1.3586,1.3088,1.2502,1.273,1.2827,1.302,1.4458,1.4994,1.5118,1.592,1.6324,1.65,1.65,1.65,1.65,1.65,1.65,1.65,1.65,1.6752,1.7034,1.7034,1.7291,1.7463,1.7118,1.7034,1.693,1.6573,1.65,1.65,1.65,1.65,1.6387,1.6032,1.5969,1.5856,1.548,1.5894,1.6436,1.6969,1.7818,1.8574,1.9114,1.9479,1.9708,1.9708,1.9708,1.9708,1.9708,1.9271,1.9031,1.9031,1.875,1.8575,1.8575,1.8687,1.825,1.7268,0.0,0.0,0.0,0.0,0.0,0.0,0.0,0.0,0.0,0.0,0.0,0.0,0.0,0.0,0.0,0.0,0.0,0.0,0.0,0.0,0.0,0.0,0.0,-0.2043,0.0508,0.2195,0.1186,0.4101,0.6204,0.6208,0.7623,0.8998,1.0071,1.0602,1.1084,1.1602,1.2556,1.3387,1.4003,1.4463,1.5242,1.6402,1.5886,1.5908,1.65,1.6466,1.6173,1.5654,1.6216,1.5832,1.4789,1.5343,1.4926,1.3909,1.4468,1.4352,1.3768,1.32,1.2968,1.3065,1.3661,1.3886,1.405,1.5219,1.6008,1.65,1.65,1.65,1.65,1.65,1.65,1.65,1.65,1.65,1.6479,1.65,1.65,1.6479,1.65,1.65,1.65,1.65,1.65,1.65,1.65,1.65,1.65,1.65,1.65,1.65,1.65,1.6951,0.0,1.8027,1.8574,1.9114,1.9639,1.9708,1.9708,1.9708,1.9708,1.9708,1.9708,1.9708,1.9708,1.9708,2.0072,2.0297,2.0297,1.9719,1.9088,1.8429,0.0,0.0,0.0,0.0,0.0,0.0,0.0,0.0,0.0,0.0,0.0,0.0,0.0,0.0,0.0,0.0,0.0,0.0,0.0,0.0,0.0,0.2192,0.303,0.1746,0.3195,0.4471,0.4722,0.5604,0.6796,0.8268,0.9075,1.0091,1.1521,1.2056,1.2401,1.2543,1.2794,1.2799,1.244,1.3918,1.463,1.4471,1.5654,1.6337,1.6488,1.6051,1.5986,1.6238,1.5974,1.592,1.5998,1.5732,1.541,1.5084,1.4812,1.4606,1.4491,1.4755,1.4869,1.4937,1.5533,1.5766,1.581,1.6151,1.6358,1.65,1.65,1.65,1.65,1.65,1.65,1.65,1.65,1.6194,1.5964,1.638,1.6173,1.5952,1.6402,1.65,1.65,1.65,1.65,1.65,1.65,1.65,1.65,1.65,1.65,1.65,1.65,1.6951,0.0,1.8027,1.8574,1.9114,1.9639,1.9708,1.9708,1.9708,1.9708,1.9708,1.9708,1.9708,1.9708,1.9708,1.9818,2.0,2.0297,1.994,1.956,0.0,0.0,0.0,0.0,0.0,0.0,0.0,0.0,0.0,0.0,0.0,0.0,0.0,0.0,0.0,0.0,0.0,0.0,0.0,0.0,0.0,0.0,0.3938,0.4853,0.476,0.5415,0.5976,0.6182,0.6626,0.7539,0.9149,0.9889,1.0822,1.2095,1.2627,1.2905,1.2905,1.2905,1.2827,1.2648,1.3724,1.4377,1.4494,1.5576,1.6238,1.65,1.6139,1.6173,1.65,1.6139,1.6173,1.6466,1.6129,1.5842,1.5588,1.5488,1.531,0.0,0.0,0.0,0.0,0.0,1.5898,1.6117,1.6117,1.6281,1.65,1.65,1.65,1.65,1.65,1.65,1.65,1.65,1.6238,1.6051,1.6402,1.6238,1.6073,1.6423,1.65,1.65,1.65,1.65,1.65,1.65,1.65,0.0,1.65,1.65,1.6573,1.6795,1.7291,1.7827,1.838,1.8893,1.935,1.9672,1.9708,1.9708,1.9708,1.9708,0.0,0.0,0.0,1.9782,1.9929,1.9947,0.0,0.0,0.0,0.0,0.0,0.0,0.0,0.0,1.9792,1.9539,0.0,0.0,0.0,0.0,0.0,0.0,0.0,0.0,0.0,0.0,0.0,0.0,0.0,0.0,0.0,0.0,0.4894,0.587,0.696,0.7042,0.6852,0.6435,0.728,0.8307,0.9358,1.0277,1.1211,1.2196,1.2656,1.2905,1.2905,0.0,0.0,0.0,0.0,1.44,1.5487,1.5632,1.5974,1.65,1.6423,1.6423,1.65,1.6358,1.638,1.65,1.6423,1.6139,1.5754,1.6216,1.6073,1.5543,1.5085,1.4903,1.4903,1.4903,1.5242,1.5698,1.5698,0.0,0.0,1.65,1.65,1.65,1.65,1.65,1.65,1.65,1.6445,1.6402,1.6466,1.6445,1.6423,1.6466,1.65,1.65,1.65,1.65,1.65,1.65,1.65,1.65,1.65,1.65,1.6659,1.7126,1.7727,1.8283,1.8746,1.9332,1.9708,1.9708,0.0,0.0,1.9708,1.9708,1.9708,1.9708,1.9708,1.9856,2.0212,2.0229,2.0416,2.0845,2.0894,2.0926,2.0926,2.099,2.1022,2.099,1.9747,1.9478,0.0,0.0,0.0,0.0,0.0,0.0,0.0,0.0,0.0,0.0,0.0,0.0,0.0,0.0,0.0,0.4943,0.5967,0.6912,0.7627,0.7301,0.7147,0.7538,0.7767,0.8582,1.0339,1.0681,1.1355,1.2671,1.2856,1.2905,1.2905,1.2905,1.2924,1.3,1.3982,1.4619,1.4801,1.5818,1.638,1.6488,0.0,0.0,1.6466,1.55,1.5589,1.6466,1.5986,1.5974,1.6293,1.593,1.5698,1.5632,1.6008,1.6151,1.6151,1.6151,1.6216,1.6337,1.6337,1.6402,1.65,1.65,1.65,1.65,1.65,1.65,0.0,1.65,1.6139,1.5886,1.638,1.6139,1.5908,1.638,1.65,1.65,1.65,1.65,1.65,1.65,1.65,1.65,1.65,1.65,1.6531,1.6637,1.7483,1.8145,1.8243,1.9114,1.9708,1.9708,1.9708,1.9708,1.9708,1.9708,1.9708,1.9708,1.9708,1.9729,1.9803,1.9818,1.9856,1.9945,2.0278,2.0433,2.0433,2.0994,2.1241,2.1243,2.1335,2.1253,0.0,0.0,0.0,0.0,0.0,0.0,0.0,0.0,0.0,0.0,0.0,0.2551,0.3814,0.0,0.5378,0.604,0.64,0.6894,0.7767,0.7815,0.7894,0.8258,0.8466,0.9184,1.0663,1.1211,1.1881,1.2832,1.2905,1.2905,1.2905,1.32,1.3338,1.3297,1.4202,1.4835,1.5105,1.573,1.6194,1.65,1.6182,1.6216,1.6466,1.5888,1.5932,1.6466,1.6194,1.6216,1.6479,1.6173,1.6051,1.6073,1.638,1.65,1.65,1.65,1.65,1.65,1.65,1.65,1.65,1.65,1.65,1.65,1.65,1.65,1.65,1.65,1.6281,1.6117,1.6423,1.6281,1.6129,1.6423,1.65,1.65,1.65,1.65,1.65,1.65,1.65,1.65,1.65,1.65,1.6595,1.6858,1.7585,1.8204,1.8477,1.9207,1.9708,1.9708,1.9708,1.9708,1.9708,1.9708,1.9708,1.9708,1.9708,1.9708,1.9708,2.0019,2.0198,2.0198,2.0721,2.1002,2.1002,2.1337,2.1504,2.1504,2.2086,2.2052,0.0,0.0,0.0,0.0,0.0,0.0,0.0,0.0,0.1184,0.2257,0.3594,0.4908,0.5929,0.6023,0.6178,0.6876,0.6647,0.673,0.7827,0.817,0.8491,0.9019,0.9372,0.9987,1.0988,1.1761,1.2389,1.2866,1.2905,1.2905,1.2905,1.3348,1.3684,1.3792,1.426,1.4812,1.541,1.5432,1.5732,1.6337,1.6337,1.638,1.65,1.638,1.6402,1.65,1.65,1.6423,1.6324,1.6445,1.6423,1.6337,1.6445,1.65,1.65,1.65,1.65,1.65,1.65,1.65,1.6513,1.6647,1.6663,1.6688,1.6789,1.6826,1.6801,1.6688,1.6663,1.666,1.6525,1.65,1.65,1.65,1.65,1.65,1.65,1.65,1.65,1.65,1.65,1.65,1.65,1.65,1.6659,1.7076,1.7686,1.8263,1.8688,1.9299,1.9708,1.9708,1.9708,1.9708,1.9708,1.9708,1.9708,1.9708,1.9708,1.9768,1.9902,2.0423,2.0763,2.0882,2.1425,2.1695,2.1695,2.1814,2.1889,2.1904,2.2583,2.2523,-0.5673,-0.4533,-0.3241,-0.3313,-0.2026,-0.0666,0.0,0.0,0.2908,0.3927,0.5111,0.6154,0.6773,0.6869,0.6876,0.6972,0.6958,0.7221,0.8128,0.7893,0.8298,1.0171,1.0516,1.1006,1.1949,1.2151,1.2389,1.2866,1.2905,1.2905,1.2905,1.2968,1.3238,1.3768,1.3873,1.419,1.4789,1.4789,1.5096,1.5698,1.5698,1.5986,1.6466,1.5964,1.5986,1.65,1.65,1.6194,1.5754,1.6281,1.6194,1.5742,1.6281,1.65,1.65,1.65,1.65,1.65,1.65,1.65,1.6588,1.7134,1.731,1.7398,1.7877,1.8016,1.7915,1.7426,1.731,1.7184,1.6647,1.65,1.65,1.65,1.65,1.65,1.65,1.65,1.65,1.65,1.65,1.65,1.65,1.65,1.6522,1.6573,1.7442,1.8125,1.8185,1.9062,1.9708,1.9708,1.9708,1.9708,1.9708,1.9708,1.9708,1.9708,1.9708,1.9959,2.0554,2.0658,2.0991,2.1575,2.1665,2.1695,2.1695,2.2298,2.2583,2.2598,2.3206,2.3182,-0.2975,0.0,0.0,0.0,-0.0418,0.0211,0.1696,0.2946,0.4101,0.5219,0.6251,0.6881,0.6699,0.6879,0.7007,0.0,0.7306,0.7984,0.8979,0.9151,0.9773,1.1338,1.1107,1.1176,1.2111,1.2044,1.2238,1.2837,1.2905,1.2905,1.2905,1.3238,1.3552,1.3802,1.3792,1.4097,1.4698,1.4352,1.4491,1.5073,1.5432,1.572,1.5986,1.6073,1.6259,1.65,1.65,1.6358,1.6139,1.6402,1.6358,1.6139,1.6402,1.65,1.65,1.65,1.65,1.65,1.65,1.6735,1.7061,1.7322,1.7624,1.7903,1.8141,1.8204,1.8154,1.7928,1.7865,1.7739,1.7174,1.7024,1.6936,1.6575,1.65,1.65,1.65,1.65,1.65,1.65,1.65,1.65,1.65,1.65,1.65,1.65,1.7146,1.7626,1.7626,1.8302,1.8893,1.9207,1.9512,1.9708,1.9708,1.9708,1.9708,1.9708,2.0064,2.0423,2.0688,2.1455,2.1994,2.2283,2.2622,2.2802,2.2802,2.3086,2.3415,2.3819,2.4051,2.4268,-0.0716,0.0,0.0,0.0846,0.0891,0.122,0.3077,0.4087,0.4957,0.6087,0.6941,0.7354,0.6901,0.7084,0.726,0.7128,0.7646,0.8358,0.9229,0.9628,1.0278,1.1408,1.0764,1.0722,1.1978,1.1905,1.2104,1.2847,1.2905,1.2905,1.2905,1.331,1.3552,1.3552,1.3552,1.3755,1.4201,1.3944,1.4097,1.4698,1.532,1.5698,1.5864,1.6303,1.65,1.65,1.65,1.65,1.65,1.65,1.65,1.65,1.65,1.65,1.65,1.65,1.65,1.6525,1.6697,1.7024,1.7461,1.7762,1.8103,1.8455,1.8606,1.8643,1.8618,1.8468,1.8406,1.8304,1.7752,1.7524,1.7297,1.6861,1.6613,1.65,1.65,1.65,1.65,1.65,1.65,1.65,1.65,1.65,1.65,1.65,1.6837,1.7126,1.7271,1.7907,1.8477,1.8855,1.9387,1.9708,1.9708,1.9872,1.9974,1.9974,2.0602,2.1066,2.1246,2.2194,2.2778,2.2942,2.337,2.3595,2.3595,2.3789,2.4126,2.4605,2.4784,2.5232,0.0,0.0,0.1032,0.092,0.1774,0.278,0.3369,0.4422,0.5521,0.6406,0.7074,0.7578,0.7809,0.7875,0.7882,0.7858,0.7882,0.8029,0.8391,0.8445,0.8818,0.9761,0.9283,0.9633,0.0,1.1805,1.2104,1.2847,1.2905,1.2905,1.2905,1.2929,1.2929,1.2929,1.2929,1.2954,1.2954,1.3529,1.4097,1.4698,1.532,1.5908,1.6466,1.65,1.65,1.65,1.65,1.65,1.65,1.65,1.65,1.65,1.65,1.65,1.65,1.65,1.65,1.6575,1.7162,1.7385,1.7574,1.8607,1.8958,1.907,1.9597,1.9748,1.9648,1.9121,1.8983,1.8857,1.8317,1.779,1.7398,1.7385,1.6923,1.65,1.65,1.65,1.65,1.65,1.65,1.65,1.65,1.65,1.65,1.65,1.6522,1.671,1.7229,1.8224,1.8874,1.8893,1.9387,1.9708,1.9708,2.0303,2.0658,2.0658,2.1306,2.1949,2.2613,2.2673,2.2987,2.3565,2.3595,2.3595,2.3595,2.4246,2.459,2.4619,2.5262,2.5929,0.0,0.0,0.2336,0.3043,0.3234,0.3482,0.4465,0.5324,0.6032,0.6507,0.7216,0.7721,0.7542,0.8043,0.8332,0.7857,0.856,0.9354,0.9905,0.9996,1.0472,1.1708,1.083,0.0,0.0,0.0,0.0,1.2808,1.2905,1.2905,1.2905,1.2905,1.2905,1.2905,1.2905,1.2905,1.2905,1.3505,1.3909,1.412,1.5107,1.5908,1.65,1.65,1.65,1.65,1.65,1.65,1.65,1.65,1.65,1.65,1.65,1.65,1.65,1.65,1.676,1.7124,1.7335,1.7865,1.8506,1.8882,1.9233,1.9547,1.9748,1.9798,1.9761,1.9585,1.9547,1.9422,1.887,1.8594,1.8292,1.7574,1.7237,1.6986,1.6588,1.65,1.65,1.65,1.65,1.65,1.65,1.65,1.65,1.65,1.65,1.6701,1.7229,1.7927,1.8516,1.8855,1.9767,2.0363,2.0363,2.0976,2.1365,2.1365,2.1999,2.2463,2.2688,2.3092,2.3385,2.3595,2.3595,2.3819,2.4261,2.4485,2.5053,2.5929,2.6153,2.6617,0.0,0.3314,0.3529,0.4496,0.4426,0.44,0.5389,0.6005,0.6478,0.6976,0.7616,0.8029,0.7871,0.8358,0.8646,0.8182,0.8863,0.9692,1.0338,1.044,1.0872,1.1999,1.135,1.125,0.0,0.0,0.0,1.2808,1.2905,1.2905,1.2905,1.2905,1.2905,1.2905,1.2905,1.2992,1.3214,1.3826,1.4352,1.4778,1.5543,1.6117,1.65,1.65,1.65,1.65,1.65,1.65,1.65,1.65,1.6635,1.6823,1.6823,1.6948,1.7124,1.7124,1.7476,1.794,1.7739,1.8267,1.9033,1.9221,1.9522,1.9798,1.9798,1.9798,1.9798,1.9798,1.9798,1.9723,1.9397,1.9146,1.882,1.8141,1.7815,1.7576,1.7177,1.7124,1.7124,1.7124,1.7124,1.7124,1.7124,1.7124,1.7124,1.7124,1.7124,1.7169,1.7321,1.7796,1.8419,1.9171,2.0117,2.0803,2.1047,2.1665,2.2074,2.2074,2.2673,2.3032,2.3032,2.3385,2.3714,2.3947,2.3969,2.4276,2.4963,2.5187,2.5764,2.6626,2.6866,2.7195,0.4237,0.443,0.4587,0.5195,0.5351,0.5502,0.6126,0.6494,0.6941,0.7764,0.8243,0.8565,0.0,0.0,0.8883,0.8857,0.8883,0.9133,0.9814,0.9891,1.0141,0.0,0.0,0.0,0.0,0.0,0.0,1.2856,0.0,1.2905,1.2905,1.2905,1.2905,1.2905,1.2905,1.3176,1.3755,1.4376,1.5287,1.6445,1.65,1.65,1.65,1.65,1.65,1.65,1.65,1.65,1.65,1.6525,1.6886,1.741,1.7436,1.7739,1.8204,1.8204,1.8531,1.8933,1.843,1.8581,1.9121,1.9635,1.9798,1.9798,1.9798,1.9798,1.9798,1.9798,1.9798,1.9798,1.9798,1.9409,1.9033,1.9008,1.8607,1.8242,1.8216,1.8204,1.8204,1.8204,1.8204,1.8204,1.8204,1.8204,1.8204,1.8204,1.8204,1.8039,1.7534,1.7937,1.8679,1.9824,2.0437,2.1023,2.17,2.2358,2.2748,2.2748,2.3266,2.361,2.3655,2.3655,2.3984,2.4649,2.4649,2.4978,2.5659,2.6288,2.6626,2.6686,2.7345,2.7645,0.4352,0.4739,0.5216,0.583,0.5964,0.6198,0.705,0.7653,0.8078,0.829,0.9173,0.9673,0.0,0.0,0.0,0.9614,0.9969,0.0,1.1191,1.1291,0.0,1.228,0.0,1.2437,1.2608,1.2608,0.0,0.0,1.2905,1.2905,1.2905,1.2905,1.2905,1.2905,1.2905,1.2968,1.3128,1.4177,1.5085,1.5842,1.6281,1.65,1.65,1.65,1.65,1.65,1.65,1.65,1.6525,1.6986,1.725,1.7448,1.784,1.8078,1.8204,1.8204,1.8531,1.8983,1.8845,1.9133,1.9623,1.9761,1.9798,1.9798,1.9798,1.9798,1.9798,1.9798,1.9798,1.9798,1.9798,1.971,1.951,1.9096,1.8895,1.8682,1.8292,1.8204,1.8204,1.8204,1.8204,1.8204,1.8204,1.8204,1.8204,1.8204,1.8204,1.8282,1.8555,1.8711,1.923,2.0359,2.1083,2.172,2.2387,2.2996,2.337,2.337,2.3505,2.3819,2.4321,2.435,2.4649,2.5322,2.5337,2.5689,2.6348,2.6512,2.6866,2.736,2.8023,2.8338,0.5108,0.5437,0.5825,0.6407,0.6671,0.6906,0.7424,0.8264,0.8903,0.8882,0.9788,0.0,0.0,0.0,0.0,0.0,0.0,0.0,1.1715,1.1789,1.208,0.0,1.2905,0.0,1.2905,1.2905,1.2905,0.0,1.2905,1.2905,1.2905,1.2905,1.2905,1.2905,1.3152,1.3563,1.4084,1.4766,1.5399,1.6008,1.6073,1.6238,1.65,1.65,1.65,1.65,0.0,1.6638,1.6923,1.7272,1.7664,1.8141,1.8418,1.8682,1.8907,1.8907,1.9095,1.9334,1.9334,1.956,1.9798,1.9798,1.9798,1.9798,1.9798,1.9798,1.9798,1.9798,1.9798,1.9798,1.9798,1.9798,1.9723,1.9409,1.9334,1.9284,1.8982,1.8907,1.8907,1.8907,1.8907,1.8907,1.8907,1.8907,1.8907,1.8907,1.8907,1.9017,1.9307,1.9397,1.9989,2.1434,2.1902,2.2396,2.3029,2.3684,2.4044,2.4044,2.4328,2.4657,2.5023,2.5038,2.5337,2.6033,2.6033,2.6363,2.7046,2.7046,2.724,2.7615,2.8278,2.8607,0.6039,0.6243,0.6419,0.6947,0.7296,0.7556,0.772,0.8681,0.9532,0.9577,0.0,1.1023,1.0838,1.0939,1.1049,1.0939,0.0,1.1275,1.1873,1.1947,1.2187,1.2822,1.2905,1.2905,1.2905,1.2905,1.2905,1.2905,1.2905,1.2905,1.2905,1.2905,1.2954,1.3017,1.3529,1.4342,1.5477,1.5565,1.5864,1.638,1.593,1.5986,1.65,1.65,1.65,1.65,1.65,1.6848,1.741,1.7486,1.8103,1.9008,1.9083,1.9384,1.9798,1.9798,1.9798,1.9798,1.9798,1.9798,1.9798,1.9798,1.9798,1.9798,1.9798,1.9798,1.9798,1.9798,1.9798,1.9798,1.9798,1.9798,1.9798,1.9798,1.9798,1.9798,1.9798,1.9798,1.9798,1.9798,1.9798,1.9798,1.9798,1.9798,1.9798,1.9798,1.9798,1.9824,1.9927,2.0018,2.0728,2.2395,2.2721,2.3073,2.3686,2.4335,2.4739,2.4739,2.5277,2.5644,2.5734,2.5734,2.6048,2.6707,2.6722,2.7031,2.76,2.76,2.7645,2.775,2.8412,2.8771,0.6104,0.652,0.6953,0.7328,0.745,0.777,0.8822,0.9674,0.0,0.0,0.0,1.2181,1.1023,1.1742,0.0,1.1724,0.0,0.0,0.0,0.0,1.2774,0.0,0.0,0.0,0.0,0.0,0.0,0.0,1.2905,1.2905,1.2905,1.2905,1.3128,1.3637,1.3755,1.4143,1.4858,1.5343,1.5654,1.5764,1.6173,1.6402,1.65,1.65,1.65,1.65,1.65,0.0,1.7436,1.7877,1.8418,1.9045,1.9497,1.9723,1.9798,1.9798,1.9798,1.9798,1.9798,1.9798,1.9798,1.9798,1.9798,1.9798,1.9798,1.9798,1.9798,1.9798,1.9798,1.9798,1.9798,1.9798,1.9798,1.9798,1.9798,1.9798,1.9798,1.9798,1.9798,1.9798,1.9798,1.9798,1.9798,1.9798,1.9798,1.9798,1.9798,2.0003,2.0547,2.0642,2.0957,2.1791,2.2885,2.3766,2.438,2.5038,2.5435,2.5435,2.5555,2.5854,2.6393,2.6422,2.6746,2.7405,2.742,2.748,2.76,2.76,2.7884,2.8442,2.9101,2.9684,0.7327,0.7482,0.7546,0.7836,0.8012,0.8338,0.9199,0.0,0.0,0.0,0.0,1.27,1.2024,0.0,0.0,0.0,0.0,0.0,0.0,0.0,0.0,0.0,0.0,0.0,0.0,0.0,0.0,0.0,1.2905,1.2905,1.2905,1.32,1.3647,1.426,1.4572,1.5028,1.5634,1.5622,1.5764,1.6073,1.6051,1.6194,1.65,1.65,1.6663,1.6974,1.6974,1.7451,1.8254,1.8506,1.892,1.9434,1.971,1.9798,1.9798,1.9798,1.9798,1.9798,1.9798,1.9798,1.9798,1.9798,1.9798,1.9798,1.9798,1.9798,1.9798,1.9798,1.9798,1.9798,1.9798,1.9798,1.9874,2.0175,2.0277,2.0277,2.0277,2.0012,1.9886,2.0214,2.0012,1.9899,2.02,1.9999,1.9798,1.9798,1.9798,1.9927,2.0232,2.0868,2.1657,2.2644,2.3598,2.4427,2.506,2.5734,2.6123,2.6123,2.6437,2.6806,2.7121,2.7121,2.727,2.7585,2.76,2.76,2.76,2.7959,2.8278,2.8622,2.9609,3.0223,0.8496,0.8351,0.8078,0.8511,0.8723,0.9005,0.9571,1.0366,0.0,0.0,1.2378,1.2905,1.2905,0.0,0.0,0.0,0.0,0.0,0.0,0.0,0.0,0.0,0.0,0.0,0.0,0.0,0.0,0.0,1.2905,1.2905,1.2905,1.3348,1.3944,1.4686,1.5267,1.5945,1.6688,1.6345,1.6345,1.6688,1.6201,1.6162,1.65,1.6626,1.6948,1.741,1.7524,1.8116,1.9008,1.9008,1.9309,1.9798,1.9798,1.9798,1.9798,1.9798,1.9798,1.9798,1.9798,1.9798,1.9798,1.9798,1.9798,1.9798,1.9798,1.9886,1.9987,1.9987,2.0075,2.0137,2.0012,1.9987,2.01,2.0578,2.0691,2.0729,2.0842,2.0415,2.0189,2.0754,2.0503,2.0313,2.0792,2.049,2.0162,2.0162,2.0162,2.0215,2.0385,2.14,2.2612,2.3961,2.4528,2.5083,2.5764,2.6422,2.6747,2.6599,2.7225,2.7524,2.7382,2.7524,2.76,2.76,2.76,2.766,2.7824,2.8338,2.8742,2.9041,2.9863,3.0314,0.8728,0.8482,0.8474,0.9352,0.9455,0.9562,1.0464,0.0,0.0,1.1792,1.2387,1.2905,1.2905,1.2905,0.0,0.0,0.0,0.0,0.0,0.0,0.0,0.0,0.0,0.0,0.0,0.0,0.0,0.0,1.2905,1.2905,1.2905,1.2954,1.3501,1.4663,1.5229,1.6092,1.73,1.7756,1.7743,1.7322,1.7255,1.6979,1.6513,1.7061,1.736,1.7436,1.7903,1.8468,0.0,1.9008,1.9309,1.9798,1.9798,1.9798,1.9798,1.9798,1.9798,1.9798,1.9798,1.9798,1.9798,1.9798,1.9798,1.9798,1.9798,2.0175,2.0616,2.0616,2.0981,2.1217,2.0742,2.0616,2.0629,2.0679,2.0691,2.083,2.1333,2.1006,2.0779,2.1333,2.1368,2.1355,2.1405,2.1368,2.133,2.133,2.133,2.1593,2.2259,2.2971,2.3926,2.5272,2.5481,2.5779,2.6437,2.7121,2.7217,2.6556,2.7199,2.7306,2.6642,2.7255,2.76,2.76,2.76,2.7899,2.8502,2.8562,2.919,3.03,2.9696,2.9753,0.9596,0.9532,0.9533,1.0107,1.0068,1.014,1.118,0.0,1.145,1.2289,1.27,1.2905,1.2905,1.2905,1.2905,1.2905,1.2905,1.2905,0.0,0.0,0.0,0.0,0.0,0.0,0.0,0.0,0.0,1.342,1.3443,1.36,1.3954,1.3978,1.4354,1.5158,1.6127,1.7042,1.7877,1.7765,1.7624,1.741,1.7024,1.6735,1.6513,1.7112,1.741,1.7461,1.8317,1.8795,0.0,1.9334,1.961,1.9798,1.9798,1.9798,1.9798,1.9798,1.9798,1.9798,1.9798,1.9798,1.9798,1.9798,1.9798,1.9874,2.0239,2.0515,2.0767,2.1094,2.1345,2.1443,2.1245,2.1405,2.1568,2.127,2.1446,2.1719,2.1933,2.1556,2.1358,2.1882,2.1719,2.1594,2.1933,2.1707,2.1493,2.1493,2.1871,2.2268,2.2551,2.3561,2.4615,2.5564,2.5992,2.6467,2.7151,2.745,2.7458,2.7178,2.7433,2.7458,2.7163,2.7433,2.76,2.76,2.8004,2.8323,2.8607,2.937,2.975,2.9783,2.987,2.9768,1.069,1.0735,1.0785,1.1032,1.1044,1.1173,0.0,0.0,1.1692,1.27,1.2905,1.2954,1.3128,1.3017,1.2968,1.3128,1.3017,1.2905,1.2905,0.0,0.0,0.0,0.0,0.0,0.0,0.0,1.3152,1.3755,1.3792,1.405,1.4675,1.488,1.5223,1.5749,1.682,1.764,1.8204,1.7978,1.7702,1.7398,1.6974,1.6663,1.6513,1.7112,1.7498,1.7677,1.8594,1.9096,0.0,1.9648,1.9798,1.9798,1.9798,1.9798,1.9798,1.9798,1.9798,1.9798,1.9798,1.9798,1.9798,1.9798,1.9911,2.0189,2.0767,2.0943,2.1056,2.1581,2.1732,2.1732,2.1732,2.202,2.2209,2.1832,2.2033,2.2347,2.2493,2.2121,2.1895,2.2418,2.2234,2.2096,2.2456,2.2234,2.2056,2.2283,2.2776,2.3257,2.3702,2.462,2.5506,2.6188,2.6649,2.7091,2.7555,2.7408,2.7163,2.6967,2.7137,2.7163,2.6967,2.7382,2.76,2.76,2.8248,2.8697,2.8891,2.9748,2.9957,2.9577,2.9553,2.9066,1.1902,1.1966,1.2193,1.2266,1.2536,1.2783,0.0,1.2881,1.2881,1.2905,1.2905,1.3079,1.3684,1.331,1.3113,1.3684,1.3286,1.2905,1.2905,0.0,0.0,0.0,0.0,0.0,0.0,0.0,1.3152,1.3755,1.3792,0.0,1.4675,1.5276,1.5848,1.6372,1.6979,1.7581,1.8204,1.8719,1.8455,1.741,1.7398,1.7074,1.6513,1.7112,1.7677,1.8229,1.8757,1.9296,0.0,1.9798,1.9798,1.9798,1.9798,1.9798,1.9798,1.9798,1.9798,1.9798,1.9798,1.9798,1.9798,1.9798,2.0188,2.0779,2.1345,2.1481,2.1594,2.2146,2.2297,2.2297,2.2297,2.2309,2.2309,2.2297,2.2309,2.246,2.2982,2.2656,2.2443,2.2995,2.3095,2.3095,2.3095,2.3095,2.3339,2.415,2.4266,2.4796,2.6269,2.6455,2.6759,2.7509,2.7585,2.7585,2.76,2.693,2.6203,2.5481,2.6122,2.6176,2.5453,2.6837,2.76,2.76,2.8248,2.8921,2.9592,2.9405,2.9649,3.0254,2.8524,2.7284,1.2469,1.2903,1.339,1.2965,1.2827,1.2817,1.2886,1.2501,1.2295,1.2798,1.2905,1.2968,1.3152,1.3041,1.3113,1.3708,1.3286,0.0,0.0,0.0,0.0,0.0,0.0,0.0,0.0,0.0,1.3933,1.4949,1.5039,1.5298,1.5898,1.6107,1.6467,1.6991,1.7237,1.7988,1.9284,1.8367,1.8103,1.8469,1.7338,1.6911,1.7112,1.7322,1.7262,1.7102,1.8431,1.8882,1.8769,1.9497,1.9798,1.9798,1.9798,1.9798,1.9798,1.9798,1.9798,1.9798,1.9798,1.9798,1.9798,1.9798,2.0214,2.0792,2.1358,2.1757,2.2171,2.2694,2.2844,2.2757,2.241,2.2556,2.2744,2.2397,2.2569,2.2895,2.3058,2.297,2.2895,2.307,2.3108,2.3108,2.3108,2.3573,2.4002,2.4263,2.5147,2.5987,2.6457,2.693,2.7152,2.6878,2.6852,2.6852,2.6852,2.6642,2.6203,2.5453,2.6519,2.6876,2.619,2.7954,2.8753,2.8278,2.934,2.9998,3.0208,3.0061,2.9475,2.8492,2.7384,2.6951,0.0,1.3912,1.4198,1.3564,1.3296,1.314,1.2934,1.2535,1.2344,1.2798,1.2905,1.3041,1.3501,1.32,1.3248,1.4318,1.3779,1.3372,0.0,0.0,0.0,0.0,0.0,0.0,0.0,1.4169,1.4295,1.5521,1.561,1.5864,1.6466,1.65,1.6747,1.7336,1.7391,1.7888,1.8869,1.7913,1.7614,1.8042,1.7002,1.671,1.7061,1.731,1.73,1.7202,1.8456,1.892,0.0,1.9522,1.9798,1.9798,1.9798,1.9798,1.9798,1.9798,1.9798,1.9798,1.9798,1.9798,1.9836,2.0062,2.0679,2.1393,2.1945,2.2347,2.2656,2.3007,2.3108,2.302,2.2681,2.2844,2.302,2.2681,2.2857,2.3108,2.3108,2.3108,2.3108,2.3108,2.3108,2.3108,2.3108,2.3767,2.4408,2.4681,2.5728,2.659,2.6878,2.706,2.7008,2.6537,2.6443,2.6271,2.5995,2.5967,2.5854,2.5588,2.6706,2.7187,2.6776,2.8588,2.9412,2.8981,2.9983,3.0352,3.0069,2.9576,2.8697,2.754,2.7031,2.7102,0.0,1.4972,1.4782,1.4113,1.3934,1.3755,1.3104,1.3002,0.0,1.3017,1.3017,1.3358,1.4502,1.3766,1.3586,1.532,1.4663,1.3928,0.0,0.0,0.0,0.0,0.0,0.0,1.6062,1.486,1.4444,1.5588,1.5654,1.5908,1.6466,1.65,1.6773,1.7322,1.7348,1.7398,1.7524,1.741,1.7112,1.6676,1.655,1.6513,1.6575,1.7137,1.7662,0.0,1.8732,1.9259,0.0,1.9773,1.9798,1.9798,1.9798,1.9798,1.9798,1.9798,1.9798,1.9811,1.9849,1.9861,1.9962,2.0616,2.1509,2.2393,2.2945,2.3108,2.3108,2.3108,2.3108,2.3108,2.3108,2.3108,2.3108,2.3108,2.3108,2.3108,2.3108,2.3108,2.3108,2.3108,2.3108,2.3138,2.3198,2.3855,2.4595,2.5287,2.6041,2.6721,2.7357,2.6852,2.6418,2.6408,2.6218,2.5844,2.5208,2.5152,2.5366,2.588,2.6785,2.7278,2.7282,2.8865,2.9726,2.9666,3.0197,3.01,2.9272,2.8234,2.7548,2.7281,2.7281,2.7595,1.617,0.0,1.5837,1.4778,1.4858,1.4903,0.0,1.3954,0.0,0.0,0.0,1.4363,1.4663,1.4479,1.456,1.5454,1.5326,1.5124,0.0,0.0,0.0,0.0,1.6133,1.5883,1.6314,1.6021,1.5936,1.6275,1.6281,1.6358,1.65,1.65,1.655,1.6722,1.6701,1.7338,1.8607,1.734,1.7277,1.8406,1.7114,1.6748,1.7187,1.7348,1.7212,1.6964,1.8393,1.8832,1.8643,1.9459,1.9798,1.9798,1.9798,1.9798,1.9798,1.9798,1.9798,1.9861,2.0339,2.049,2.0654,2.1606,2.2096,2.2393,2.2945,2.3108,2.3108,2.3108,2.3108,2.3108,2.3108,2.3108,2.3108,2.3108,2.3108,2.3108,2.3108,2.3108,2.3108,2.3108,2.3108,2.3305,2.3914,2.4652,2.5203,2.537,2.6041,2.6363,2.5973,2.5783,2.5605,2.5443,2.5384,2.5384,2.5492,2.561,2.5805,2.6056,2.7271,2.8007,2.8097,3.0012,3.0821,3.0298,3.0323,2.9918,2.9077,2.8147,2.7548,2.7281,2.7281,2.7808,1.65,1.6303,1.5942,1.5287,1.5141,1.5028,1.4352,0.0,0.0,0.0,0.0,0.0,1.505,0.0,0.0,1.5864,1.5747,0.0,0.0,0.0,0.0,0.0,1.6631,1.6565,0.0,1.7123,1.694,1.7267,1.7265,1.7174,1.6936,1.6911,1.6798,1.65,1.65,1.6939,1.7842,1.6951,1.7089,1.8254,1.7064,1.6823,1.741,1.741,1.7212,1.6986,1.8393,1.8832,1.8619,1.9459,1.9798,1.9798,1.9798,1.9798,1.9798,1.9798,1.9798,1.9886,2.049,2.1018,2.1518,2.2121,2.2456,2.2719,2.3007,2.3108,2.3108,2.3108,2.3108,2.3108,2.3108,2.3108,2.3108,2.3108,2.3108,2.3108,2.3108,2.3108,2.3215,2.3573,2.3662,2.3857,2.4547,2.5285,2.5739,2.5652,2.6256,2.6582,2.617,2.5838,2.5579,2.5493,2.5382,2.5575,2.6148,2.6524,2.6754,2.6831,2.8295,2.919,2.9275,3.0718,3.1331,3.0957,3.0111,2.9473,2.9002,2.8,2.7582,2.767,2.7921,2.8499,1.65,1.6129,1.572,1.5632,1.5276,1.4949,0.0,0.0,0.0,0.0,0.0,0.0,0.0,0.0,0.0,0.0,0.0,0.0,0.0,0.0,0.0,1.7811,1.709,0.0,1.8846,1.813,1.7727,1.8157,1.8129,1.7877,1.7423,1.7322,1.7024,1.6513,1.65,1.65,1.65,1.65,1.681,1.7398,1.6886,1.6911,1.741,1.7463,1.7486,1.7461,0.0,0.0,1.8795,1.9409,1.9685,1.9698,1.9773,1.9798,1.9798,1.9798,1.9798,1.9899,2.0578,2.1506,2.2406,2.2406,2.2732,2.3108,2.3108,2.3108,2.3108,2.3108,2.3108,2.3108,2.3108,2.3108,2.3108,2.3108,2.3108,2.3108,2.3108,2.3108,2.3335,2.4147,2.4284,2.4465,2.5147,2.5767,2.6102,2.5933,2.6445,2.6794,2.6687,2.6122,2.5759,2.585,2.5709,2.5988,2.6933,2.7544,2.7953,2.8084,2.9473,3.0359,3.0494,3.1161,3.1438,3.1322,2.9797,2.898,2.8903,2.7838,2.7607,2.8247,2.8675,2.9239,1.65,1.6423,1.6238,1.572,1.5908,1.6086,0.0,0.0,0.0,0.0,0.0,0.0,0.0,0.0,0.0,0.0,0.0,0.0,0.0,0.0,1.8768,1.9388,0.0,1.9153,1.9021,1.8846,1.8584,1.8218,1.7765,1.7498,1.741,1.6923,1.6588,1.65,1.65,1.65,1.65,1.65,1.681,1.741,1.7322,1.7322,1.7423,1.7865,1.7827,1.7436,0.0,1.8066,1.7714,1.8707,1.9121,1.9171,1.9623,1.9798,1.9798,1.9798,1.9798,1.9949,2.1004,2.2083,2.2982,2.2982,2.3032,2.3108,2.3108,2.3108,2.3108,2.3108,2.3108,2.3108,2.3108,2.3108,2.3108,2.3108,2.3108,2.3108,2.3108,2.3108,2.3335,2.4147,2.415,2.4468,2.5803,2.5972,2.5924,2.5893,2.5999,2.5826,2.5231,2.5052,2.5133,2.5608,2.5602,2.6141,2.7466,2.8341,2.9129,2.9858,3.0133,3.0614,3.1278,3.1438,3.119,3.0494,2.9504,2.8852,2.8578,2.7719,2.7808,2.8762,2.885,2.9239,1.65,1.65,1.6423,1.6173,1.6281,0.0,0.0,0.0,0.0,0.0,0.0,0.0,0.0,0.0,0.0,0.0,0.0,0.0,1.8753,1.8798,1.892,0.0,0.0,1.9273,1.9421,1.9421,1.9346,1.9083,1.8581,1.8267,1.8267,1.7739,1.7426,1.7426,1.7137,1.6986,1.6986,1.6986,1.7124,1.741,1.7061,1.7237,1.7827,1.7777,1.779,1.784,0.0,1.8229,1.8304,1.8795,1.9171,1.9472,1.971,1.9798,1.9798,1.9798,2.0188,2.079,2.1305,2.2209,2.3108,2.3108,2.3108,2.3108,2.3108,2.3108,2.3108,2.3108,2.3108,2.3108,2.3108,2.3108,2.3108,2.3108,2.3108,2.3108,2.3108,2.3108,2.3424,2.4524,2.4649,2.4997,2.6249,2.6383,2.6295,2.6225,2.6211,2.6092,2.5766,2.5711,2.5799,2.6072,2.6097,2.6711,2.8285,2.878,2.9566,3.0866,3.097,3.1117,3.1467,3.1511,3.1117,3.0329,2.9442,2.8842,2.852,2.7959,2.8134,2.89,2.9252,2.9541,1.6701,1.6701,1.6701,0.0,0.0,0.0,0.0,0.0,0.0,0.0,0.0,0.0,0.0,0.0,0.0,0.0,0.0,1.8781,1.8414,1.87,1.8953,1.8953,1.8953,1.9176,1.9747,1.9798,1.9798,1.9798,1.9296,1.9008,1.9008,1.8356,1.8078,1.8204,1.7539,1.7272,1.741,1.7272,1.7187,1.7197,1.6999,1.7375,1.8191,1.7765,1.7877,1.8356,1.8129,1.8329,1.8807,1.8807,1.9121,1.9635,1.9748,1.9798,1.9823,1.9962,2.0627,2.1506,2.1631,2.2322,2.3108,2.3108,2.3108,2.3108,2.3108,2.3108,2.3108,2.3108,2.3108,2.3108,2.3108,2.3108,2.3108,2.3108,2.3108,2.3145,2.3283,2.3308,2.3702,2.5031,2.5254,2.5527,2.6521,2.6667,2.66,2.6526,2.6499,2.6499,2.6499,2.6499,2.6499,2.6499,2.6692,2.7484,2.916,2.9473,3.0133,3.1409,3.1511,3.1511,3.1511,3.1322,3.0837,3.0011,2.9253,2.8717,2.84,2.8323,2.8586,2.9101,2.9578,2.9792,1.7229,1.7229,1.7229,0.0,0.0,0.0,0.0,0.0,0.0,0.0,0.0,0.0,0.0,0.0,0.0,0.0,0.0,1.8931,1.9581,0.0,1.9721,1.9721,1.9721,1.9747,1.9798,1.9798,1.9798,1.9798,1.9296,1.9008,1.9008,1.8016,1.7677,1.8191,1.7127,1.6835,1.7398,1.6848,1.655,1.6575,1.7601,1.8129,1.8204,1.8166,1.8442,1.8895,1.789,1.7752,1.8267,1.8267,1.8556,1.9108,1.961,1.9798,1.9874,2.0427,2.1006,2.1556,2.2071,2.2606,2.3108,2.3108,2.3108,2.3108,2.3108,2.3108,2.3108,2.3108,2.3108,2.3108,2.3108,2.3108,2.3108,2.3108,2.3108,2.3246,2.3816,2.3941,2.4329,2.5594,2.5711,2.5815,2.6569,2.6604,2.6505,2.6487,2.6499,2.6499,2.6499,2.6499,2.6499,2.6499,2.7162,2.833,3.0042,3.0896,3.138,3.1511,3.1511,3.1511,3.1511,3.0777,2.9981,2.9097,2.8711,2.8391,2.8107,2.8599,2.9164,2.9729,2.9779,2.9792,1.7312,1.7312,0.0,0.0,0.0,0.0,0.0,0.0,0.0,0.0,0.0,0.0,0.0,0.0,0.0,0.0,1.8637,1.9307,1.915,1.9501,1.9798,1.9798,1.9798,1.9798,1.9798,1.9798,1.9798,1.9798,1.9296,1.9146,1.9497,1.8807,1.8481,1.8682,1.8281,1.7829,1.741,1.7501,1.719,1.65,1.6948,1.7526,1.8191,1.7852,1.8179,1.8958,1.8229,1.8204,1.8694,1.8694,1.9008,1.9522,1.9723,1.9798,1.9874,2.0478,2.1043,2.1568,2.2121,2.2644,2.3108,2.3108,2.3108,2.3108,2.3108,2.3108,2.3108,2.3108,2.3108,2.3108,2.3108,2.3108,2.3108,2.3108,2.3108,2.3258,2.3879,2.4004,2.4337,2.5473,2.5633,2.5799,2.6442,2.654,2.6499,2.6499,2.6499,2.6499,2.6499,2.6499,2.6679,2.7196,2.8492,2.9566,3.0238,3.1029,3.1511,3.1511,3.1511,3.1278,3.0777,3.0765,3.0129,2.8724,2.8942,2.8896,2.8612,2.8787,2.9227,2.9792,2.9792,2.9792,1.7312,1.7312,0.0,0.0,0.0,0.0,0.0,0.0,0.0,0.0,0.0,0.0,0.0,0.0,0.0,0.0,1.8608,1.9097,1.9032,1.9475,1.9798,1.9798,1.9798,1.9798,1.9798,1.9798,1.9798,1.9798,1.9447,1.9396,1.9786,1.9121,1.882,1.8995,1.8494,1.7953,1.741,1.7576,1.7265,1.65,1.65,1.7024,1.7928,1.7574,1.799,1.897,1.8418,1.8606,1.9233,1.907,1.9309,1.9798,1.9798,1.9798,1.9899,2.0679,2.1194,2.1594,2.2322,2.2794,2.3108,2.3108,2.3108,2.3108,2.3108,2.3108,2.3108,2.3108,2.3108,2.3108,2.3108,2.3108,2.3145,2.3333,2.3384,2.3572,2.4343,2.4506,2.477,2.5686,2.5875,2.6034,2.6424,2.6499,2.6499,2.6499,2.6499,2.6589,2.685,2.6871,2.7284,2.8395,2.9597,3.0389,3.0644,3.097,3.1219,3.1467,3.1441,3.1205,3.0688,3.0673,3.0114,2.8926,2.9136,2.9136,2.8888,2.9076,2.9402,2.9792,2.9792,2.9792,1.7312,0.0,0.0,0.0,0.0,0.0,0.0,0.0,0.0,0.0,0.0,0.0,0.0,0.0,0.0,1.8472,1.8085,1.8112,1.9579,1.9798,1.9798,1.9798,1.9798,1.9798,1.9798,1.9798,1.9798,1.9798,1.9798,1.9798,1.9798,1.8794,1.8455,1.897,1.7378,1.681,1.7385,1.681,1.65,1.65,1.65,1.6823,1.741,1.741,1.7978,1.8958,1.8455,1.8819,1.9761,1.9221,1.9309,1.9798,1.9798,1.9798,1.9949,2.1079,2.1493,2.1656,2.2732,2.3108,2.3108,2.3108,2.3108,2.3108,2.3108,2.3108,2.3108,2.3108,2.3108,2.3108,2.3108,2.3108,2.3258,2.3866,2.4004,2.4293,2.536,2.5598,2.5774,2.6386,2.6499,2.6499,2.6499,2.6499,2.6499,2.6499,2.6499,2.6816,2.7604,2.7736,2.8395,3.0103,3.0299,3.0614,3.1438,3.0777,3.0644,3.1453,3.1303,3.127,3.1482,3.0406,2.9816,2.9783,2.9197,2.89,2.89,2.9515,2.9792,2.9792,2.9792,2.9792,1.7415,0.0,0.0,0.0,0.0,0.0,0.0,0.0,0.0,0.0,0.0,0.0,0.0,0.0,0.0,1.718,1.7852,1.8528,1.8953,1.9475,1.9798,1.9798,1.9798,1.9798,1.9798,1.9798,1.9798,1.9798,1.9798,1.9648,1.9259,1.8933,1.8481,1.789,1.8118,1.7779,1.6785,1.7388,1.7277,1.65,1.65,1.6823,1.741,1.741,1.7765,1.8455,1.8657,1.8945,1.9246,1.9459,1.966,1.9798,1.9798,2.0049,2.0528,2.1257,2.1732,2.2171,2.2857,2.3108,2.3108,2.3108,2.3108,2.3108,2.3108,2.3108,2.3108,2.3108,2.3108,2.3108,2.3108,2.3409,2.3791,2.3954,2.4004,2.4293,2.536,2.5598,2.5774,2.6386,2.6499,2.6499,2.6499,2.6499,2.6679,2.7263,2.7351,2.7637,2.8492,2.916,2.9721,3.0238,3.0807,3.1248,3.1467,3.1278,3.1456,3.2168,3.2139,3.1565,3.0354,3.0785,3.0462,2.9189,2.9416,2.9528,2.9528,2.9704,2.9792,2.9792,2.9792,2.9792,1.7267,0.0,0.0,0.0,0.0,0.0,0.0,0.0,0.0,0.0,0.0,0.0,0.0,0.0,0.0,1.7131,1.7986,1.8723,1.8804,1.9403,1.9798,1.9798,1.9798,1.9798,1.9798,1.9798,1.9798,1.9798,1.9798,1.9572,1.9033,1.8795,1.8292,1.7436,1.7779,1.7528,1.65,1.7165,1.7165,1.65,1.65,1.6823,1.741,1.741,1.7689,1.8242,1.8983,1.9309,1.9334,1.9673,1.9798,1.9798,1.9798,2.0189,2.0754,2.1307,2.1832,2.2397,2.2907,2.3108,2.3108,2.3108,2.3108,2.3108,2.3108,2.3108,2.3108,2.3108,2.3108,2.3108,2.3108,2.3534,2.4054,2.4268,2.4481,2.487,2.5783,2.5971,2.6084,2.6424,2.6499,2.6499,2.6499,2.6782,2.7129,2.7637,2.8298,2.8907,2.9442,3.0238,3.0777,3.0777,3.1219,3.1511,3.1511,3.1442,3.1693,3.2452,3.2335,3.1715,3.0551,3.1206,3.0904,2.9447,2.9669,2.9792,2.9792,2.9792,2.9792,2.9792,3.0177,3.0343,0.0,0.0,0.0,0.0,0.0,0.0,0.0,0.0,0.0,0.0,0.0,0.0,0.0,0.0,1.7506,1.7711,1.8246,1.8698,1.8958,1.9409,1.9748,1.9798,1.9798,1.9798,1.9798,1.9798,1.9798,1.9798,1.9798,1.9547,1.8958,1.8506,1.8003,1.7423,1.6923,1.6626,1.6575,1.6575,1.655,1.65,1.65,1.6823,1.741,1.7461,1.779,1.8405,1.9384,1.9798,1.9798,1.9798,1.9836,1.9874,1.9823,2.0239,2.0893,2.1358,2.187,2.2431,2.2932,2.3108,2.3108,2.3108,2.3108,2.3108,2.3108,2.3108,2.3108,2.3108,2.3108,2.3108,2.317,2.364,2.4217,2.4757,2.5259,2.5749,2.6373,2.6499,2.6499,2.6499,2.6499,2.6521,2.6589,2.7229,2.7769,2.792,2.9348,3.0389,3.0299,3.094,3.1351,3.1278,3.1351,3.1395,3.1454,3.1393,3.1681,3.2496,3.215,3.1792,3.157,3.157,3.1126,3.0184,2.991,2.9792,2.9792,2.9792,2.9818,2.9934,3.0796,3.1217,0.0,0.0,0.0,0.0,0.0,0.0,0.0,0.0,0.0,0.0,0.0,0.0,0.0,1.5919,1.6337,1.6539,1.7408,1.8289,1.8909,1.9096,1.9321,1.9748,1.9798,1.9798,1.9798,1.9798,1.9798,1.9798,1.9798,1.9384,1.8406,1.8657,1.8405,1.7436,1.7677,1.7639,1.72,1.7222,1.6974,1.65,1.65,1.6823,1.7423,1.7827,1.8555,1.9472,1.9698,1.9798,1.9798,1.9798,2.0075,2.0465,1.9974,2.0677,2.192,2.1606,2.2121,2.2945,2.3058,2.3108,2.3108,2.3108,2.3108,2.3108,2.3108,2.3108,2.3108,2.3108,2.3108,2.3208,2.369,2.423,2.477,2.531,2.5523,2.5749,2.6373,2.6499,2.6499,2.6499,2.6499,2.6679,2.7317,2.7571,2.8149,2.9535,3.0614,3.0999,3.0389,3.045,3.0299,2.9597,3.0133,3.0743,3.1208,3.1853,3.2429,3.2933,3.2877,3.2359,3.1336,3.1276,3.0823,2.9885,2.9832,2.9792,2.9792,2.9792,3.0177,3.0895,3.1106,3.1217,0.0,0.0,0.0,0.0,0.0,0.0,0.0,0.0,0.0,0.0,0.0,0.0,1.5112,1.563,1.6082,1.624,1.7252,1.8179,1.8558,1.8845,1.9196,1.9748,1.9798,1.9798,1.9798,1.9798,1.9798,1.9798,1.9572,1.9045,1.8242,1.8229,1.7852,1.6999,1.7513,1.7664,1.741,1.7639,1.7488,1.6936,1.72,1.7626,1.8179,1.8468,1.9045,1.9798,1.9798,1.9798,1.9798,1.9798,1.9987,2.0251,1.9924,2.0665,2.1882,2.1594,2.2184,2.3108,2.3108,2.3108,2.3108,2.3108,2.3108,2.3108,2.3108,2.3108,2.3158,2.3446,2.3521,2.377,2.4736,2.509,2.5358,2.607,2.612,2.6122,2.6424,2.6499,2.6624,2.7007,2.7061,2.7351,2.8182,2.8684,2.938,3.0673,3.1219,3.1219,3.0389,3.0299,3.0064,2.9467,3.0191,3.0776,3.0912,3.2491,3.3147,3.2447,3.269,3.236,3.1241,3.0758,3.0317,2.9792,2.9792,2.9792,2.9792,3.0241,3.0733,3.1217,3.2141,3.2321,0.0,0.0,0.0,0.0,0.0,0.0,0.0,0.0,0.0,0.0,0.0,1.4287,1.4768,1.5531,1.6094,1.6174,1.7236,1.8091,1.8191,1.8569,1.9083,1.9723,1.9798,1.9798,1.9798,1.9798,1.9761,1.9673,1.9246,1.8719,1.8103,1.7714,1.73,1.6801,1.7187,1.7448,1.7549,1.789,1.784,1.741,1.8041,1.8556,1.9008,1.9096,1.9371,1.9798,1.9798,1.9798,1.9798,1.9798,1.9861,1.9949,1.9949,2.0639,2.1631,2.1631,2.2272,2.3108,2.3108,2.3108,2.3108,2.3108,2.3108,2.3108,2.3108,2.3108,2.3233,2.3841,2.4116,2.4491,2.5715,2.6032,2.6225,2.6868,2.688,2.6692,2.6521,2.6499,2.6748,2.7537,2.7953,2.8363,2.9097,2.995,3.0748,3.1409,3.1511,3.1161,3.0208,3.0172,2.9995,2.9419,3.0262,3.0797,3.0569,3.269,3.3299,3.1638,3.2047,3.1924,3.1007,3.0216,2.9792,2.9792,2.9792,2.9792,2.9792,3.0595,3.1106,3.1499,3.3031,3.3345,0.0,0.0,0.0,0.0,0.0,0.0,0.0,0.0,0.0,0.0,1.3056,1.3276,1.3861,1.4864,1.5609,1.5688,1.6706,1.7664,1.8141,1.8267,1.8681,1.9685,1.9798,1.9798,1.9798,1.9798,1.961,1.9146,1.9045,1.8556,1.7574,1.7877,1.8066,1.799,1.7589,1.7614,1.8091,1.7689,1.7473,1.7423,1.8406,1.8933,1.902,1.9497,1.9736,1.9798,1.9798,1.9798,1.9798,1.9798,2.01,2.0578,2.0578,2.123,2.2196,2.2196,2.2569,2.3108,2.3108,2.3108,2.3108,2.3108,2.3108,2.3108,2.3108,2.3108,2.3233,2.3841,2.4497,2.5132,2.5555,2.6754,2.7826,2.7616,2.7551,2.7351,2.6658,2.6499,2.6748,2.7537,2.8907,2.9981,3.0103,3.0807,3.138,3.1467,3.1511,3.094,2.938,2.9586,2.9292,2.7806,2.8834,2.9851,3.037,3.1404,3.1791,3.1279,3.1349,3.0983,3.0037,2.9869,2.9792,2.9792,2.9792,2.9792,2.9792,2.9934,3.0809,3.2429,3.2664,3.2713,0.0,0.0,0.0,0.0,0.0,0.0,0.0,0.0,0.0,1.4103,1.418,1.4225,1.4287,1.4981,1.568,1.6044,1.6548,1.7099,1.7664,1.8003,1.8493,1.9246,1.9623,1.9798,1.9798,1.9798,1.971,1.9472,1.9171,1.8657,1.789,1.7777,1.7601,1.7275,1.7338,1.7524,1.7739,1.7815,1.8003,1.8304,1.877,1.9158,1.9472,1.9698,1.9798,1.9798,1.9798,1.9798,1.9823,2.015,2.0465,2.0729,2.1031,2.1606,2.2309,2.2309,2.2631,2.3108,2.3108,2.3108,2.3108,2.3108,2.3108,2.3108,2.3108,2.3333,2.371,2.4305,2.4931,2.5761,2.7148,2.7715,2.8134,2.8965,2.878,2.833,2.7986,2.7517,2.7571,2.8907,3.0133,3.097,3.097,3.1278,3.1511,3.1511,3.1511,3.0896,2.9223,2.9463,2.9275,2.791,2.9067,3.019,3.0808,3.215,3.2458,3.1265,3.1669,3.1328,2.9869,2.9792,2.9792,2.9792,2.9792,2.9792,2.9792,3.0317,3.1267,3.2593,3.3136,3.338,0.0,0.0,0.0,0.0,0.0,0.0,0.0,0.0,1.4281,0.0,1.5622,1.5656,1.5402,1.5741,1.6182,1.6638,1.6694,1.6923,1.7691,1.7999,1.8399,1.9108,1.9572,1.9798,1.9798,1.9798,1.9748,1.961,1.9221,1.877,1.8242,1.7677,1.725,1.6939,1.7237,1.741,1.741,1.7928,1.8456,1.9008,1.9146,1.9396,1.9798,1.9798,1.9798,1.9798,1.9798,1.9798,1.9849,2.0453,2.0691,2.0767,2.143,2.1945,2.2334,2.2443,2.2757,2.3108,2.3108,2.3108,2.3108,2.3108,2.3108,2.3108,2.3108,2.3509,2.4167,2.4931,2.5691,2.6661,2.852,2.8844,2.8939,3.0042,2.9797,2.9286,2.9066,2.8652,2.8748,3.0042,3.097,3.1511,3.1511,3.1511,3.1511,3.1511,3.1645,3.1145,2.9414,2.9821,2.976,2.8443,2.9699,3.0768,3.1177,3.2713,3.3066,3.1646,3.1997,3.1623,3.0216,2.9934,2.9792,2.9792,2.9792,2.9792,2.9792,3.072,3.1669,3.2629,3.3567,3.3993,0.0,0.0,0.0,0.0,0.0,0.0,0.0,0.0,0.0,1.6212,1.6787,1.7181,1.7182,1.7195,1.7231,1.7345,1.7179,1.7496,1.8734,1.8348,1.8378,1.9608,1.9786,1.9798,1.9798,1.9798,1.9597,1.9083,1.902,1.877,1.8242,1.7677,1.7614,1.8103,1.7662,1.741,1.741,1.7928,1.8456,1.9008,1.9522,1.9773,1.9798,1.9798,1.9798,1.9798,1.9798,1.9798,1.9849,2.0453,2.0691,2.0792,2.1845,2.2284,2.2343,2.2869,2.3083,2.3108,2.3108,2.3108,2.3108,2.3108,2.3108,2.3108,2.3108,2.3509,2.4292,2.5646,2.6995,2.8198,2.885,3.0133,3.1117,3.045,3.0269,3.0011,2.9192,2.9597,3.0208,3.0269,3.097,3.1511,3.1511,3.1511,3.1511,3.1511,3.2034,3.1806,2.9989,3.0779,3.0823,2.905,3.0219,3.1177,3.1217,3.2105,3.2629,3.2522,3.1742,3.1217,3.1143,3.0279,2.9792,2.9792,2.9792,2.9792,2.9792,3.072,3.1669,3.2629,3.3567,3.3993,0.0,0.0,0.0,0.0,0.0,0.0,0.0,1.5819,1.6228,1.7159,1.7802,1.8252,1.8376,1.8104,1.7879,1.7917,1.7841,1.7968,1.8419,1.8561,1.8771,1.9233,1.9597,1.9798,1.9798,1.9798,1.9723,1.9535,1.9497,1.9296,1.8744,1.8519,1.8367,1.8204,1.8016,1.7903,1.7903,1.8455,1.8807,1.9008,1.9547,1.9798,1.9798,1.9798,1.9798,1.9798,1.9798,1.9798,1.9874,2.0815,2.1219,2.1333,2.238,2.2807,2.2832,2.3032,2.3108,2.3108,2.3108,2.3108,2.3108,2.3108,2.3108,2.317,2.3547,2.4079,2.4823,2.6227,2.7227,2.8189,2.9479,3.0269,3.0807,3.1029,3.1058,3.097,3.0673,3.0837,3.1058,3.1058,3.1307,3.1511,3.1511,3.1058,3.0748,3.0748,3.074,3.0321,2.9127,2.999,3.0502,2.9926,3.0122,3.102,3.2855,3.2213,3.2213,3.3415,3.2069,3.1217,3.1217,3.0317,2.9792,2.9792,2.9792,3.0113,3.0696,3.1044,3.1997,3.3518,3.3842,3.4361,0.0,0.0,0.0,0.0,0.0,0.0,0.0,0.0,1.7185,1.8316,1.8816,1.9105,1.9246,1.882,1.8456,1.8456,1.8399,1.845,1.8682,1.8821,1.8994,1.9233,1.9597,1.9798,1.9798,1.9798,1.9798,1.9798,1.9798,0.0,1.9284,1.9306,1.9172,1.8825,1.841,1.8292,1.848,1.882,1.9008,1.9008,1.9547,1.9798,1.9798,1.9798,1.9798,1.9798,1.9798,1.9798,1.9886,2.1029,2.1493,2.1594,2.2681,2.3108,2.3108,2.3108,2.3108,2.3108,2.3108,2.3108,2.3108,2.3108,2.3108,2.3208,2.3828,2.4589,2.5537,2.696,2.7949,2.8907,3.0329,3.0703,3.0837,3.138,3.1511,3.1511,3.1511,3.1511,3.1511,3.1511,3.1511,3.1409,3.1161,3.0644,3.0371,3.0558,3.0587,3.047,3.0099,3.0895,3.1378,3.1155,3.0908,3.1623,3.3808,3.2558,3.2357,3.391,3.2249,3.1217,3.1217,3.0317,2.9792,2.9792,3.0101,3.0733,3.1669,3.1669,3.2464,3.4027,3.4361,3.4691,0.0,0.0,0.0,0.0,0.0,0.0,0.0,0.0,1.848,1.9535,1.9773,1.9786,1.9798,1.9359,1.902,1.902,1.8847,1.8967,1.9695,1.9176,1.9006,1.9721,1.9798,1.9798,1.9798,1.9798,1.9798,1.9798,1.9798,1.9798,1.9798,1.9928,1.9988,1.9988,1.8864,1.8505,1.902,1.902,1.902,1.9033,1.956,1.9798,1.9798,1.9798,1.9798,1.9798,1.9798,1.9798,1.9886,2.1029,2.1493,2.1594,2.2681,2.3108,2.3108,2.3108,2.3108,2.3108,2.3108,2.3108,2.3108,2.3108,2.3108,2.3233,2.3859,2.5014,2.6418,2.7847,2.9223,3.0494,3.1278,3.1511,3.1511,3.1511,3.1511,3.1511,3.1511,3.1511,3.1511,3.1511,3.1467,3.1219,3.0419,3.0269,3.044,3.1061,3.1723,3.2353,3.2982,3.3552,3.3602,3.2713,3.2558,3.2925,3.3876,3.3101,3.2961,3.391,3.2213,3.1217,3.1217,3.0317,2.9792,2.983,3.0733,3.1669,3.2629,3.2629,3.3136,3.4061,3.5019,3.4905,1.65,0.0,0.0,0.0,0.0,0.0,0.0,0.0,1.7825,1.8505,1.8933,1.9334,1.9736,1.9685,1.9585,1.9585,1.9207,1.9131,1.9722,1.9605,1.9553,1.9773,1.9798,1.9798,1.9798,1.9798,1.9798,0.0,1.9798,1.9798,1.9798,1.9839,1.9876,1.9876,1.9535,1.9434,1.9585,1.9585,1.9585,1.9585,1.9736,1.9798,1.9798,1.9798,1.9798,1.9798,1.9798,1.9798,1.9886,2.1029,2.1493,2.1594,2.2681,2.3108,2.3108,2.3108,2.3108,2.3108,2.3108,2.3108,2.3108,2.3108,2.3396,2.3871,2.458,2.5677,2.7001,2.8549,2.963,3.0494,3.1278,3.1511,3.1511,3.1511,3.1511,3.1511,3.1511,3.1511,3.1511,3.1511,3.1029,3.0554,3.0329,2.9254,2.8843,3.0159,3.0278,3.0713,3.1983,3.2058,3.2141,3.2558,3.1378,3.123,3.2855,3.2141,3.1997,3.2925,3.1852,3.1217,3.1217,3.0317,3.0101,3.0796,3.1068,3.1997,3.3602,3.3602,3.4109,3.5067,3.461,3.3891,0.0,0.0,0.0,0.0,0.0,0.0,0.0,1.7137,1.7561,0.0,1.8455,1.882,1.9359,1.9296,1.9284,1.9723,1.9334,1.9183,1.9723,1.9798,1.9798,1.9798,1.9798,1.9798,1.9798,1.9798,1.9798,1.9798,1.9798,1.9927,2.0207,2.022,2.022,2.022,1.9952,1.9798,1.9798,1.9798,1.9798,1.9798,1.9798,1.9798,1.9798,1.9798,1.9798,1.9798,1.9798,1.9798,1.9886,2.1029,2.1493,2.1594,2.2681,2.3108,2.3108,2.3108,2.3108,2.3108,2.3108,2.3305,2.359,2.359,2.3833,2.4374,2.5602,2.6476,2.7448,2.9222,3.0234,3.0896,3.138,3.1511,3.1511,3.1511,3.1511,3.1511,3.1511,3.1511,3.1511,3.1511,3.1117,3.0584,2.9889,2.8907,2.863,2.9803,3.0078,3.0815,3.2692,3.2605,3.2558,3.3136,3.1513,3.1119,3.3031,3.196,3.1609,3.2522,3.1706,3.1007,3.062,3.0113,3.0241,3.118,3.1573,3.2713,3.461,3.4211,3.4509,3.5472,3.4075,3.3136,0.0,0.0,0.0,0.0,0.0,0.0,1.7187,1.736,1.7549,0.0,1.8116,1.8279,1.8807,1.8506,1.8518,1.9472,1.9259,1.9183,1.9723,1.9798,1.9798,1.9798,1.9798,1.9798,1.9798,1.9798,1.9798,1.9798,1.9798,2.0105,2.0771,2.0721,2.0696,2.0696,2.0105,1.9798,1.9798,1.9798,1.9798,1.9798,1.9798,1.9798,1.9798,1.9798,1.9798,1.9798,1.9798,1.9836,1.9974,2.1054,2.1493,2.1594,2.2681,2.3108,2.3108,2.3108,2.3108,2.3108,2.3198,2.3708,2.4321,2.4408,2.4476,2.4847,2.6579,2.7301,2.7914,2.9893,3.097,3.1511,3.1511,3.1511,3.1511,3.1511,3.1511,3.1511,3.1511,3.1511,3.1511,3.1511,3.1438,3.0896,2.9411,2.9066,2.9273,3.003,3.0652,3.1848,3.4209,3.4142,3.3921,3.3979,3.2429,3.1997,3.3567,3.2357,3.1742,3.2249,3.1706,3.0908,2.9818,2.9792,3.0279,3.1328,3.2393,3.3754,3.5504,3.461,3.4624,3.5472,3.3616,3.2749,0.0,0.0,1.65,0.0,0.0,0.0,0.0,1.7049,1.7436,0.0,1.7574,1.7714,1.8267,1.8279,1.8279,1.848,1.8782,1.9183,1.9723,1.9798,1.9798,1.9798,1.9798,1.9798,1.9798,1.9798,1.9798,1.9798,1.9798,2.0105,2.0771,2.0295,2.0003,2.0003,1.9875,1.9798,1.9798,1.9798,1.9798,1.9798,1.9798,1.9798,1.9798,1.9798,1.9798,1.9798,1.9798,2.0075,2.0578,2.1245,2.1493,2.1594,2.2681,2.3108,2.3108,2.3108,2.3108,2.3198,2.3826,2.4176,2.4408,2.4979,2.5475,2.5932,2.648,2.7697,2.9231,3.0807,3.138,3.1511,3.1511,3.1511,3.1511,3.1511,3.1511,3.1511,3.1511,3.1511,3.1511,3.1511,3.097,3.0419,3.0103,2.9473,2.9449,3.078,3.1074,3.1971,3.4213,3.3776,3.3461,3.3935,3.2996,3.2177,3.1779,3.282,3.2571,3.047,3.1586,3.1586,2.9869,2.9792,3.0608,3.2285,3.4056,3.5115,3.5504,3.5311,3.5326,3.5472,3.4293,3.3739,0.0,0.0,1.65,1.65,0.0,0.0,0.0,0.0,1.6948,1.6948,1.6948,1.7124,1.7689,1.779,1.789,1.8166,1.8644,1.8995,1.9007,1.9459,1.9798,1.9798,2.0062,2.0264,2.0264,2.0264,2.0269,2.0296,2.0295,2.0459,2.0771,2.0472,2.0156,1.9798,1.9798,1.9798,1.9798,1.9798,1.9798,1.9798,1.9798,1.9798,1.9798,1.9798,1.9962,2.0264,2.0264,2.0578,2.1144,2.1669,2.1895,2.1983,2.2782,2.3108,2.3108,2.3108,2.3108,2.3215,2.4031,2.4538,2.4951,2.5701,2.613,2.6494,2.7307,2.8649,3.0116,3.1186,3.1511,3.1511,3.1511,3.1511,3.1511,3.1511,3.1511,3.1511,3.1511,3.1511,3.1511,3.1511,3.1161,3.0777,3.0359,2.995,2.9758,3.0055,3.0742,3.171,3.3172,3.3195,3.3331,3.3921,3.3171,3.2593,3.2593,3.3449,3.322,3.1304,3.2083,3.1756,2.9869,3.0241,3.1365,3.3276,3.4739,3.5504,3.5504,3.5504,3.5504,3.5472,3.4461,3.3993,0.0,0.0,0.0,0.0,0.0,1.6763,0.0,0.0,0.0,0.0,0.0,0.0,0.0,0.0,0.0,0.0,0.0,0.0,0.0,1.8982,0.0,1.966,2.0189,2.0528,2.0528,2.0427,2.0553,2.0932,2.0654,2.0616,2.0942,2.0746,2.0359,1.9824,1.9798,1.9798,1.9798,1.9798,1.9798,1.9798,1.9798,1.9798,1.9798,1.9798,2.0125,2.0718,2.0839,2.1192,2.171,2.2252,2.2488,2.2493,2.2932,2.3108,2.3138,2.3275,2.3335,2.3442,2.4394,2.5119,2.5728,2.6469,2.6808,2.7147,2.8419,2.9594,3.0657,3.1316,3.1511,3.1511,3.1511,3.1511,3.1511,3.1511,3.1511,3.1511,3.1511,3.1511,3.1511,3.1511,3.138,3.1117,3.0614,3.0524,3.0299,2.9597,3.0587,3.1687,3.2356,3.2991,3.3612,3.4221,3.3602,3.3394,3.3959,3.4177,3.3822,3.2664,3.2593,3.1938,3.0394,3.123,3.2464,3.3993,3.4986,3.5504,3.5504,3.5326,3.5213,3.518,3.4394,3.391,0.0,0.0,0.0,0.0,1.7652,0.0,0.0,0.0,0.0,0.0,0.0,0.0,0.0,0.0,0.0,0.0,0.0,0.0,1.7574,1.8417,1.9096,1.9096,1.9572,1.9899,1.9899,1.9459,1.9869,2.1493,2.0102,1.9903,2.1517,2.0521,1.9875,1.9798,1.9798,1.9798,1.9798,1.9798,1.9798,1.9798,1.9798,1.9798,1.9798,1.9798,2.0125,2.0745,2.1394,2.1872,2.2279,2.2976,2.317,2.302,2.3083,2.3108,2.3198,2.3884,2.4176,2.4366,2.5755,2.6283,2.651,2.7229,2.7876,2.8502,2.9265,2.9953,3.0657,3.1316,3.1511,3.1511,3.1511,3.1511,3.1511,3.1511,3.1511,3.1511,3.1511,3.1511,3.1511,3.1511,3.0925,3.0614,3.1248,3.1351,3.1322,3.1219,3.1872,3.2586,3.3272,3.3928,3.4599,3.5252,3.5246,3.4839,3.4061,3.4806,3.4558,3.2713,3.2593,3.25,3.2285,3.3171,3.3774,3.3993,3.4986,3.5504,3.5504,3.4624,3.4177,3.4177,3.4061,3.3553,0.0,0.0,0.0,0.0,0.0,0.0,1.6688,0.0,1.681,0.0,0.0,0.0,0.0,0.0,0.0,0.0,1.72,0.0,0.0,0.0,1.8644,0.0,0.0,0.0,2.0302,1.9798,1.9951,2.1099,1.9818,1.963,2.111,2.0308,1.9798,1.9798,1.9798,1.9798,1.9798,1.9798,1.9798,1.9798,1.9798,1.9798,1.9811,2.015,2.0641,2.1209,2.2282,2.2728,2.2875,2.4066,2.3984,2.3185,2.4105,2.415,2.3767,2.3649,2.4163,2.5035,2.5646,2.6149,2.6616,2.7357,2.8064,2.8727,2.9412,3.0013,3.0657,3.1316,3.1511,3.1511,3.1511,3.1511,3.1511,3.1511,3.1511,3.1511,3.1511,3.1511,3.1511,3.1511,3.0837,3.0419,3.0748,3.0389,3.0042,3.0042,3.0712,3.1599,3.2625,3.343,3.4322,3.5385,3.5504,3.5326,3.4905,3.5246,3.492,3.3484,3.289,3.2855,3.338,3.3774,3.4279,3.4872,3.5279,3.5504,3.5504,3.4495,3.3705,3.3206,3.3206,3.2996,1.7829,0.0,0.0,0.0,0.0,0.0,0.0,0.0,0.0,0.0,0.0,0.0,0.0,0.0,0.0,0.0,0.0,0.0,0.0,0.0,0.0,0.0,0.0,0.0,0.0,1.9786,1.9749,2.0733,1.9542,1.9354,2.0744,2.0144,1.9798,1.9798,1.9798,1.9798,1.9798,1.9798,1.9798,1.9798,1.9798,1.9798,1.9823,2.0427,2.1089,2.1882,2.3159,2.3612,2.356,2.5063,2.4809,2.356,2.4894,2.5203,2.4838,2.4237,2.461,2.5453,2.5864,2.6478,2.7156,2.769,2.8427,2.9205,2.9684,3.0283,3.0896,3.1361,3.1511,3.1511,3.1511,3.1511,3.1511,3.1511,3.1511,3.1511,3.1511,3.1511,3.1511,3.1511,3.0644,2.995,2.995,2.9628,2.9348,2.9348,3.0403,3.1503,3.2436,3.3441,3.4412,3.54,3.5504,3.5504,3.5504,3.5504,3.4953,3.3705,3.3206,3.3171,3.3602,3.4143,3.4758,3.5504,3.5504,3.5504,3.5504,3.4495,3.3671,3.2961,3.2464,3.2213,0.0,0.0,0.0,1.8442,0.0,0.0,0.0,0.0,1.7373,0.0,0.0,0.0,0.0,0.0,0.0,0.0,0.0,0.0,0.0,0.0,0.0,0.0,0.0,0.0,0.0,1.8882,1.8971,0.0,1.9208,1.8971,2.0718,2.0144,1.9798,1.9798,1.9798,1.9798,1.9798,1.9798,1.9798,1.9798,1.9798,1.9798,1.9823,2.0427,2.1373,2.2631,2.3917,2.4381,2.4379,2.5864,2.5591,2.435,2.5091,2.581,2.6431,2.6404,2.5987,2.5591,2.7019,2.7983,2.8551,2.8562,2.9415,3.0447,3.0462,3.0956,3.1481,3.1496,3.1511,3.1511,3.1511,3.1511,3.1511,3.1511,3.1511,3.1511,3.1511,3.1511,3.1511,3.1511,3.0178,2.9034,2.9034,2.9721,3.0269,3.0269,3.2059,3.3409,3.3454,3.4637,3.5459,3.5504,3.5504,3.5504,3.5504,3.5504,3.4673,3.2784,3.3449,3.3567,3.2664,3.4442,3.5472,3.5504,3.5504,3.5504,3.5504,3.4495,3.3993,3.391,3.2105,3.1254,0.0,0.0,1.9171,1.882,0.0,0.0,0.0,0.0,0.0,0.0,0.0,0.0,0.0,0.0,0.0,0.0,0.0,0.0,0.0,0.0,0.0,0.0,0.0,0.0,0.0,0.0,0.0,0.0,1.9396,0.0,2.0105,2.0293,2.02,1.9811,1.9798,1.9798,1.9798,1.9798,1.9798,1.9798,1.9798,1.9999,2.0415,2.0981,2.1924,2.32,2.4505,2.5067,2.5147,2.6628,2.6067,2.4452,2.6174,2.6094,2.5091,2.5591,2.6242,2.6974,2.7928,2.8412,2.8667,2.9101,2.9819,3.0507,3.0507,3.0957,3.1511,3.1511,3.1511,3.1511,3.1511,3.1511,3.1511,3.1511,3.1511,3.1511,3.1511,3.1511,3.1511,3.1511,3.0614,2.9858,2.9858,3.0432,3.0704,3.0172,3.1171,3.2498,3.3961,3.4547,3.4996,3.5459,3.5504,3.5504,3.5504,3.4872,3.4211,3.3567,3.3241,3.3206,3.3518,3.4177,3.4839,3.5504,3.5504,3.5504,3.5504,3.4495,3.3993,3.3993,3.2713,3.2141,1.9157,1.9271,0.0,1.9353,1.8914,0.0,1.8086,0.0,0.0,0.0,0.0,0.0,0.0,0.0,0.0,0.0,0.0,0.0,0.0,0.0,0.0,0.0,0.0,0.0,0.0,0.0,1.8769,1.956,1.956,0.0,0.0,2.0779,2.0939,2.0809,2.0553,2.0695,2.1185,2.0695,2.0553,2.0797,2.0521,2.0602,2.1006,2.1531,2.2538,2.3837,2.4929,2.5536,2.5864,2.6826,2.6215,2.4879,2.6534,2.6349,2.5175,2.5905,2.6931,2.8034,2.8442,2.8906,2.9355,2.9774,3.0342,3.0866,3.0866,3.1152,3.1511,3.1511,3.1511,3.1511,3.1511,3.1511,3.1511,3.1511,3.1511,3.1511,3.1511,3.1511,3.1511,3.1511,3.0837,3.0299,3.0299,3.0616,3.0793,3.0457,3.1533,3.2882,3.4336,3.4728,3.5011,3.5459,3.5504,3.5359,3.4986,3.4075,3.3345,3.3031,3.2464,3.2522,3.3449,3.3808,3.4461,3.5472,3.5504,3.5504,3.5504,3.4839,3.4543,3.4509,3.3891,3.365]},{"header":{"parameterUnit":"m.s-1","parameterCategory":1,"la1":30.6,"la2":29.2853,"lo1":-89.7004,"lo2":-87.6739,"dy":0.0162,"dx":0.0183,"nx":112,"ny":82,"refTime":"2025-01-22T06:00:00:Z","depth":0,"parameterNumber":3,"parameterNumberName":"V-component_of_WINDS"},"data":[0.0,0.0,0.0,0.0,0.0,0.0,0.0,0.0,0.0,0.0,0.0,0.0,0.0,0.0,0.0,0.0,0.0,0.0,0.0,0.0,0.0,0.0,0.0,0.0,0.0,0.0,0.0,0.0,0.0,0.0,0.0,0.0,0.0,0.0,0.0,0.0,0.0,0.0,0.0,0.0,0.0,0.0,0.0,0.0,0.0,0.0,0.0,0.0,0.0,0.0,0.0,0.0,0.0,0.0,0.0,0.0,0.0,0.0,0.0,0.0,0.0,0.0,0.0,0.0,0.0,0.0,0.0,0.0,0.0,0.0,0.0,0.0,0.0,0.0,0.0,0.0,0.0,0.0,0.0,0.0,0.0,0.0,0.0,0.0,0.0,0.0,0.0,0.0,0.0,0.0,0.0,1.0157,1.027,1.0481,1.0873,1.1415,1.1854,1.2169,0.0,0.0,0.0,0.0,0.0,0.0,0.0,0.0,0.0,0.0,0.0,0.0,0.0,0.0,0.0,0.0,0.0,0.0,0.0,0.0,0.0,0.0,0.0,0.0,0.0,0.0,0.0,0.0,0.0,0.0,0.0,0.0,0.0,0.0,0.0,0.0,0.0,0.0,0.0,0.0,0.0,0.0,0.0,0.0,0.0,0.0,0.0,0.0,0.0,0.0,0.0,0.0,0.0,0.0,0.0,0.0,0.0,0.0,0.0,0.0,0.0,0.0,0.0,0.0,0.0,0.0,0.0,0.0,0.0,0.0,0.0,0.0,0.0,0.0,0.0,0.0,0.0,0.0,0.0,0.0,0.0,0.0,0.0,0.0,0.0,0.0,0.0,0.0,0.0,0.0,0.0,0.0,0.0,0.0,0.0,0.0,0.0,0.0,0.0,0.0,0.0,0.0,0.0,0.0,0.9805,0.9944,1.0223,1.0519,1.0873,1.1184,1.1612,1.2174,0.0,0.0,0.0,0.0,0.0,0.0,0.0,0.0,0.0,0.0,0.0,0.0,0.0,0.0,0.0,0.0,0.0,0.0,0.0,0.0,0.0,0.0,0.0,0.0,0.0,0.0,0.0,0.0,0.0,0.0,0.0,0.0,0.0,0.0,0.0,0.0,0.0,0.0,0.0,0.0,0.0,0.0,0.0,0.0,0.0,0.0,0.0,0.0,0.0,0.0,0.0,0.0,0.0,0.0,0.0,0.0,0.0,0.0,0.0,0.0,0.0,0.0,0.0,0.0,0.0,0.0,0.0,0.0,0.0,0.0,0.0,0.0,0.0,0.0,0.0,0.0,0.0,0.0,0.0,0.0,0.0,0.0,0.0,0.0,0.0,0.0,0.0,0.0,0.0,0.0,0.0,0.0,0.0,0.0,0.0,0.0,0.0,0.0,0.0,0.0,0.0,0.0,0.0,1.0059,0.9868,0.9893,1.0198,1.0471,1.0631,1.1031,1.142,1.1684,1.2133,0.0,0.0,0.0,0.0,0.0,0.0,0.0,0.0,0.0,0.0,0.0,0.0,0.0,0.0,0.0,0.0,0.0,0.0,0.0,0.0,0.0,0.0,0.0,0.0,0.0,0.0,0.0,0.0,0.0,0.0,0.0,0.0,0.0,0.0,0.0,0.0,0.0,0.0,0.0,0.0,0.0,0.0,0.0,0.0,0.0,0.0,0.0,0.0,0.0,0.0,0.0,0.0,0.0,0.0,0.0,0.0,0.0,0.0,0.0,0.0,0.0,0.0,0.0,0.0,0.0,0.0,0.0,0.0,0.0,0.0,0.0,0.0,0.0,0.0,0.0,0.0,0.0,0.0,0.0,0.0,0.0,0.0,0.0,0.0,0.0,0.0,0.0,0.0,0.0,0.0,0.0,0.0,0.0,0.0,0.0,0.0,0.0,0.0,0.0,0.0,0.0,0.0,1.0033,1.0109,1.0094,1.0457,1.0664,1.0596,1.1014,1.128,1.1299,1.1792,0.0,0.0,0.0,0.0,0.0,0.0,0.0,0.0,0.0,0.0,0.0,0.0,0.0,0.0,0.0,0.0,0.0,0.0,0.0,0.0,0.0,0.0,0.0,0.0,0.0,0.0,0.0,0.0,0.0,0.0,0.0,0.0,0.0,0.0,0.0,0.0,0.0,0.0,0.0,0.0,0.0,0.0,0.0,0.0,0.0,0.0,0.0,0.0,0.0,0.0,0.0,0.0,0.0,0.0,0.0,0.0,0.0,0.0,0.0,0.0,0.0,0.0,0.0,0.0,0.0,0.0,0.0,0.0,0.0,0.0,0.0,0.0,0.0,0.0,0.0,0.0,0.0,0.0,0.0,0.0,0.0,0.0,0.0,0.0,0.0,0.0,0.0,0.0,0.0,0.0,0.0,0.0,0.0,0.0,0.0,0.0,0.0,0.0,0.0,0.0,0.0,0.0,1.0599,1.0975,1.0685,1.1163,1.1411,1.1175,1.1176,1.1235,1.1305,1.1574,0.0,0.0,0.0,0.0,0.0,0.0,0.0,0.0,0.0,0.0,0.0,0.0,0.0,0.0,0.0,0.0,0.0,0.0,0.0,0.0,0.0,0.0,0.0,0.0,0.0,0.0,0.0,0.0,0.0,0.0,0.0,0.0,0.0,0.0,0.0,0.0,0.0,0.0,0.0,0.0,0.0,0.0,0.0,0.0,0.0,0.0,0.0,0.0,0.0,0.0,0.0,0.0,0.0,0.0,0.0,0.0,0.0,0.0,0.0,0.0,0.0,0.0,0.0,0.0,0.0,0.0,0.0,0.0,0.0,0.0,0.0,0.0,0.0,0.0,0.0,0.0,0.0,0.0,0.0,0.0,0.0,0.0,0.0,0.0,0.0,0.0,0.0,0.0,0.0,0.0,0.0,0.0,0.0,0.0,0.0,0.0,0.0,0.0,0.0,0.0,0.0,0.0,1.0425,1.0611,0.0,1.1236,1.1408,1.0926,1.1269,1.138,1.1078,0.0,0.0,0.0,0.0,0.0,0.0,0.0,0.0,0.0,0.0,0.0,0.0,0.0,0.0,0.0,0.0,0.0,0.0,0.0,0.0,0.0,0.0,0.0,0.0,0.0,0.0,0.0,0.0,0.0,0.0,0.0,0.0,0.0,0.0,0.0,0.0,0.0,0.0,0.0,0.0,0.0,0.0,0.0,0.0,0.0,0.0,0.0,0.0,0.0,0.0,0.0,0.0,0.0,0.0,0.0,0.0,0.0,0.0,0.0,0.0,0.0,0.0,0.0,0.0,0.0,0.0,0.0,0.0,0.0,0.0,0.0,0.0,0.0,0.0,0.0,0.0,0.0,0.0,0.0,0.0,0.0,0.0,0.0,0.0,0.0,0.0,0.0,0.0,0.0,0.0,0.0,0.0,0.0,0.0,0.0,0.0,0.0,0.0,0.0,0.0,0.0,0.0,1.0384,1.0534,1.0738,0.0,1.1663,1.1876,1.1297,1.1498,1.1482,1.1016,0.0,0.0,0.0,0.0,0.0,0.0,0.0,0.0,0.0,0.0,0.0,0.0,0.0,0.0,0.0,0.0,0.0,0.0,0.0,0.0,0.0,0.0,0.0,0.0,0.0,0.0,0.0,0.0,0.0,0.0,0.0,0.0,0.0,0.0,0.0,0.0,0.0,0.0,0.0,0.0,0.0,0.0,0.0,0.0,0.0,0.0,0.0,0.0,0.0,0.0,0.0,0.0,0.0,0.0,0.0,0.0,0.0,0.0,0.0,0.0,0.0,0.0,0.0,0.0,0.0,0.0,0.0,0.0,0.0,0.0,0.0,0.0,0.0,0.0,0.0,0.0,0.0,0.0,0.0,0.0,0.0,0.0,0.0,0.0,0.0,0.0,0.0,0.0,0.0,0.0,0.0,0.0,0.0,0.0,0.0,0.0,0.0,0.0,0.0,0.0,0.0,0.0,1.0458,1.1109,1.1603,1.1615,1.2563,1.2973,1.245,1.1902,1.1498,0.0,0.0,0.0,0.0,0.0,0.0,0.0,0.0,0.0,0.0,0.0,0.0,0.0,0.0,0.0,0.0,0.0,0.0,0.0,0.0,0.0,0.0,0.0,0.0,0.0,0.0,0.0,0.0,0.0,0.0,0.0,0.0,0.0,0.0,0.0,0.0,0.0,0.0,0.0,0.0,0.0,0.0,0.0,0.0,0.0,0.0,0.0,0.0,0.0,0.0,0.0,0.0,0.0,0.0,0.0,0.0,0.0,0.0,0.0,0.0,0.0,0.0,0.0,0.0,0.0,0.0,0.0,0.0,0.0,0.0,0.0,0.0,0.0,0.0,0.0,0.0,0.0,0.0,0.0,0.0,0.0,0.0,0.0,0.0,0.0,0.0,0.0,0.0,0.0,0.0,0.0,0.0,0.0,0.0,0.0,0.0,0.0,0.0,0.0,0.0,0.0,0.0,0.0,1.1274,1.1481,1.1738,1.2128,1.2789,1.2973,1.245,1.2091,1.1691,1.1228,0.0,0.0,0.0,0.0,0.0,0.0,0.0,0.0,0.0,0.0,0.0,0.0,0.0,0.0,0.0,0.0,0.0,0.0,0.0,0.0,0.0,0.0,0.0,0.0,0.0,0.0,0.0,0.0,0.0,0.0,0.0,0.0,0.0,0.0,0.0,0.0,0.0,0.0,0.0,0.0,0.0,0.0,0.0,0.0,0.0,0.0,0.0,0.0,0.0,0.0,0.0,0.0,0.0,0.0,0.0,0.0,0.0,0.0,0.0,0.0,0.0,0.0,0.0,0.0,0.0,0.0,0.0,0.0,0.0,0.0,0.0,0.0,0.0,0.0,0.0,0.0,0.0,0.0,0.0,0.0,0.0,0.0,0.0,0.0,0.0,0.0,0.0,0.0,0.0,0.0,0.0,0.0,0.0,0.0,0.0,0.0,0.0,0.0,0.0,0.0,0.0,0.0,1.1663,1.1822,1.204,1.2363,1.2889,1.3073,1.2751,1.2507,1.2103,1.1399,0.0,0.0,0.0,0.0,0.0,0.0,0.0,0.0,0.0,0.0,0.0,0.0,0.0,0.0,0.0,0.0,0.0,0.0,0.0,0.0,0.0,0.0,0.0,0.0,0.0,0.0,0.0,0.0,0.0,0.0,0.0,0.0,0.0,0.0,0.0,0.0,0.0,0.0,0.0,0.0,0.0,0.0,0.0,0.0,0.0,0.0,0.0,0.0,0.0,0.0,0.0,0.0,0.0,0.0,0.0,0.0,0.0,0.0,0.0,0.0,0.0,0.0,0.0,0.0,0.0,0.0,0.0,0.0,0.0,0.0,0.0,0.0,0.0,0.0,0.0,0.0,0.0,0.0,0.0,0.0,0.0,0.0,0.0,0.0,0.0,0.0,0.0,0.0,0.0,0.0,0.0,0.0,0.0,0.0,0.0,0.0,0.0,0.0,0.0,0.0,0.0,0.0,1.1773,1.2145,1.2413,1.2463,1.2897,1.3215,1.3267,1.309,1.264,1.1779,0.0,0.0,0.0,0.0,0.0,0.0,0.0,0.0,0.0,0.0,0.0,0.0,0.0,0.0,0.0,0.0,0.0,0.0,0.0,0.0,0.0,0.0,0.0,0.0,0.0,0.0,0.0,0.0,0.0,0.0,0.0,0.0,0.0,0.0,0.0,0.0,0.0,0.0,0.0,0.0,0.0,0.0,0.0,0.0,0.0,0.0,0.0,0.0,0.0,0.0,0.0,0.0,0.0,0.0,0.0,0.0,0.0,0.0,0.0,0.0,1.1807,0.0,0.0,0.0,0.0,0.0,0.0,0.0,0.0,0.0,0.0,0.0,0.0,0.0,0.0,0.0,0.0,0.0,0.0,0.0,0.0,0.0,0.0,0.0,0.0,0.0,0.0,0.0,0.0,0.0,0.0,0.0,0.0,0.0,0.0,0.0,0.0,0.0,0.0,0.0,0.0,0.0,1.228,1.2366,1.2563,1.2973,1.3123,1.334,1.3719,1.3298,1.2905,1.2708,1.1878,0.0,0.0,0.0,0.0,0.0,0.0,0.0,0.0,0.0,0.0,0.0,0.0,0.0,0.0,0.0,0.0,0.0,0.0,0.0,0.0,0.0,0.0,0.0,0.0,0.0,0.0,0.0,0.0,0.0,0.0,0.0,0.0,0.0,0.0,0.0,0.0,0.0,0.0,0.0,0.0,0.0,0.0,0.0,0.0,0.0,0.0,0.0,0.0,0.0,0.0,0.0,0.0,0.0,0.0,0.0,0.0,0.0,0.0,0.0,0.0,1.3535,0.0,0.0,0.0,0.0,0.0,0.0,0.0,0.0,0.0,0.0,0.0,0.0,0.0,0.0,0.0,0.0,0.0,0.0,0.0,0.0,0.0,0.0,0.0,0.0,0.0,0.0,0.0,0.0,0.0,0.0,0.0,0.0,0.0,0.0,0.0,0.0,0.0,0.0,0.0,0.0,1.2895,1.2875,1.2902,1.3173,1.3198,1.3301,1.3531,1.348,1.3227,1.2745,1.2372,0.0,0.0,0.0,0.0,0.0,0.0,0.0,0.0,0.0,0.0,0.0,0.0,0.0,0.0,0.0,0.0,0.0,0.0,0.0,0.0,0.0,0.0,0.0,0.0,0.0,0.0,0.0,0.0,0.0,0.0,0.0,0.0,0.0,0.0,0.0,0.0,0.0,0.0,0.0,0.0,0.0,0.0,0.0,0.0,0.0,0.0,0.0,0.0,0.0,0.0,0.0,0.0,0.0,1.4059,1.5009,1.6949,1.6262,1.7009,1.8671,1.6112,1.5687,1.6851,1.7881,0.0,0.0,0.0,0.0,0.0,0.0,0.0,0.0,0.0,0.0,0.0,0.0,0.0,0.0,0.0,0.0,0.0,0.0,0.0,0.0,0.0,0.0,0.0,0.0,1.5752,1.5635,1.4888,0.0,0.0,0.0,0.0,0.0,0.0,0.0,0.0,0.0,0.0,0.0,1.3431,1.3318,1.3235,1.3353,1.3366,1.3388,1.3457,1.3825,1.3644,1.2726,1.2865,1.2622,0.0,0.0,0.0,0.0,0.0,0.0,0.0,0.0,0.0,0.0,0.0,0.0,0.0,0.0,0.0,0.0,0.0,0.0,0.0,0.0,0.0,0.0,0.0,0.0,0.0,0.0,0.0,0.0,0.0,0.0,0.0,0.0,0.8748,1.0537,0.0,0.0,0.0,0.0,0.0,0.0,0.0,0.0,0.0,0.0,0.0,0.0,0.0,1.4408,1.4095,1.4356,1.4819,1.5471,1.5668,1.6282,1.7254,1.7365,1.7807,1.8467,1.8336,0.0,1.9145,2.0209,0.0,0.0,0.0,0.0,0.0,0.0,0.0,0.0,0.0,0.0,0.0,0.0,0.0,0.0,0.0,0.0,0.0,0.0,0.0,0.0,0.0,0.0,1.7543,1.6586,1.638,1.6494,0.0,1.5601,1.445,1.4371,1.3829,0.0,0.0,0.0,0.0,0.0,0.0,0.0,1.3486,1.3318,1.3403,1.3934,1.3972,1.4134,1.4463,1.4568,1.4335,1.374,1.3261,1.279,1.2319,1.1763,0.0,0.0,0.0,0.0,0.0,0.0,0.0,0.0,0.0,0.0,0.0,0.0,0.0,0.0,0.0,0.0,0.0,0.0,0.0,0.0,0.0,0.0,0.0,0.0,0.0,0.0,0.0,0.0,0.0,0.964,1.1614,1.3001,1.2991,1.3173,0.0,0.0,0.0,0.0,0.0,0.0,0.0,0.0,0.0,1.4171,1.4804,1.5191,1.5269,1.5601,1.6123,1.6825,1.6939,1.7378,1.8093,1.8494,1.909,1.9893,2.0261,2.0659,2.1073,2.1018,2.0753,2.0426,0.0,0.0,0.0,0.0,2.0151,2.0131,1.9201,1.8742,1.8457,1.7711,0.0,0.0,0.0,0.0,0.0,0.0,0.0,0.0,0.0,0.0,1.7146,1.6993,1.6951,1.7097,1.7626,1.7099,1.6432,0.0,1.5817,1.5385,1.4725,0.0,0.0,0.0,0.0,1.4546,1.4916,1.4752,1.4717,1.4969,1.4725,1.4613,1.4787,1.4805,1.4703,1.4477,1.3929,1.3548,1.3367,1.2504,1.1974,0.0,0.0,0.0,0.0,0.0,0.0,0.0,0.0,0.0,0.0,0.0,0.0,0.0,0.0,0.0,0.0,0.0,0.0,0.0,0.0,0.0,0.0,0.0,0.0,0.0,0.0,0.0,0.0,1.1921,1.4042,1.5552,1.5884,1.6219,0.0,0.0,0.0,0.0,0.0,0.0,1.6225,1.5898,1.5548,1.5158,1.568,1.608,1.6278,1.6742,1.7219,1.7713,1.7878,1.8273,1.8889,1.9291,2.0079,2.1166,2.1353,2.1764,2.2251,2.162,2.1238,2.1092,2.1478,2.1491,2.1256,2.0625,2.0333,2.0149,1.9543,1.9181,1.8852,1.8327,1.7929,1.7577,1.717,0.0,0.0,0.0,0.0,1.8157,1.8293,1.7706,1.7167,1.7442,1.7504,1.7646,1.8204,1.8302,1.8143,0.0,1.7399,1.6966,1.6002,0.0,0.0,0.0,0.0,1.5751,1.6096,1.588,1.5705,1.57,1.5338,1.5097,1.5097,1.5097,1.5047,1.4916,1.4525,1.4299,1.4299,1.3488,1.3044,1.3044,0.0,0.0,0.0,0.0,0.0,0.0,0.0,0.0,0.0,0.0,0.0,0.0,0.0,0.0,0.0,0.0,0.0,0.0,0.0,0.0,0.0,0.0,0.0,0.0,0.0,0.0,0.0,0.0,0.0,1.7983,1.7046,0.0,0.0,0.0,0.0,1.7135,1.6739,1.6649,1.7207,1.7319,1.7141,1.6601,1.7547,1.7914,1.7609,1.7639,1.7669,1.7697,1.8341,1.8894,1.9368,1.9591,2.0383,2.1536,2.1181,2.1508,2.2307,2.2513,2.2158,2.1492,2.1854,2.15,2.0742,2.0091,2.0272,2.0703,1.9593,1.9276,1.9384,1.9541,1.9159,1.8631,1.8602,1.8616,0.0,0.0,1.9151,1.9471,1.8991,1.8817,1.865,1.8185,1.8066,1.8224,1.8727,1.8855,1.8708,0.0,1.7652,1.739,1.772,0.0,1.7138,1.7499,1.7238,1.6818,1.6361,1.5942,1.5713,1.5694,1.5676,1.5655,1.5655,1.5655,1.5449,1.4921,1.4859,1.4865,1.4865,1.4796,1.4758,1.4758,1.3679,0.0,0.0,0.0,0.0,0.0,0.0,0.0,0.0,0.0,0.0,0.0,0.0,0.0,0.0,0.0,0.0,0.0,0.0,0.0,0.0,0.0,0.0,0.0,0.0,0.0,0.0,0.0,0.0,1.8233,1.8402,0.0,1.8966,1.8747,1.8682,1.8952,1.8996,1.8988,1.8977,1.8857,1.8595,1.8196,1.8291,1.8486,1.8788,1.8493,1.8568,1.8986,1.9226,1.9436,1.9593,1.9945,2.0331,2.0781,2.1197,2.1568,2.1868,2.2284,2.2369,2.2258,2.2108,2.1885,2.1511,2.0507,2.0288,2.0416,1.9754,1.9544,1.9606,1.9687,1.9543,1.9348,1.9348,1.9348,1.9348,1.9348,1.9265,1.9151,1.8949,1.8631,1.8419,1.8574,1.8612,1.8746,1.9299,1.9406,1.9369,1.9169,1.898,1.8757,1.8452,1.8254,1.8026,1.7726,1.7941,1.7937,1.7398,1.7278,1.7114,1.6772,1.6417,1.6199,1.6199,1.6199,1.6132,1.5944,1.5613,1.5412,1.5412,1.5085,1.4896,1.4896,1.4115,1.3053,0.0,0.0,0.0,0.0,0.0,0.0,0.0,0.0,0.0,0.0,0.0,0.0,0.0,0.0,0.0,0.0,0.0,0.0,0.0,0.0,0.0,0.0,0.0,0.0,0.0,0.0,1.761,1.8778,1.9318,1.9561,1.9445,1.9838,1.9996,1.9715,2.012,2.0271,1.9942,1.9884,1.9661,1.9304,1.9291,1.9342,1.9495,1.9326,1.9383,1.9708,1.9708,1.9764,1.9909,2.0052,2.0261,2.0566,2.0991,2.1321,2.1612,2.1796,2.2053,2.2324,2.2217,2.2161,2.2048,2.1086,2.0732,2.0666,2.0104,1.9803,1.9708,1.9708,1.9708,1.9708,1.9708,1.9708,1.9708,1.9708,1.9442,1.9169,1.9169,1.8912,1.8727,1.9095,1.9169,1.9262,1.9621,1.9708,1.9708,1.9708,1.9708,1.9573,1.9106,1.9031,1.8897,1.8448,1.8609,1.8578,1.8039,1.7896,1.7626,1.7097,1.671,1.65,1.65,1.65,1.65,1.65,1.617,1.5969,1.5969,1.5422,1.5142,1.5142,1.4049,1.2958,1.184,0.0,0.0,0.0,0.0,0.0,0.0,0.0,0.0,0.0,0.0,0.0,0.0,0.0,0.0,0.0,0.0,0.0,0.0,0.0,0.0,0.0,0.0,0.0,1.6062,1.7258,1.8542,1.975,1.9715,1.9526,1.932,1.9794,1.9917,1.9397,2.0045,2.0362,2.0094,2.0389,2.037,1.9999,2.0655,2.0599,1.9764,2.0106,2.0089,1.9708,1.9711,1.9927,2.0263,1.9892,2.0174,2.0926,2.05,2.0781,2.1521,2.115,2.1228,2.1612,2.2077,2.2237,2.218,2.1703,2.1536,2.143,2.0567,2.0035,1.9708,1.9708,1.9708,1.9708,1.9708,1.9708,1.9708,1.9708,1.9708,1.9726,1.9708,1.9708,1.9726,1.9708,1.9708,1.9708,1.9708,1.9708,1.9708,1.9708,1.9708,1.9708,1.9708,1.9708,1.9708,1.9708,1.9244,0.0,1.8185,1.7626,1.7097,1.6552,1.65,1.65,1.65,1.65,1.65,1.65,1.65,1.65,1.65,1.593,1.561,1.561,1.3584,1.2278,1.1712,0.0,0.0,0.0,0.0,0.0,0.0,0.0,0.0,0.0,0.0,0.0,0.0,0.0,0.0,0.0,0.0,0.0,0.0,0.0,0.0,0.0,1.6791,1.7632,1.7727,1.8119,1.8712,1.9575,1.9626,1.9597,1.9597,2.0204,2.0633,2.0679,2.1364,2.1752,2.1671,2.1773,2.1838,2.1932,2.133,2.0991,2.1006,2.0263,1.9818,1.9693,2.0,2.0052,1.9874,2.0037,2.0104,2.0067,2.0227,2.0449,2.0667,2.091,2.1055,2.1134,2.0927,2.0846,2.0797,2.0381,2.0225,2.0191,1.9945,1.98,1.9708,1.9708,1.9708,1.9708,1.9708,1.9708,1.9708,1.9708,1.9909,2.007,1.9782,1.9927,2.0054,1.9764,1.9708,1.9708,1.9708,1.9708,1.9708,1.9708,1.9708,1.9708,1.9708,1.9708,1.9708,1.9708,1.9244,0.0,1.8185,1.7626,1.7097,1.6552,1.65,1.65,1.65,1.65,1.65,1.65,1.65,1.65,1.65,1.6337,1.6051,1.561,1.4322,1.3193,0.0,0.0,0.0,0.0,0.0,0.0,0.0,0.0,0.0,0.0,0.0,0.0,0.0,0.0,0.0,0.0,0.0,0.0,0.0,0.0,0.0,0.0,1.7672,1.8434,1.8741,1.8806,1.9025,1.9533,1.9449,1.9449,1.9676,2.0275,2.0789,2.1162,2.187,2.2296,2.2296,2.2296,2.2274,2.2241,2.1594,2.1165,2.099,2.0299,1.9874,1.9708,1.9929,1.9927,1.9708,1.9929,1.9927,1.9711,1.9962,2.0141,2.0314,2.0414,2.0549,0.0,0.0,0.0,0.0,0.0,2.0122,1.9947,1.9947,1.9839,1.9708,1.9708,1.9708,1.9708,1.9708,1.9708,1.9708,1.9708,1.9874,2.0,1.9764,1.9874,1.9982,1.9747,1.9708,1.9708,1.9708,1.9708,1.9708,1.9708,1.9708,0.0,1.9708,1.9708,1.9621,1.9406,1.8912,1.838,1.7827,1.7312,1.6858,1.6543,1.65,1.65,1.65,1.65,0.0,0.0,0.0,1.638,1.6139,1.6117,0.0,0.0,0.0,0.0,0.0,0.0,0.0,0.0,1.2518,1.2659,0.0,0.0,0.0,0.0,0.0,0.0,0.0,0.0,0.0,0.0,0.0,0.0,0.0,0.0,0.0,0.0,1.8343,1.869,1.9187,1.9282,1.935,1.9513,1.9214,1.9219,1.9729,2.0169,2.0649,2.1285,2.1921,2.2296,2.2296,0.0,0.0,0.0,0.0,2.1149,2.0366,2.028,2.0037,1.9708,1.9747,1.9747,1.9708,1.98,1.9782,1.9708,1.9747,1.9929,2.021,1.9892,1.9982,2.0348,2.0715,2.0845,2.0845,2.0845,2.0599,2.0229,2.0229,0.0,0.0,1.9708,1.9708,1.9708,1.9708,1.9708,1.9708,1.9708,1.9729,1.9764,1.9711,1.9729,1.9747,1.9711,1.9708,1.9708,1.9708,1.9708,1.9708,1.9708,1.9708,1.9708,1.9708,1.9708,1.9548,1.9062,1.8477,1.7927,1.7442,1.6879,1.65,1.65,0.0,0.0,1.65,1.65,1.65,1.65,1.65,1.6259,1.572,1.5698,1.5454,1.4903,1.4835,1.4789,1.4789,1.4869,1.4891,1.4869,1.4021,1.3894,0.0,0.0,0.0,0.0,0.0,0.0,0.0,0.0,0.0,0.0,0.0,0.0,0.0,0.0,0.0,1.8289,1.8782,1.9121,1.9058,1.9206,1.9243,1.9135,1.9043,1.9333,2.0182,2.0356,2.0859,2.2003,2.2212,2.2296,2.2296,2.2296,2.2217,2.2015,2.1428,2.0975,2.0702,2.011,1.9782,1.9693,0.0,0.0,1.9711,2.043,2.0362,1.9711,2.0052,2.0037,1.9854,2.0072,2.0229,2.028,2.0035,1.9945,1.9945,1.9945,1.9892,1.9818,1.9818,1.9764,1.9708,1.9708,1.9708,1.9708,1.9708,1.9708,0.0,1.9708,1.9929,2.0106,1.9782,1.9929,2.0089,1.9782,1.9708,1.9708,1.9708,1.9708,1.9708,1.9708,1.9708,1.9708,1.9708,1.9708,1.9657,1.9566,1.8708,1.8066,1.7967,1.7097,1.65,1.65,1.65,1.65,1.65,1.65,1.65,1.65,1.65,1.6445,1.6324,1.6337,1.6259,1.6151,1.5666,1.5432,1.5432,1.5856,1.6079,1.6044,1.5394,1.5406,0.0,0.0,0.0,0.0,0.0,0.0,0.0,0.0,0.0,0.0,0.0,1.7195,1.7659,0.0,1.8451,1.8799,1.9196,1.9335,1.9043,1.9403,1.9477,1.8878,1.9128,1.9638,2.0321,2.0649,2.1216,2.2226,2.2296,2.2296,2.2296,2.2077,2.1926,2.1859,2.1306,2.0846,2.0554,2.0179,1.9909,1.9708,1.9894,1.9892,1.9711,2.0154,2.012,1.9711,1.9909,1.9892,1.9726,1.9927,2.0,1.9982,1.9782,1.9708,1.9708,1.9708,1.9708,1.9708,1.9708,1.9708,1.9708,1.9708,1.9708,1.9708,1.9708,1.9708,1.9708,1.9708,1.9839,1.9947,1.9747,1.9839,1.9962,1.9747,1.9708,1.9708,1.9708,1.9708,1.9708,1.9708,1.9708,1.9708,1.9708,1.9708,1.9603,1.935,1.8612,1.8007,1.7727,1.6993,1.65,1.65,1.65,1.65,1.65,1.65,1.65,1.65,1.65,1.65,1.65,1.6798,1.6948,1.6948,1.693,1.6893,1.6893,1.7163,1.7297,1.7297,1.7255,1.7267,0.0,0.0,0.0,0.0,0.0,0.0,0.0,0.0,1.7773,1.759,1.7566,1.7772,1.8384,1.8538,1.8734,1.9217,1.9442,1.9475,1.9251,1.9786,1.9884,1.9068,1.9484,2.0031,2.0503,2.0947,2.1512,2.2229,2.2296,2.2296,2.2296,2.1943,2.1688,2.1597,2.1291,2.091,2.0449,2.0433,2.0227,1.9818,1.9818,1.9782,1.9708,1.9782,1.9764,1.9708,1.9708,1.9747,1.9803,1.9729,1.9747,1.9818,1.9729,1.9708,1.9708,1.9708,1.9708,1.9708,1.9708,1.9708,1.9723,1.9839,1.9902,1.9932,2.0052,2.0097,2.0067,1.9932,1.9902,1.9854,1.9738,1.9708,1.9708,1.9708,1.9708,1.9708,1.9708,1.9708,1.9708,1.9708,1.9708,1.9708,1.9708,1.9708,1.9548,1.9132,1.8516,1.7947,1.7504,1.6888,1.65,1.65,1.65,1.65,1.65,1.65,1.65,1.65,1.65,1.655,1.6663,1.7137,1.7461,1.7561,1.7978,1.8204,1.8204,1.8304,1.8367,1.838,1.8907,1.8857,1.6534,1.6275,1.6481,1.8098,1.8129,1.7956,0.0,0.0,1.8622,1.8474,1.8911,1.9296,1.9192,1.9199,1.9217,1.9286,1.9312,1.9507,1.9993,2.0297,2.0409,2.0289,2.031,2.0537,2.1066,2.1153,2.1512,2.2229,2.2296,2.2296,2.2296,2.2237,2.2032,2.1612,2.1568,2.1337,2.0926,2.0926,2.0682,2.0229,2.0229,2.0052,1.9711,2.007,2.0052,1.9708,1.9708,1.9909,2.021,1.9839,1.9909,2.0195,1.9839,1.9708,1.9708,1.9708,1.9708,1.9708,1.9708,1.9708,1.9813,2.0374,2.0583,2.0688,2.1306,2.147,2.135,2.0767,2.0583,2.0434,1.9839,1.9708,1.9708,1.9708,1.9708,1.9708,1.9708,1.9708,1.9708,1.9708,1.9708,1.9708,1.9708,1.9708,1.969,1.9621,1.8746,1.8086,1.8027,1.7126,1.65,1.65,1.65,1.65,1.65,1.65,1.65,1.65,1.65,1.6748,1.7285,1.7373,1.7614,1.8103,1.8179,1.8204,1.8204,1.8669,1.8907,1.892,1.9472,1.9409,1.7542,0.0,0.0,0.0,1.9175,1.9374,1.9634,1.9565,1.9395,1.9226,1.9675,2.0126,2.0166,2.0559,2.0867,0.0,2.0702,2.0597,2.0588,2.1046,2.126,2.0936,2.1566,2.1816,2.1243,2.1729,2.2135,2.229,2.2296,2.2296,2.2296,2.2032,2.1794,2.1613,2.1597,2.1399,2.0991,2.1228,2.1134,2.0699,2.0433,2.0212,2.0052,1.9982,1.9856,1.9708,1.9708,1.98,1.9929,1.9764,1.98,1.9929,1.9764,1.9708,1.9708,1.9708,1.9708,1.9708,1.9708,1.9944,2.0333,2.0598,2.0957,2.1335,2.162,2.1695,2.1635,2.1365,2.1291,2.1141,2.0468,2.0288,2.0183,1.9798,1.9708,1.9708,1.9708,1.9708,1.9708,1.9708,1.9708,1.9708,1.9708,1.9708,1.9708,1.9708,1.9043,1.8574,1.8574,1.7907,1.7312,1.6993,1.6701,1.65,1.65,1.65,1.65,1.65,1.6835,1.7137,1.7398,1.8003,1.8455,1.8657,1.8982,1.9133,1.9133,1.9371,1.9648,1.9987,2.0226,2.0363,1.8228,0.0,0.0,1.9376,1.9902,2.0315,2.0137,1.9977,1.988,1.9911,2.0229,2.0623,2.1005,2.1561,2.1935,2.1937,2.1742,2.1562,2.148,2.1946,2.2167,2.1915,2.2823,2.2994,2.1721,2.2272,2.2586,2.2307,2.2296,2.2296,2.2296,2.1988,2.1794,2.1794,2.1794,2.1643,2.1354,2.1522,2.1399,2.0991,2.0516,2.0229,2.0124,1.9821,1.9708,1.9708,1.9708,1.9708,1.9708,1.9708,1.9708,1.9708,1.9708,1.9708,1.9708,1.9708,1.9708,1.9738,1.9899,2.0288,2.0763,2.1122,2.1575,2.1994,2.2173,2.2218,2.2188,2.2009,2.1984,2.1814,2.1156,2.0838,2.0569,2.0094,1.9842,1.9708,1.9708,1.9708,1.9708,1.9708,1.9708,1.9708,1.9708,1.9708,1.9708,1.9708,1.9369,1.9062,1.893,1.8302,1.7727,1.7353,1.6816,1.65,1.65,1.6638,1.676,1.676,1.7287,1.7677,1.7827,1.8581,1.907,1.9208,1.961,1.9798,1.9798,1.9962,2.0289,2.0691,2.0842,2.1219,0.0,0.0,1.9289,2.0077,2.0274,2.0259,2.013,1.9945,1.9994,2.063,2.0617,2.0749,2.1601,2.1784,2.1803,2.1811,2.1803,2.2061,2.2823,2.2969,2.3122,2.3566,2.3947,2.3767,0.0,2.2678,2.2586,2.2307,2.2296,2.2296,2.2296,2.2282,2.2282,2.2282,2.2282,2.2268,2.2268,2.1809,2.1399,2.0991,2.0516,2.0089,1.9711,1.9708,1.9708,1.9708,1.9708,1.9708,1.9708,1.9708,1.9708,1.9708,1.9708,1.9708,1.9708,1.9708,1.9708,1.9798,2.0453,2.0673,2.0897,2.2224,2.2643,2.2778,2.3355,2.3535,2.3415,2.2838,2.2673,2.2523,2.1829,2.1201,2.0688,2.0673,2.0168,1.9708,1.9708,1.9708,1.9708,1.9708,1.9708,1.9708,1.9708,1.9708,1.9708,1.9708,1.969,1.9479,1.8968,1.7987,1.7333,1.7312,1.6816,1.65,1.65,1.7036,1.7373,1.7373,1.7877,1.8417,1.8933,1.8983,1.9246,1.9773,1.9798,1.9798,1.9798,2.039,2.0679,2.0704,2.1245,2.1757,0.0,0.0,1.9922,2.0063,2.0133,2.0131,1.9936,1.9784,1.9886,2.0639,2.1105,2.1653,2.2623,2.3113,2.3446,2.3568,2.3281,2.3079,2.3124,2.3127,2.3045,2.2794,2.3224,0.0,0.0,0.0,0.0,2.2352,2.2296,2.2296,2.2296,2.2296,2.2296,2.2296,2.2296,2.2296,2.2296,2.1823,2.1521,2.1384,2.065,2.0089,1.9708,1.9708,1.9708,1.9708,1.9708,1.9708,1.9708,1.9708,1.9708,1.9708,1.9708,1.9708,1.9708,1.9708,1.9974,2.0408,2.0613,2.1291,2.2104,2.2553,2.2972,2.3347,2.3535,2.3595,2.355,2.334,2.3295,2.3146,2.2538,2.2209,2.1799,2.0897,2.0543,2.0243,1.9813,1.9708,1.9708,1.9708,1.9708,1.9708,1.9708,1.9708,1.9708,1.9708,1.9708,1.9512,1.8968,1.8283,1.7686,1.7353,1.7183,1.7087,1.7087,1.7601,1.7928,1.7928,1.8418,1.8807,1.8995,1.9334,1.9623,1.9798,1.9798,1.9987,2.0402,2.0591,2.1069,2.1757,2.1945,2.2334,0.0,1.9803,2.0142,1.9969,1.9964,1.995,1.9767,1.9874,2.0238,2.1001,2.1732,2.2518,2.344,2.3934,2.4247,2.4366,2.4106,2.3764,2.3426,2.338,2.3183,2.2686,2.2952,2.3002,0.0,0.0,0.0,2.2352,2.2296,2.2296,2.2296,2.2296,2.2296,2.2296,2.2296,2.2223,2.2046,2.1598,2.1228,2.091,2.0348,1.9947,1.9708,1.9708,1.9708,1.9708,1.9708,1.9708,1.9708,1.9708,1.9824,2.0049,2.0049,2.0198,2.0408,2.0408,2.0827,2.138,2.1141,2.1769,2.2733,2.2957,2.3266,2.3595,2.3595,2.3595,2.3595,2.3595,2.3595,2.3505,2.3116,2.2868,2.2478,2.162,2.1231,2.0946,2.0516,2.0408,2.0408,2.0408,2.0408,2.0408,2.0408,2.0408,2.0408,2.0408,2.0408,2.0191,1.962,1.9084,1.8621,1.8272,1.8114,1.7925,1.77,1.8179,1.8481,1.8481,1.8983,1.9284,1.9284,1.9623,1.9899,2.0138,2.0112,2.0415,2.0993,2.1182,2.1619,2.2293,2.2493,2.2769,1.9826,1.9984,1.9968,1.9819,1.9797,1.9756,1.9653,2.0213,2.0971,2.17,2.2419,2.3217,0.0,0.0,2.4161,2.417,2.4161,2.4026,2.3692,2.366,2.3533,0.0,0.0,0.0,0.0,0.0,0.0,2.2324,0.0,2.2296,2.2296,2.2296,2.2296,2.2296,2.2296,2.2092,2.1643,2.1213,2.0565,1.9729,1.9708,1.9708,1.9708,1.9708,1.9708,1.9708,1.9708,1.9708,1.9708,1.9738,2.0124,2.0703,2.0733,2.1141,2.1695,2.1695,2.2134,2.2613,2.1964,2.2194,2.2838,2.34,2.3595,2.3595,2.3595,2.3595,2.3595,2.3595,2.3595,2.3595,2.3595,2.3182,2.2733,2.2703,2.2224,2.1739,2.171,2.1695,2.1695,2.1695,2.1695,2.1695,2.1695,2.1695,2.1695,2.1695,2.1695,2.145,2.0804,2.0274,1.9943,1.9868,1.9436,1.8888,1.8289,1.8719,1.9045,1.9045,1.9522,1.9811,1.9849,1.9849,2.0125,2.0729,2.0729,2.1006,2.1531,2.2058,2.2293,2.2343,2.2895,2.3145,1.9941,1.9933,1.9813,1.9682,1.9662,1.9733,2.0047,2.02,2.0706,2.2173,2.2351,2.265,0.0,0.0,0.0,2.3795,2.3628,0.0,2.3009,2.296,0.0,2.2558,0.0,2.2494,2.2398,2.2398,0.0,0.0,2.2296,2.2296,2.2296,2.2296,2.2296,2.2296,2.2296,2.2237,2.212,2.1369,2.0715,2.0141,1.9839,1.9708,1.9708,1.9708,1.9708,1.9708,1.9708,1.9708,1.9738,2.0243,2.0557,2.0748,2.1261,2.1545,2.1695,2.1695,2.2134,2.2673,2.2508,2.2853,2.3385,2.355,2.3595,2.3595,2.3595,2.3595,2.3595,2.3595,2.3595,2.3595,2.3595,2.349,2.3251,2.2808,2.2568,2.2313,2.1799,2.1695,2.1695,2.1695,2.1695,2.1695,2.1695,2.1695,2.1695,2.1695,2.1695,2.1501,2.0927,2.0735,2.0309,1.9404,1.9575,1.9514,1.8868,1.9296,1.961,1.961,1.9723,1.9987,2.0453,2.0478,2.0729,2.1295,2.1307,2.1556,2.2108,2.2246,2.2493,2.2907,2.3514,2.3778,1.9841,1.9774,1.9663,1.9502,1.9723,2.0055,2.0327,2.078,2.1427,2.2405,2.2579,0.0,0.0,0.0,0.0,0.0,0.0,0.0,2.2746,2.2708,2.2599,0.0,2.2296,0.0,2.2296,2.2296,2.2296,0.0,2.2296,2.2296,2.2296,2.2296,2.2296,2.2296,2.2106,2.1811,2.1431,2.0943,2.0482,2.0035,1.9982,1.9874,1.9708,1.9708,1.9708,1.9708,0.0,1.9872,2.0168,2.0539,2.1051,2.162,2.1999,2.2313,2.2532,2.2532,2.2757,2.3092,2.3092,2.331,2.3595,2.3595,2.3595,2.3595,2.3595,2.3595,2.3595,2.3595,2.3595,2.3595,2.3595,2.3595,2.3505,2.3182,2.3092,2.2981,2.2622,2.2532,2.2532,2.2532,2.2532,2.2532,2.2532,2.2532,2.2532,2.2532,2.2532,2.2414,2.2113,2.159,2.0881,1.9944,2.0157,2.0077,1.9409,1.9874,2.0175,2.0175,2.0413,2.069,2.1043,2.1056,2.1307,2.1845,2.1845,2.2121,2.2644,2.2644,2.2807,2.312,2.3728,2.4004,1.9599,1.9576,1.9539,1.9482,1.9979,2.0549,2.0718,2.1623,2.2455,2.2563,0.0,2.3111,2.3177,2.3129,2.3099,2.3129,0.0,2.2989,2.2686,2.2647,2.2563,2.2321,2.2296,2.2296,2.2296,2.2296,2.2296,2.2296,2.2296,2.2296,2.2296,2.2296,2.2268,2.2209,2.1809,2.1212,2.0399,2.0331,2.0124,1.9782,2.0072,2.0052,1.9708,1.9708,1.9708,1.9708,1.9708,2.0079,2.0703,2.0793,2.1575,2.2703,2.2793,2.3152,2.3595,2.3595,2.3595,2.3595,2.3595,2.3595,2.3595,2.3595,2.3595,2.3595,2.3595,2.3595,2.3595,2.3595,2.3595,2.3595,2.3595,2.3595,2.3595,2.3595,2.3595,2.3595,2.3595,2.3595,2.3595,2.3595,2.3595,2.3595,2.3595,2.3595,2.3595,2.3595,2.3595,2.3573,2.3486,2.2527,2.1606,2.0975,2.0911,2.0639,1.9963,2.0465,2.0805,2.0805,2.1257,2.1518,2.1594,2.1594,2.1857,2.241,2.2422,2.2631,2.3108,2.3108,2.3145,2.3233,2.3841,2.4142,1.9435,1.9485,1.95,2.0134,2.0401,2.0782,2.1903,2.2117,0.0,0.0,0.0,2.2611,2.3111,2.2798,0.0,2.2764,0.0,0.0,0.0,0.0,2.2349,0.0,0.0,0.0,0.0,0.0,0.0,0.0,2.2296,2.2296,2.2296,2.2296,2.212,2.1718,2.1643,2.1368,2.0878,2.05,2.0263,2.0177,1.9927,1.9764,1.9708,1.9708,1.9708,1.9708,1.9708,0.0,2.0733,2.1306,2.1999,2.2748,2.3236,2.3505,2.3595,2.3595,2.3595,2.3595,2.3595,2.3595,2.3595,2.3595,2.3595,2.3595,2.3595,2.3595,2.3595,2.3595,2.3595,2.3595,2.3595,2.3595,2.3595,2.3595,2.3595,2.3595,2.3595,2.3595,2.3595,2.3595,2.3595,2.3595,2.3595,2.3595,2.3595,2.3595,2.3595,2.3421,2.292,2.2676,2.2278,2.1602,2.1481,2.1212,2.0594,2.1056,2.1343,2.1343,2.1443,2.1694,2.2146,2.2171,2.2393,2.2945,2.2957,2.3007,2.3108,2.3108,2.3346,2.3866,2.4418,2.4908,1.8903,1.9115,1.9342,2.0151,2.0669,2.1234,2.2277,0.0,0.0,0.0,0.0,2.2391,2.2673,0.0,0.0,0.0,0.0,0.0,0.0,0.0,0.0,0.0,0.0,0.0,0.0,0.0,0.0,0.0,2.2296,2.2296,2.2296,2.2077,2.1735,2.1291,2.1055,2.0732,2.0328,2.0313,2.0177,1.9982,2.0,1.9909,1.9708,1.9708,1.9902,2.0228,2.0228,2.0797,2.1754,2.2104,2.2598,2.3212,2.349,2.3595,2.3595,2.3595,2.3595,2.3595,2.3595,2.3595,2.3595,2.3595,2.3595,2.3595,2.3595,2.3595,2.3595,2.3595,2.3595,2.3595,2.3595,2.3595,2.3684,2.4044,2.4111,2.4111,2.4111,2.3849,2.3699,2.4036,2.3849,2.3714,2.4073,2.3834,2.3595,2.3595,2.3595,2.3486,2.3224,2.2575,2.2038,2.1677,2.1341,2.114,2.1121,2.1594,2.192,2.192,2.2184,2.2443,2.2706,2.2706,2.2832,2.3095,2.3108,2.3108,2.3108,2.3409,2.3728,2.4017,2.4845,2.536,1.8429,1.8923,1.9443,2.0173,2.0994,2.1808,2.2481,2.2878,0.0,0.0,2.2504,2.2296,2.2296,0.0,0.0,0.0,0.0,0.0,0.0,0.0,0.0,0.0,0.0,0.0,0.0,0.0,0.0,0.0,2.2296,2.2296,2.2296,2.1943,2.1522,2.1023,2.0774,2.0408,1.9932,2.0365,2.0365,1.9932,2.0231,2.0137,1.9708,1.9857,2.0198,2.0703,2.0838,2.159,2.2703,2.2703,2.3062,2.3595,2.3595,2.3595,2.3595,2.3595,2.3595,2.3595,2.3595,2.3595,2.3595,2.3595,2.3595,2.3595,2.3595,2.3699,2.3819,2.3819,2.3924,2.3999,2.3849,2.3819,2.3954,2.447,2.4605,2.4649,2.4784,2.4276,2.4007,2.4679,2.438,2.4208,2.4724,2.4365,2.4029,2.4029,2.4029,2.3985,2.3815,2.2799,2.2076,2.1957,2.1322,2.1094,2.1619,2.2171,2.2543,2.2718,2.2946,2.3198,2.3335,2.3198,2.3108,2.3108,2.3108,2.3158,2.3296,2.3778,2.4117,2.4368,2.5393,2.5948,1.8298,1.9334,2.0209,2.07,2.1616,2.2527,2.3027,0.0,0.0,2.2773,2.2521,2.2296,2.2296,2.2296,0.0,0.0,0.0,0.0,0.0,0.0,0.0,0.0,0.0,0.0,0.0,0.0,0.0,0.0,2.2296,2.2296,2.2296,2.2268,2.1871,2.1039,2.1548,2.1452,2.0617,2.1255,2.124,2.0598,2.0655,2.0325,1.9723,2.0333,2.0643,2.0733,2.1335,2.2009,0.0,2.2703,2.3062,2.3595,2.3595,2.3595,2.3595,2.3595,2.3595,2.3595,2.3595,2.3595,2.3595,2.3595,2.3595,2.3595,2.3595,2.4044,2.4515,2.4515,2.4948,2.5285,2.4664,2.4515,2.453,2.459,2.4605,2.4769,2.5367,2.4978,2.4709,2.5367,2.5465,2.545,2.551,2.5465,2.542,2.542,2.542,2.5171,2.4505,2.3839,2.3358,2.3157,2.2101,2.1631,2.2184,2.2706,2.3348,2.4069,2.3488,2.3424,2.4147,2.3484,2.3108,2.3108,2.3108,2.3358,2.3916,2.3966,2.4494,2.5481,2.6388,2.7026,1.7859,1.8861,1.9819,2.0495,2.1467,2.238,2.2797,0.0,2.2903,2.2575,2.2391,2.2296,2.2296,2.2296,2.2296,2.2296,2.2296,2.2296,0.0,0.0,0.0,0.0,0.0,0.0,0.0,0.0,0.0,2.1899,2.1884,2.1764,2.1539,2.1524,2.1533,2.1598,2.1352,2.1234,2.1306,2.1171,2.0957,2.0703,2.0288,1.9944,1.9723,2.0393,2.0703,2.0763,2.1829,2.2448,0.0,2.3092,2.337,2.3595,2.3595,2.3595,2.3595,2.3595,2.3595,2.3595,2.3595,2.3595,2.3595,2.3595,2.3595,2.3684,2.4066,2.4395,2.4694,2.5083,2.5382,2.5555,2.5262,2.551,2.5704,2.5292,2.5501,2.5884,2.6138,2.5689,2.5397,2.6078,2.5884,2.5734,2.6138,2.5869,2.5615,2.5615,2.5215,2.4839,2.4556,2.3561,2.3004,2.3272,2.2495,2.2209,2.2732,2.2982,2.3245,2.3573,2.3275,2.3245,2.356,2.3275,2.3108,2.3108,2.3446,2.3766,2.4004,2.4644,2.5465,2.6408,2.7072,2.7759,1.7318,1.8407,1.9457,2.0057,2.1158,2.2167,0.0,0.0,2.2824,2.2391,2.2296,2.2268,2.212,2.2209,2.2237,2.212,2.2209,2.2296,2.2296,0.0,0.0,0.0,0.0,0.0,0.0,0.0,2.2106,2.1643,2.1597,2.143,2.1007,2.0862,2.1097,2.1777,2.1384,2.1351,2.1695,2.1425,2.1096,2.0688,2.0228,1.9902,1.9723,2.0393,2.0808,2.1066,2.2209,2.2808,0.0,2.3415,2.3595,2.3595,2.3595,2.3595,2.3595,2.3595,2.3595,2.3595,2.3595,2.3595,2.3595,2.3595,2.3729,2.4007,2.4694,2.4903,2.5038,2.5719,2.5899,2.5899,2.5899,2.6243,2.6467,2.6019,2.6258,2.6632,2.6866,2.6363,2.6093,2.6776,2.6497,2.6333,2.6821,2.6497,2.6111,2.5918,2.5407,2.494,2.4491,2.3568,2.3016,2.322,2.281,2.2681,2.307,2.3305,2.356,2.3754,2.359,2.356,2.3754,2.3335,2.3108,2.3108,2.3703,2.4079,2.4243,2.5407,2.6388,2.7161,2.8045,2.8939,1.6725,1.8078,1.9419,1.9488,2.0813,2.2141,0.0,2.231,2.231,2.2296,2.2296,2.2149,2.1688,2.1988,2.2152,2.1688,2.2003,2.2296,2.2296,0.0,0.0,0.0,0.0,0.0,0.0,0.0,2.2106,2.1643,2.1597,0.0,2.1007,2.055,2.0607,2.1288,2.1929,2.2103,2.1695,2.2358,2.1994,2.0703,2.0688,2.0348,1.9723,2.0393,2.1066,2.1724,2.2403,2.3047,0.0,2.3595,2.3595,2.3595,2.3595,2.3595,2.3595,2.3595,2.3595,2.3595,2.3595,2.3595,2.3595,2.3595,2.4059,2.4709,2.5382,2.56,2.5734,2.6393,2.6572,2.6572,2.6572,2.6587,2.6587,2.6572,2.6587,2.6767,2.745,2.7061,2.6806,2.7465,2.7585,2.7585,2.7585,2.7585,2.7327,2.6587,2.6481,2.5959,2.4496,2.4295,2.3989,2.3185,2.3095,2.3095,2.3108,2.3826,2.4595,2.5315,2.4681,2.4624,2.5342,2.3901,2.3108,2.3108,2.3703,2.4268,2.4775,2.6187,2.7169,2.7723,2.9473,3.0703,1.74,1.8599,1.9805,2.0108,2.1139,2.2144,2.2262,2.2436,2.2527,2.2335,2.2296,2.2237,2.2106,2.2194,2.2152,2.1673,2.2003,0.0,0.0,0.0,0.0,0.0,0.0,0.0,0.0,0.0,2.1506,2.0765,2.0699,2.0533,2.0122,1.998,2.0518,2.1945,2.1477,2.1773,2.2981,2.1889,2.1575,2.2059,2.0662,2.0154,2.0393,2.0598,2.0572,2.0427,2.2014,2.2553,2.2368,2.3236,2.3595,2.3595,2.3595,2.3595,2.3595,2.3595,2.3595,2.3595,2.3595,2.3595,2.3595,2.3595,2.4036,2.4724,2.5397,2.5929,2.6422,2.7106,2.7285,2.718,2.6707,2.6941,2.7165,2.6692,2.6956,2.7345,2.754,2.7435,2.7345,2.7555,2.76,2.76,2.76,2.7178,2.6774,2.6537,2.5646,2.4823,2.435,2.3826,2.3603,2.3884,2.3914,2.3914,2.3914,2.4147,2.4595,2.5342,2.5056,2.4789,2.4637,2.4407,2.4073,2.3728,2.4619,2.5172,2.5347,2.6771,2.8155,2.9504,3.0614,3.1486,0.0,1.8716,1.9813,2.0205,2.1125,2.1977,2.2234,2.244,2.25,2.2335,2.2296,2.2194,2.1871,2.2077,2.2049,2.1228,2.1628,2.1928,0.0,0.0,0.0,0.0,0.0,0.0,0.0,2.1818,2.1243,2.0365,2.0297,2.0124,1.9711,1.9708,2.0315,2.1648,2.105,2.1271,2.2488,2.1301,2.0991,2.155,2.0307,1.9914,2.0333,2.0583,2.0617,2.0546,2.2044,2.2598,0.0,2.3266,2.3595,2.3595,2.3595,2.3595,2.3595,2.3595,2.3595,2.3595,2.3595,2.3595,2.364,2.3909,2.459,2.5495,2.6153,2.6632,2.7061,2.748,2.76,2.7495,2.7091,2.7285,2.7495,2.7091,2.73,2.76,2.76,2.76,2.76,2.76,2.76,2.76,2.76,2.6982,2.6404,2.6122,2.5063,2.4205,2.3884,2.3679,2.3738,2.4263,2.4767,2.5204,2.5489,2.5517,2.5798,2.6497,2.613,2.5743,2.541,2.5016,2.4625,2.4318,2.5159,2.5752,2.6081,2.7822,2.9523,3.1128,3.1649,3.2228,0.0,1.8613,1.9528,1.9969,2.0804,2.1643,2.2135,2.224,0.0,2.2209,2.2209,2.1959,2.115,2.166,2.1796,2.0516,2.1039,2.1602,0.0,0.0,0.0,0.0,0.0,0.0,2.2992,2.2135,2.1214,2.0314,2.0263,2.0089,1.9711,1.9708,1.9989,2.0598,2.0628,2.0688,2.0838,2.0703,2.0393,1.9917,1.9768,1.9723,1.9798,2.0423,2.1002,0.0,2.2373,2.3002,0.0,2.3565,2.3595,2.3595,2.3595,2.3595,2.3595,2.3595,2.3595,2.361,2.3655,2.367,2.3789,2.4515,2.5576,2.6746,2.7405,2.76,2.76,2.76,2.76,2.76,2.76,2.76,2.76,2.76,2.76,2.76,2.76,2.76,2.76,2.76,2.76,2.7575,2.7524,2.6904,2.6203,2.5508,2.4766,2.406,2.3365,2.3914,2.4421,2.4518,2.5708,2.6821,2.7631,2.7629,2.7804,2.8367,2.7677,2.7219,2.7104,2.5706,2.4888,2.4838,2.5451,2.6165,2.7059,2.9237,3.1069,3.2512,3.2512,3.2886,1.9271,0.0,1.9821,2.0575,2.0686,2.0797,0.0,2.1539,0.0,0.0,0.0,2.1245,2.1039,2.1166,2.1086,2.0416,2.1191,2.1599,0.0,0.0,0.0,0.0,2.3584,2.2736,2.1798,2.1504,2.0957,1.9919,1.9839,1.98,1.9708,1.9708,1.9768,1.9929,1.9947,2.0662,2.2224,2.0711,2.0636,2.1984,2.0441,1.9959,2.0483,2.0628,2.0513,2.0262,2.1969,2.2493,2.2218,2.3191,2.3595,2.3595,2.3595,2.3595,2.3595,2.3595,2.3595,2.367,2.4186,2.4365,2.456,2.5749,2.6333,2.6746,2.7405,2.76,2.76,2.76,2.76,2.76,2.76,2.76,2.76,2.76,2.76,2.76,2.76,2.76,2.76,2.76,2.76,2.7408,2.6852,2.6149,2.5591,2.5425,2.4766,2.4423,2.4809,2.5007,2.5549,2.6637,2.7043,2.7946,2.965,2.882,2.8223,2.8311,2.7994,2.7342,2.6258,2.6147,2.5862,2.5423,2.6593,2.7656,2.8511,2.9726,3.1069,3.2512,3.2512,3.314,1.9708,1.9821,2.0087,2.0565,2.0649,2.0732,2.1228,0.0,0.0,0.0,0.0,0.0,2.0715,0.0,0.0,2.0124,2.0708,0.0,0.0,0.0,0.0,0.0,2.4142,2.3331,0.0,2.1818,2.144,2.067,2.0621,2.0468,2.0183,2.0154,2.0019,1.9708,1.9708,2.0232,2.131,2.0247,2.0412,2.1754,2.0382,2.0049,2.0703,2.0703,2.0513,2.0243,2.1969,2.2493,2.2239,2.3191,2.3595,2.3595,2.3595,2.3595,2.3595,2.3595,2.3595,2.3699,2.4365,2.4993,2.5644,2.6363,2.6821,2.7136,2.748,2.76,2.76,2.76,2.76,2.76,2.76,2.76,2.76,2.76,2.76,2.76,2.76,2.76,2.7484,2.7178,2.71,2.7085,2.6965,2.6356,2.6078,2.668,2.6142,2.5838,2.6227,2.6582,2.7073,2.7821,2.85,2.9163,2.9882,2.9522,2.9261,2.9217,2.8357,2.7519,2.6767,2.6585,2.6348,2.6034,2.7532,2.8524,2.9002,3.0557,3.187,3.2976,3.3275,3.3963,1.9708,1.9962,2.0212,2.028,2.055,2.0813,0.0,0.0,0.0,0.0,0.0,0.0,0.0,0.0,0.0,0.0,0.0,0.0,0.0,0.0,0.0,2.4913,2.4751,0.0,2.2812,2.2489,2.2186,2.1734,2.1605,2.1306,2.0718,2.0598,2.0288,1.9723,1.9708,1.9708,1.9708,1.9708,2.0034,2.0688,2.0124,2.0154,2.0703,2.0812,2.0793,2.0763,0.0,0.0,2.2448,2.3182,2.346,2.3475,2.3565,2.3595,2.3595,2.3595,2.3595,2.3714,2.447,2.563,2.6761,2.6761,2.7151,2.76,2.76,2.76,2.76,2.76,2.76,2.76,2.76,2.76,2.76,2.76,2.76,2.76,2.76,2.76,2.7382,2.6642,2.6676,2.6934,2.7263,2.6976,2.7088,2.8239,2.7867,2.7505,2.7636,2.8197,2.8608,2.871,2.9771,3.0227,2.9521,2.9862,3.0042,2.9919,2.8524,2.7637,2.7517,2.685,2.6555,2.6692,2.8214,2.9107,2.9348,3.1465,3.2901,3.3664,3.4249,3.4846,1.9708,1.9747,1.9874,2.0212,2.0089,1.9997,0.0,0.0,0.0,0.0,0.0,0.0,0.0,0.0,0.0,0.0,0.0,0.0,0.0,0.0,2.3229,2.3782,0.0,2.3495,2.2768,2.266,2.2395,2.1759,2.1171,2.0808,2.0703,2.0168,1.9813,1.9708,1.9708,1.9708,1.9708,1.9708,2.0034,2.0703,2.0598,2.0598,2.0718,2.1291,2.1246,2.0733,0.0,2.153,2.1111,2.2343,2.2838,2.2897,2.3385,2.3595,2.3595,2.3595,2.3595,2.3774,2.5031,2.6318,2.745,2.745,2.751,2.76,2.76,2.76,2.76,2.76,2.76,2.76,2.76,2.76,2.76,2.76,2.76,2.76,2.76,2.76,2.7382,2.6642,2.7477,2.79,2.6779,2.7428,2.8167,2.8381,2.8311,2.8495,2.9153,2.9332,2.9622,3.0116,3.0376,3.0405,3.0171,2.9541,2.8876,2.8149,2.7855,2.7384,2.6714,2.6555,2.6816,2.7517,2.8492,2.9617,3.0848,3.1958,3.314,3.4354,3.4459,3.4846,1.9708,1.9708,1.9747,1.9927,1.9839,0.0,0.0,0.0,0.0,0.0,0.0,0.0,0.0,0.0,0.0,0.0,0.0,0.0,2.3366,2.358,2.3733,0.0,0.0,2.38,2.3248,2.3197,2.3056,2.2742,2.2143,2.1769,2.1769,2.1141,2.0767,2.0767,2.0423,2.0243,2.0243,2.0243,2.0408,2.0703,2.0333,2.0543,2.1246,2.1186,2.1201,2.1261,0.0,2.1724,2.1814,2.2448,2.2897,2.3206,2.349,2.3595,2.3595,2.3595,2.4059,2.4777,2.539,2.6467,2.76,2.76,2.76,2.76,2.76,2.76,2.76,2.76,2.76,2.76,2.76,2.76,2.76,2.76,2.76,2.76,2.76,2.76,2.7486,2.7118,2.7557,2.8006,2.8026,2.8541,2.9203,2.997,3.0086,3.0215,3.0571,3.0642,3.0746,3.1002,3.1032,3.066,2.9676,2.9223,2.8427,2.7129,2.704,2.6871,2.6521,2.6499,2.6871,2.767,2.8556,2.9736,3.1193,3.2448,3.3529,3.4518,3.4861,3.5205,1.9512,1.9512,1.9512,0.0,0.0,0.0,0.0,0.0,0.0,0.0,0.0,0.0,0.0,0.0,0.0,0.0,0.0,2.3193,2.3411,2.3882,2.4204,2.4204,2.4204,2.4053,2.3638,2.3595,2.3595,2.3595,2.3047,2.2703,2.2703,2.1924,2.1545,2.1695,2.0902,2.0539,2.0703,2.0539,2.0483,2.0449,2.0258,2.0707,2.168,2.1171,2.1306,2.1924,2.1605,2.1844,2.2463,2.2463,2.2838,2.34,2.3535,2.3595,2.3625,2.3789,2.4582,2.563,2.5779,2.6602,2.76,2.76,2.76,2.76,2.76,2.76,2.76,2.76,2.76,2.76,2.76,2.76,2.76,2.76,2.76,2.7645,2.7809,2.7839,2.7813,2.7739,2.7985,2.8475,2.9262,2.9682,3.0265,3.1334,3.1511,3.1511,3.1511,3.1511,3.1511,3.1511,3.1322,3.0524,2.8844,2.8524,2.7855,2.6589,2.6499,2.6499,2.6499,2.6692,2.7162,2.7986,2.8999,3.0262,3.1749,3.3088,3.4068,3.4758,3.525,3.5504,1.8968,1.8968,1.8968,0.0,0.0,0.0,0.0,0.0,0.0,0.0,0.0,0.0,0.0,0.0,0.0,0.0,0.0,2.4122,2.3649,0.0,2.3659,2.3659,2.3659,2.3638,2.3595,2.3595,2.3595,2.3595,2.3047,2.2703,2.2703,2.147,2.1066,2.168,2.0456,2.0064,2.0688,2.0079,1.9768,1.9798,2.0976,2.1605,2.1695,2.165,2.1979,2.2568,2.1321,2.1156,2.1769,2.1769,2.2164,2.2823,2.337,2.3595,2.3684,2.4291,2.4978,2.5689,2.6303,2.7001,2.76,2.76,2.76,2.76,2.76,2.76,2.76,2.76,2.76,2.76,2.76,2.76,2.76,2.76,2.76,2.7764,2.8382,2.8532,2.8485,2.8362,2.9382,3.0093,2.9508,3.0469,3.1378,3.1496,3.1511,3.1511,3.1511,3.1511,3.1511,3.1511,3.0837,2.9659,2.7953,2.7095,2.6624,2.6499,2.6499,2.6499,2.6499,2.7229,2.8019,2.8907,3.0321,3.1809,3.3348,3.4083,3.4756,3.5429,3.5489,3.5504,1.8893,1.8893,0.0,0.0,0.0,0.0,0.0,0.0,0.0,0.0,0.0,0.0,0.0,0.0,0.0,0.0,2.4178,2.3948,2.4074,2.3815,2.3595,2.3595,2.3595,2.3595,2.3595,2.3595,2.3595,2.3595,2.3047,2.2868,2.3236,2.2413,2.2074,2.2313,2.1834,2.1295,2.0703,2.0857,2.0531,1.9708,2.0198,2.0887,2.168,2.1276,2.1665,2.2643,2.1724,2.1695,2.2328,2.2328,2.2703,2.3266,2.3505,2.3595,2.3684,2.435,2.5023,2.5704,2.6363,2.7046,2.76,2.76,2.76,2.76,2.76,2.76,2.76,2.76,2.76,2.76,2.76,2.76,2.76,2.76,2.76,2.7779,2.8457,2.8607,2.8812,2.9563,3.0145,3.0542,3.0687,3.1143,3.1511,3.1511,3.1511,3.1511,3.1511,3.1511,3.1307,3.0807,2.9504,2.8427,2.7769,2.6973,2.6499,2.6499,2.6499,2.6714,2.7229,2.7945,2.8969,3.0335,3.1309,3.2589,3.4098,3.4384,3.4831,3.5504,3.5504,3.5504,1.8893,1.8893,0.0,0.0,0.0,0.0,0.0,0.0,0.0,0.0,0.0,0.0,0.0,0.0,0.0,0.0,2.4471,2.4116,2.4142,2.3837,2.3595,2.3595,2.3595,2.3595,2.3595,2.3595,2.3595,2.3595,2.3227,2.3167,2.358,2.2838,2.2478,2.2688,2.2089,2.1395,2.0703,2.0946,2.0621,1.9708,1.9708,2.0288,2.1365,2.0897,2.144,2.2658,2.1999,2.2173,2.2972,2.2778,2.3062,2.3595,2.3595,2.3595,2.3714,2.459,2.5202,2.5734,2.6602,2.7225,2.76,2.76,2.76,2.76,2.76,2.76,2.76,2.76,2.76,2.76,2.76,2.76,2.7645,2.7869,2.7929,2.8154,2.9011,2.9205,2.952,3.0612,3.0836,3.0957,3.1421,3.1511,3.1511,3.1511,3.1511,3.1409,3.1161,3.1117,3.0703,2.9597,2.8395,2.7604,2.7351,2.704,2.6782,2.6521,2.6913,2.7186,2.733,2.8478,2.9657,3.0817,3.2217,3.3444,3.4503,3.4728,3.504,3.5504,3.5504,3.5504,1.8893,0.0,0.0,0.0,0.0,0.0,0.0,0.0,0.0,0.0,0.0,0.0,0.0,0.0,0.0,2.4402,2.4835,2.4816,2.3752,2.3595,2.3595,2.3595,2.3595,2.3595,2.3595,2.3595,2.3595,2.3595,2.3595,2.3595,2.3595,2.2398,2.1994,2.2658,2.0756,2.0034,2.0673,2.0034,1.9708,1.9708,1.9708,2.0049,2.0703,2.0703,2.1425,2.2643,2.1994,2.2428,2.355,2.2957,2.3062,2.3595,2.3595,2.3595,2.3774,2.5121,2.5615,2.5809,2.7151,2.76,2.76,2.76,2.76,2.76,2.76,2.76,2.76,2.76,2.76,2.76,2.76,2.76,2.7779,2.8442,2.8607,2.8951,3.0223,3.0507,3.0717,3.1376,3.1511,3.1511,3.1511,3.1511,3.1511,3.1511,3.1511,3.119,3.0389,3.0269,2.9597,2.7887,2.7703,2.7384,2.6555,2.7229,2.7351,2.6568,2.7755,2.791,2.6593,2.8792,3.0012,3.0044,3.3001,3.4518,3.4518,3.5175,3.5504,3.5504,3.5504,3.5504,1.8798,0.0,0.0,0.0,0.0,0.0,0.0,0.0,0.0,0.0,0.0,0.0,0.0,0.0,0.0,2.547,2.5028,2.4532,2.4204,2.3837,2.3595,2.3595,2.3595,2.3595,2.3595,2.3595,2.3595,2.3595,2.3595,2.3415,2.3002,2.2613,2.2074,2.1321,2.164,2.1235,2.0004,2.0722,2.0636,1.9708,1.9708,2.0049,2.0703,2.0703,2.1171,2.1994,2.2283,2.2628,2.2987,2.3242,2.343,2.3595,2.3595,2.3894,2.441,2.5277,2.5899,2.6422,2.73,2.76,2.76,2.76,2.76,2.76,2.76,2.76,2.76,2.76,2.76,2.76,2.76,2.7959,2.8353,2.8547,2.8607,2.8951,3.0223,3.0507,3.0717,3.1376,3.1511,3.1511,3.1511,3.1511,3.1307,3.0748,3.0644,3.0359,2.9504,2.8844,2.8266,2.7769,2.7196,2.6748,2.6521,2.6714,2.6925,2.7052,2.7449,2.8049,2.8931,3.0451,3.1891,3.3138,3.4518,3.519,3.519,3.54,3.5504,3.5504,3.5504,3.5504,1.8802,0.0,0.0,0.0,0.0,0.0,0.0,0.0,0.0,0.0,0.0,0.0,0.0,0.0,0.0,2.4984,2.4642,2.4235,2.38,2.3643,2.3595,2.3595,2.3595,2.3595,2.3595,2.3595,2.3595,2.3595,2.3595,2.3325,2.2733,2.2448,2.1799,2.0733,2.1235,2.0936,1.9708,2.0501,2.0501,1.9708,1.9708,2.0049,2.0703,2.0703,2.1081,2.1739,2.2673,2.3062,2.3092,2.3445,2.3595,2.3595,2.3595,2.4007,2.4679,2.5337,2.6019,2.6692,2.736,2.76,2.76,2.76,2.76,2.76,2.76,2.76,2.76,2.76,2.76,2.76,2.76,2.8109,2.8667,2.8921,2.9175,2.9639,3.0658,3.0883,3.1017,3.1421,3.1511,3.1511,3.1511,3.1219,3.0866,3.0359,2.969,2.9097,2.8556,2.7769,2.7229,2.7229,2.6782,2.6499,2.6499,2.6972,2.7309,2.7291,2.8357,2.951,3.0685,3.1411,3.2495,3.395,3.4969,3.5504,3.5504,3.5504,3.5504,3.5504,3.51,3.4905,0.0,0.0,0.0,0.0,0.0,0.0,0.0,0.0,0.0,0.0,0.0,0.0,0.0,0.0,2.477,2.3557,2.3887,2.3933,2.2846,2.3182,2.3535,2.3595,2.3595,2.3595,2.3595,2.3595,2.3595,2.3595,2.3595,2.3295,2.2643,2.2104,2.1455,2.0718,2.0168,1.9857,1.9798,1.9798,1.9768,1.9708,1.9708,2.0049,2.0703,2.0763,2.1201,2.1934,2.3101,2.3595,2.3595,2.3595,2.364,2.3684,2.3625,2.4066,2.4844,2.5397,2.6063,2.6791,2.739,2.76,2.76,2.76,2.76,2.76,2.76,2.76,2.76,2.76,2.76,2.76,2.7675,2.8173,2.8861,2.9505,3.0103,3.0687,3.1361,3.1511,3.1511,3.1511,3.1511,3.1467,3.1409,3.0777,3.0238,3.0072,2.8652,2.7604,2.7703,2.7074,2.6658,2.6714,2.6658,2.6636,2.6687,2.7713,2.8153,2.7632,3.0046,3.1654,3.1986,3.1986,3.2444,3.3376,3.4789,3.5504,3.5504,3.5504,3.5457,3.5359,3.4428,3.3993,0.0,0.0,0.0,0.0,0.0,0.0,0.0,0.0,0.0,0.0,0.0,0.0,0.0,2.4571,2.4507,2.3349,2.3418,2.3409,2.2786,2.2808,2.3077,2.3535,2.3595,2.3595,2.3595,2.3595,2.3595,2.3595,2.3595,2.3101,2.1984,2.2283,2.1934,2.0733,2.1066,2.1021,2.0498,2.0479,2.0228,1.9708,1.9708,2.0049,2.0718,2.1246,2.2113,2.3206,2.3475,2.3595,2.3595,2.3595,2.3924,2.4335,2.3804,2.4642,2.6123,2.5749,2.6363,2.7405,2.754,2.76,2.76,2.76,2.76,2.76,2.76,2.76,2.76,2.76,2.76,2.772,2.8233,2.8876,2.952,3.0163,3.0417,3.0687,3.1361,3.1511,3.1511,3.1511,3.1511,3.1307,3.0673,3.0419,2.9858,2.846,2.7384,2.7007,2.7604,2.7537,2.7703,2.8395,2.7855,2.762,2.8038,2.7751,2.819,2.9653,3.0325,3.1523,3.3457,3.3539,3.4008,3.499,3.5317,3.5504,3.5504,3.5504,3.51,3.4312,3.4095,3.3993,0.0,0.0,0.0,0.0,0.0,0.0,0.0,0.0,0.0,0.0,0.0,0.0,2.372,2.3897,2.3619,2.2507,2.2483,2.2499,2.2264,2.2508,2.2927,2.3535,2.3595,2.3595,2.3595,2.3595,2.3595,2.3595,2.3325,2.2748,2.1739,2.1724,2.1276,2.0258,2.0872,2.1051,2.0703,2.1021,2.0842,2.0183,2.0498,2.1006,2.1665,2.2009,2.2697,2.3595,2.3595,2.3595,2.3595,2.3595,2.3819,2.4081,2.3744,2.4627,2.6078,2.5734,2.6437,2.76,2.76,2.76,2.76,2.76,2.76,2.76,2.76,2.76,2.766,2.8004,2.8094,2.814,2.8393,2.9248,3.002,2.9924,3.0448,3.1062,3.1421,3.1511,3.138,3.0999,3.0925,3.0644,2.9827,2.9317,2.862,2.7317,2.6782,2.6782,2.7604,2.7703,2.8158,2.9339,2.865,2.8511,2.9592,2.8682,2.8941,3.0926,3.1294,3.2219,3.3945,3.4461,3.4953,3.5504,3.5504,3.5504,3.5504,3.5019,3.4509,3.3993,3.3066,3.289,0.0,0.0,0.0,0.0,0.0,0.0,0.0,0.0,0.0,0.0,0.0,2.2809,2.3406,2.3189,2.2563,2.1463,2.1428,2.156,2.168,2.2179,2.2793,2.3505,2.3595,2.3595,2.3595,2.3595,2.355,2.3445,2.2987,2.2358,2.1575,2.1111,2.0617,2.0067,2.0483,2.0748,2.0868,2.1321,2.1261,2.0703,2.15,2.2164,2.2703,2.2808,2.3137,2.3595,2.3595,2.3595,2.3595,2.3595,2.367,2.3774,2.3774,2.4597,2.5779,2.5779,2.6542,2.76,2.76,2.76,2.76,2.76,2.76,2.76,2.76,2.76,2.775,2.8412,2.8487,2.8423,2.8622,2.9359,2.997,2.958,3.0382,3.1322,3.1467,3.1511,3.1248,3.045,3.0042,2.9628,2.8907,2.8051,2.7263,2.6589,2.6499,2.685,2.7802,2.8013,2.8714,3.0265,2.9673,2.974,3.1244,3.0152,3.0181,3.2055,3.2612,3.3276,3.4211,3.5067,3.5504,3.5504,3.5504,3.5504,3.5504,3.4658,3.4095,3.3705,3.2177,3.1852,0.0,0.0,0.0,0.0,0.0,0.0,0.0,0.0,0.0,0.0,2.2276,2.226,2.1969,2.2037,2.1782,2.0631,2.0676,2.1051,2.162,2.1769,2.2263,2.346,2.3595,2.3595,2.3595,2.3595,2.337,2.2868,2.2748,2.2164,2.0897,2.1306,2.153,2.144,2.0961,2.0991,2.156,2.1081,2.0778,2.0718,2.1984,2.2613,2.2718,2.3236,2.352,2.3595,2.3595,2.3595,2.3595,2.3595,2.3954,2.447,2.447,2.53,2.6452,2.6452,2.6956,2.76,2.76,2.76,2.76,2.76,2.76,2.76,2.76,2.76,2.775,2.8412,2.8057,2.7911,2.9724,2.9261,2.8626,2.9875,3.0332,3.0644,3.1351,3.1511,3.1248,3.045,2.9097,2.8019,2.7887,2.7196,2.6624,2.6521,2.6499,2.7074,2.862,2.9329,3.0333,3.1987,3.1884,3.2011,3.2782,3.1957,3.2069,3.3616,3.3765,3.4259,3.5246,3.5439,3.5504,3.5504,3.5504,3.5504,3.5504,3.5359,3.4442,3.2784,3.2522,3.25,0.0,0.0,0.0,0.0,0.0,0.0,0.0,0.0,0.0,2.3015,2.3082,2.2709,2.1484,2.1149,2.0808,2.008,2.0074,2.0378,2.1051,2.1455,2.2039,2.2987,2.3385,2.3595,2.3595,2.3595,2.349,2.3206,2.2897,2.2283,2.1321,2.1186,2.0976,2.0587,2.0662,2.0838,2.1141,2.1231,2.1455,2.1814,2.2418,2.2882,2.3206,2.3475,2.3595,2.3595,2.3595,2.3595,2.3625,2.4014,2.4335,2.4649,2.5008,2.5749,2.6587,2.6587,2.7031,2.76,2.76,2.76,2.76,2.76,2.76,2.76,2.76,2.7869,2.8319,2.8966,2.9127,2.9182,2.9562,2.9462,2.9198,2.8902,2.9223,2.9659,3.0011,3.0494,3.0419,2.9097,2.7855,2.704,2.704,2.6714,2.6499,2.6499,2.6499,2.7095,2.878,2.9592,3.0782,3.2824,3.2855,3.2947,3.3547,3.229,3.2176,3.3896,3.3518,3.3891,3.5439,3.5504,3.5504,3.5504,3.5504,3.5504,3.5504,3.4953,3.3973,3.2593,3.2069,3.1815,0.0,0.0,0.0,0.0,0.0,0.0,0.0,0.0,2.3134,0.0,2.3435,2.294,2.1593,2.1031,2.0619,2.005,2.0207,2.0575,2.113,2.1738,2.232,2.2873,2.3325,2.3595,2.3595,2.3595,2.3535,2.337,2.2957,2.2418,2.1739,2.1066,2.0557,2.0232,2.0543,2.0703,2.0703,2.1365,2.2044,2.2703,2.2868,2.3167,2.3595,2.3595,2.3595,2.3595,2.3595,2.3595,2.3655,2.4321,2.4605,2.4694,2.554,2.6153,2.6617,2.6806,2.718,2.76,2.76,2.76,2.76,2.76,2.76,2.76,2.76,2.8079,2.8674,2.9127,2.9554,2.974,2.9149,2.916,2.9066,2.7953,2.8214,2.8716,2.8939,2.9348,2.9254,2.7953,2.704,2.6499,2.6499,2.6499,2.6499,2.6499,2.6612,2.7314,2.9031,2.9951,3.1292,3.3524,3.3495,3.3504,3.395,3.25,3.2141,3.3567,3.3206,3.3616,3.5067,3.5359,3.5504,3.5504,3.5504,3.5504,3.5504,3.4495,3.3518,3.2558,3.1646,3.1217,0.0,0.0,0.0,0.0,0.0,0.0,0.0,0.0,0.0,2.2887,2.2687,2.2341,2.2241,2.2207,2.1857,2.0809,2.1549,2.2344,2.2575,2.3015,2.3365,2.3524,2.358,2.3595,2.3595,2.3595,2.3355,2.2793,2.2718,2.2418,2.1739,2.1066,2.0991,2.1575,2.1002,2.0703,2.0703,2.1365,2.2044,2.2703,2.3266,2.3565,2.3595,2.3595,2.3595,2.3595,2.3595,2.3595,2.3655,2.4321,2.4605,2.4724,2.6033,2.6557,2.6686,2.7315,2.757,2.76,2.76,2.76,2.76,2.76,2.76,2.76,2.76,2.8079,2.8568,2.842,2.8261,2.826,2.885,2.7855,2.6871,2.7537,2.7736,2.7986,2.8812,2.8395,2.7802,2.7736,2.704,2.6499,2.6499,2.6499,2.6499,2.6499,2.6939,2.7893,2.9728,3.0981,3.241,3.4239,3.4156,3.395,3.3993,3.3101,3.2558,3.2664,3.3449,3.3993,3.4061,3.4986,3.5504,3.5504,3.5504,3.5504,3.5504,3.4495,3.3518,3.2558,3.1646,3.1217,0.0,0.0,0.0,0.0,0.0,0.0,0.0,2.228,2.2803,2.3189,2.3464,2.3414,2.2692,2.2208,2.1786,2.14,2.1691,2.1991,2.2049,2.2566,2.2975,2.3023,2.3355,2.3595,2.3595,2.3595,2.3505,2.3281,2.3287,2.2996,2.2388,2.2119,2.1889,2.1695,2.147,2.1335,2.1335,2.1994,2.2463,2.2703,2.3295,2.3595,2.3595,2.3595,2.3595,2.3595,2.3595,2.3595,2.3684,2.4807,2.5232,2.5367,2.6731,2.724,2.727,2.751,2.76,2.76,2.76,2.76,2.76,2.76,2.76,2.7675,2.8124,2.8697,2.9193,2.9001,2.9197,2.9254,2.8405,2.7736,2.7196,2.6973,2.6939,2.704,2.7317,2.7162,2.6939,2.6939,2.6679,2.6499,2.6499,2.6939,2.7263,2.7263,2.8291,2.9473,3.0627,3.188,3.2925,3.3529,3.4424,3.4225,3.2357,3.2996,3.2996,3.1779,3.3136,3.3993,3.3993,3.4953,3.5504,3.5504,3.5504,3.518,3.4543,3.4177,3.3206,3.1669,3.1352,3.0871,0.0,0.0,0.0,0.0,0.0,0.0,0.0,0.0,2.2805,2.3339,2.3815,2.391,2.314,2.2478,2.2044,2.2044,2.237,2.2531,2.2364,2.2883,2.3196,2.3023,2.3355,2.3595,2.3595,2.3595,2.3595,2.3595,2.3595,0.0,2.3032,2.2604,2.2152,2.1704,2.1699,2.1799,2.2024,2.2478,2.2703,2.2703,2.3295,2.3595,2.3595,2.3595,2.3595,2.3595,2.3595,2.3595,2.3699,2.5061,2.5615,2.5734,2.7091,2.76,2.76,2.76,2.76,2.76,2.76,2.76,2.76,2.76,2.76,2.772,2.8397,2.8854,2.9119,2.8911,2.9132,2.9097,2.767,2.7284,2.7162,2.6624,2.6499,2.6499,2.6499,2.6499,2.6499,2.6499,2.6499,2.6589,2.685,2.7351,2.7769,2.794,2.9026,3.0074,3.083,3.1853,3.2635,3.2902,3.3879,3.3616,3.1389,3.2629,3.2855,3.1278,3.2961,3.3993,3.3993,3.4953,3.5504,3.5504,3.5166,3.4509,3.3518,3.3518,3.2749,3.118,3.0871,3.0558,0.0,0.0,0.0,0.0,0.0,0.0,0.0,0.0,2.2024,2.3281,2.3565,2.358,2.3595,2.3122,2.2718,2.2718,2.3641,2.4168,2.3681,2.4053,2.4163,2.3659,2.3595,2.3595,2.3595,2.3595,2.3595,2.3595,2.3595,2.3595,2.3595,2.2425,2.1765,2.1765,2.1748,2.2054,2.2718,2.2718,2.2718,2.2733,2.331,2.3595,2.3595,2.3595,2.3595,2.3595,2.3595,2.3595,2.3699,2.5061,2.5615,2.5734,2.7091,2.76,2.76,2.76,2.76,2.76,2.76,2.76,2.76,2.76,2.76,2.775,2.8371,2.846,2.8268,2.803,2.7853,2.7517,2.6714,2.6499,2.6499,2.6499,2.6499,2.6499,2.6499,2.6499,2.6499,2.6499,2.6521,2.6782,2.7571,2.7736,2.7954,2.8462,2.9069,2.9711,3.0355,3.0947,3.1609,3.25,3.2629,3.2285,3.1315,3.2105,3.2249,3.1278,3.2996,3.3993,3.3993,3.4953,3.5504,3.5472,3.4509,3.3518,3.2558,3.2558,3.2069,3.1143,3.0241,3.0343,1.9708,0.0,0.0,0.0,0.0,0.0,0.0,0.0,2.1196,2.2054,2.2613,2.3092,2.352,2.346,2.334,2.334,2.3248,2.326,2.3556,2.373,2.3773,2.3616,2.3595,2.3595,2.3595,2.3595,2.3595,0.0,2.3595,2.3595,2.3595,2.3279,2.3067,2.3067,2.3076,2.3161,2.334,2.334,2.334,2.334,2.352,2.3595,2.3595,2.3595,2.3595,2.3595,2.3595,2.3595,2.3699,2.5061,2.5615,2.5734,2.7091,2.76,2.76,2.76,2.76,2.76,2.76,2.76,2.76,2.76,2.7944,2.826,2.7905,2.8392,2.8766,2.7569,2.7449,2.7517,2.6714,2.6499,2.6499,2.6499,2.6499,2.6499,2.6499,2.6499,2.6499,2.6499,2.6973,2.7451,2.767,2.8748,2.9544,2.9444,3.0543,3.1322,3.1293,3.2409,3.3066,3.2629,3.3871,3.4007,3.2357,3.3066,3.3206,3.2285,3.3345,3.3993,3.3993,3.4953,3.5166,3.4428,3.4129,3.3206,3.1609,3.1609,3.1119,3.0216,3.062,3.1328,0.0,0.0,0.0,0.0,0.0,0.0,0.0,2.0423,2.0882,0.0,2.1994,2.2478,2.3122,2.2996,2.2981,2.3505,2.3092,2.2912,2.3505,2.3595,2.3595,2.3595,2.3595,2.3595,2.3595,2.3595,2.3595,2.3595,2.3595,2.3486,2.3246,2.3209,2.3209,2.3209,2.3465,2.3595,2.3595,2.3595,2.3595,2.3595,2.3595,2.3595,2.3595,2.3595,2.3595,2.3595,2.3595,2.3595,2.3699,2.5061,2.5615,2.5734,2.7091,2.76,2.76,2.76,2.76,2.76,2.76,2.7408,2.7137,2.7137,2.7417,2.7671,2.7454,2.7838,2.8176,2.7429,2.7223,2.7095,2.6624,2.6499,2.6499,2.6499,2.6499,2.6499,2.6499,2.6499,2.6499,2.6499,2.6871,2.7417,2.8117,2.9097,2.9777,2.9803,3.0741,3.1221,3.0552,3.1831,3.2629,3.2069,3.3719,3.4109,3.2177,3.3241,3.3602,3.2664,3.3484,3.4211,3.461,3.518,3.5019,3.4027,3.3636,3.25,3.062,3.1007,3.0733,2.983,3.1156,3.2069,0.0,0.0,0.0,0.0,0.0,0.0,2.0483,2.0643,2.0868,0.0,2.159,2.1784,2.2463,2.2104,2.2069,2.3206,2.3002,2.2912,2.3505,2.3595,2.3595,2.3595,2.3595,2.3595,2.3595,2.3595,2.3595,2.3595,2.3595,2.3334,2.2717,2.2762,2.2785,2.2785,2.3334,2.3595,2.3595,2.3595,2.3595,2.3595,2.3595,2.3595,2.3595,2.3595,2.3595,2.3595,2.3595,2.364,2.3804,2.5091,2.5615,2.5734,2.7091,2.76,2.76,2.76,2.76,2.76,2.7524,2.7034,2.6484,2.6404,2.642,2.6529,2.6812,2.6946,2.7074,2.7452,2.704,2.6499,2.6499,2.6499,2.6499,2.6499,2.6499,2.6499,2.6499,2.6499,2.6499,2.6499,2.6555,2.7095,2.8588,2.8939,2.9146,2.9575,3.0056,3.0025,2.9025,3.0206,3.1151,3.1204,3.2784,3.3206,3.1646,3.2855,3.3449,3.2961,3.3484,3.4327,3.5457,3.5504,3.4986,3.3891,3.282,3.1476,2.9792,3.062,3.0633,2.983,3.1623,3.2464,0.0,0.0,1.9708,0.0,0.0,0.0,0.0,2.0318,2.0733,0.0,2.0897,2.1111,2.1769,2.1784,2.1784,2.2024,2.2433,2.2912,2.3505,2.3595,2.3595,2.3595,2.3595,2.3595,2.3595,2.3595,2.3595,2.3595,2.3595,2.3334,2.2717,2.3143,2.3421,2.3421,2.353,2.3595,2.3595,2.3595,2.3595,2.3595,2.3595,2.3595,2.3595,2.3595,2.3595,2.3595,2.3595,2.3924,2.447,2.5262,2.5615,2.5734,2.7091,2.76,2.76,2.76,2.76,2.7524,2.693,2.6616,2.6404,2.581,2.5981,2.6216,2.5183,2.5828,2.6903,2.678,2.6624,2.6499,2.6499,2.6499,2.6499,2.6499,2.6499,2.6499,2.6499,2.6499,2.6499,2.6499,2.704,2.7571,2.7887,2.8524,2.894,2.8765,2.8851,2.8913,2.8899,2.9883,3.0728,3.1164,3.2213,3.3031,3.3415,3.2393,3.2642,3.482,3.365,3.365,3.5439,3.5504,3.4673,3.2925,3.1206,3.019,2.9792,2.996,2.9972,2.983,3.0945,3.1462,0.0,0.0,1.9708,1.9708,0.0,0.0,0.0,0.0,2.0198,2.0198,2.0198,2.0408,2.1081,2.1201,2.1321,2.165,2.2269,2.2688,2.2652,2.3191,2.3595,2.3595,2.3909,2.4096,2.4096,2.4096,2.3837,2.3194,2.3143,2.3024,2.2717,2.2987,2.329,2.3595,2.3595,2.3595,2.3595,2.3595,2.3595,2.3595,2.3595,2.3595,2.3595,2.3595,2.3789,2.4096,2.4096,2.447,2.5143,2.5824,2.6093,2.6198,2.721,2.76,2.76,2.76,2.76,2.7484,2.6747,2.6256,2.5837,2.5091,2.5069,2.5197,2.4372,2.5125,2.6295,2.6459,2.6499,2.6499,2.6499,2.6499,2.6499,2.6499,2.6499,2.6499,2.6499,2.6499,2.6499,2.6499,2.685,2.7229,2.7637,2.8051,2.8425,2.8708,2.8605,2.8677,2.9091,2.9889,3.0609,3.1151,3.2033,3.2593,3.2593,3.1742,3.201,3.3939,3.315,3.3463,3.5439,3.5019,3.3856,3.1924,3.0533,2.9792,2.9792,2.9792,2.9792,2.983,3.0758,3.1217,0.0,0.0,0.0,0.0,0.0,2.0022,0.0,0.0,0.0,0.0,0.0,0.0,0.0,0.0,0.0,0.0,0.0,0.0,0.0,2.2622,0.0,2.343,2.4007,2.441,2.441,2.4291,2.3747,2.2595,2.2639,2.2647,2.2506,2.274,2.3113,2.3573,2.3595,2.3595,2.3595,2.3595,2.3595,2.3595,2.3595,2.3595,2.3595,2.3595,2.3984,2.4582,2.4454,2.4923,2.5815,2.6227,2.6564,2.6866,2.739,2.76,2.7575,2.7433,2.7382,2.7265,2.639,2.5673,2.5063,2.4308,2.4138,2.4229,2.4165,2.4833,2.5724,2.6336,2.6499,2.6499,2.6499,2.6499,2.6499,2.6499,2.6499,2.6499,2.6499,2.6499,2.6499,2.6499,2.6624,2.6871,2.7384,2.7484,2.7703,2.8395,2.8399,2.8469,2.9069,2.9706,3.033,3.088,3.1609,3.1829,3.1254,3.1044,3.1402,3.2522,3.2593,3.329,3.4887,3.4007,3.2749,3.1217,3.0279,2.9792,2.9792,2.9972,3.0075,3.0113,3.0833,3.1278,0.0,0.0,0.0,0.0,2.1036,0.0,0.0,0.0,0.0,0.0,0.0,0.0,0.0,0.0,0.0,0.0,0.0,0.0,2.0897,2.1949,2.2808,2.2808,2.3325,2.3714,2.3714,2.3242,2.2607,2.1871,2.2374,2.2447,2.1848,2.2891,2.353,2.3595,2.3595,2.3595,2.3595,2.3595,2.3595,2.3595,2.3595,2.3595,2.3595,2.3595,2.3984,2.4559,2.3917,2.4721,2.6434,2.5856,2.6362,2.7495,2.757,2.76,2.7524,2.6878,2.6616,2.6416,2.5035,2.4509,2.4292,2.3514,2.3599,2.4129,2.4556,2.5134,2.5724,2.6336,2.6499,2.6499,2.6499,2.6499,2.6499,2.6499,2.6499,2.6499,2.6499,2.6499,2.6499,2.6499,2.7061,2.7384,2.6748,2.6658,2.6692,2.6782,2.7161,2.7647,2.8167,2.8722,2.929,2.9909,3.0037,3.0419,3.1143,3.0457,3.0709,3.25,3.2593,3.2713,3.2925,3.2033,3.1426,3.1217,3.0279,2.9792,2.9792,3.0633,3.1044,3.1044,3.1143,3.1633,0.0,0.0,0.0,0.0,0.0,0.0,1.9932,0.0,2.0034,0.0,0.0,0.0,0.0,0.0,0.0,0.0,2.0498,0.0,0.0,0.0,2.2269,0.0,0.0,0.0,2.4141,2.3595,2.2951,2.2331,2.2548,2.2582,2.2294,2.3106,2.3595,2.3595,2.3595,2.3595,2.3595,2.3595,2.3595,2.3595,2.3595,2.3595,2.361,2.4014,2.4545,2.5164,2.4801,2.5633,2.7081,2.5921,2.6289,2.7509,2.6654,2.6587,2.6982,2.7086,2.6602,2.5755,2.5147,2.4652,2.4176,2.3365,2.3496,2.4104,2.4625,2.5184,2.5724,2.6336,2.6499,2.6499,2.6499,2.6499,2.6499,2.6499,2.6499,2.6499,2.6499,2.6499,2.6499,2.6499,2.7162,2.7571,2.7263,2.7604,2.7953,2.7953,2.7714,2.7834,2.8737,2.8615,2.88,2.9691,2.9792,2.9972,3.0343,3.0037,3.0355,3.1706,3.2321,3.2357,3.1815,3.1426,3.0932,3.0381,2.9998,2.9792,2.9792,3.072,3.1499,3.1997,3.1997,3.2213,2.1014,0.0,0.0,0.0,0.0,0.0,0.0,0.0,0.0,0.0,0.0,0.0,0.0,0.0,0.0,0.0,0.0,0.0,0.0,0.0,0.0,0.0,0.0,0.0,0.0,2.358,2.297,2.2725,2.253,2.2511,2.2688,2.3275,2.3595,2.3595,2.3595,2.3595,2.3595,2.3595,2.3595,2.3595,2.3595,2.3595,2.3625,2.4291,2.4857,2.5283,2.5218,2.5994,2.7163,2.5728,2.5973,2.7163,2.5892,2.5591,2.5946,2.6508,2.6162,2.5342,2.4922,2.4529,2.4131,2.3546,2.3853,2.4506,2.4908,2.541,2.5925,2.6373,2.6499,2.6499,2.6499,2.6499,2.6499,2.6499,2.6499,2.6499,2.6499,2.6499,2.6499,2.6499,2.7351,2.8051,2.8051,2.8363,2.8652,2.8652,2.8166,2.8118,2.895,2.8751,2.8875,2.9704,2.9792,2.9792,2.9792,2.9792,3.0317,3.1499,3.1997,3.2033,3.1609,3.1082,3.0482,2.9792,2.9792,2.9792,2.9792,3.072,3.1536,3.2249,3.2749,3.2996,0.0,0.0,0.0,2.1979,0.0,0.0,0.0,0.0,2.0658,0.0,0.0,0.0,0.0,0.0,0.0,0.0,0.0,0.0,0.0,0.0,0.0,0.0,0.0,0.0,0.0,2.2503,2.2017,0.0,2.2096,2.2017,2.2659,2.3275,2.3595,2.3595,2.3595,2.3595,2.3595,2.3595,2.3595,2.3595,2.3595,2.3595,2.3625,2.4291,2.4587,2.4536,2.4445,2.5247,2.6431,2.4922,2.5203,2.6457,2.5701,2.4979,2.4379,2.4408,2.4823,2.5203,2.3695,2.3532,2.401,2.3966,2.4682,2.5548,2.5561,2.5975,2.6474,2.6487,2.6499,2.6499,2.6499,2.6499,2.6499,2.6499,2.6499,2.6499,2.6499,2.6499,2.6499,2.6499,2.7835,2.8971,2.8971,2.8266,2.7736,2.7736,2.793,2.8096,2.8133,2.9063,2.9754,2.9792,2.9792,2.9792,2.9792,2.9792,3.0608,3.2429,3.1742,3.1646,3.2522,3.0809,2.983,2.9792,2.9792,2.9792,2.9792,3.072,3.1217,3.1278,3.3101,3.3959,0.0,0.0,2.2897,2.2478,0.0,0.0,0.0,0.0,0.0,0.0,0.0,0.0,0.0,0.0,0.0,0.0,0.0,0.0,0.0,0.0,0.0,0.0,0.0,0.0,0.0,0.0,0.0,0.0,2.2861,0.0,2.3282,2.3918,2.4073,2.361,2.3595,2.3595,2.3595,2.3595,2.3595,2.3595,2.3595,2.3834,2.4276,2.4948,2.5221,2.5153,2.51,2.5342,2.5646,2.4134,2.4682,2.6336,2.4568,2.4654,2.5701,2.5203,2.4525,2.3865,2.3748,2.3841,2.4054,2.4418,2.5021,2.5598,2.5598,2.6034,2.6499,2.6499,2.6499,2.6499,2.6499,2.6499,2.6499,2.6499,2.6499,2.6499,2.6499,2.6499,2.6499,2.6499,2.7384,2.8149,2.8149,2.8193,2.8445,2.9009,2.8688,2.8437,2.8623,2.8988,2.9365,2.9754,2.9792,2.9792,2.9792,3.0381,3.1007,3.1646,3.196,3.1997,3.1669,3.1044,3.0419,2.9792,2.9792,2.9792,2.9792,3.072,3.1217,3.1217,3.25,3.3066,2.2629,2.3017,0.0,2.2461,2.2194,0.0,2.0897,0.0,0.0,0.0,0.0,0.0,0.0,0.0,0.0,0.0,0.0,0.0,0.0,0.0,0.0,0.0,0.0,0.0,0.0,0.0,2.2368,2.331,2.331,0.0,0.0,2.4709,2.4625,2.3938,2.3747,2.3598,2.3528,2.3598,2.3747,2.3924,2.4186,2.4552,2.4978,2.5659,2.5644,2.5119,2.5313,2.5259,2.4922,2.3943,2.4553,2.5933,2.4208,2.441,2.5618,2.4852,2.409,2.3471,2.3866,2.4255,2.4632,2.4983,2.546,2.59,2.59,2.6197,2.6499,2.6499,2.6499,2.6499,2.6499,2.6499,2.6499,2.6499,2.6499,2.6499,2.6499,2.6499,2.6499,2.6499,2.7162,2.7703,2.7703,2.7993,2.8464,2.922,2.8958,2.871,2.8875,2.9076,2.9377,2.9754,2.9792,2.9934,3.0279,3.1156,3.1852,3.2177,3.2749,3.2664,3.1742,3.1389,3.0758,2.983,2.9792,2.9792,2.9792,3.0419,3.0696,3.0733,3.1328,3.1586]}]]